[[{"header":{"parameterUnit":"m.s-1","parameterCategory":1,"la1":30.6,"la2":28.766,"lo1":-90.7593,"lo2":-88.6598,"dy":0.0162,"dx":0.0183,"nx":116,"ny":114,"refTime":"2024-02-25T06:00:00:Z","depth":0,"parameterNumber":2,"parameterNumberName":"U-component_of_WINDS"},"data":[0.0,0.0,0.0,0.0,0.0,0.0,0.0,0.0,0.0,0.0,0.0,0.0,0.0,0.0,0.0,0.0,0.0,0.0,0.0,0.0,0.0,0.0,0.0,0.0,0.0,0.0,0.0,0.0,0.0,0.0,0.0,0.0,0.0,0.0,0.0,0.0,0.0,0.0,0.0,0.0,0.0,0.0,0.0,0.0,0.0,0.0,0.0,0.0,0.0,0.0,0.0,0.0,0.0,0.0,0.0,0.0,0.0,0.0,0.0,0.0,0.0,0.0,0.0,0.0,0.0,0.0,0.0,0.0,0.0,0.0,0.0,0.0,0.0,0.0,0.0,0.0,0.0,0.0,0.0,0.0,0.0,0.0,0.0,0.0,0.0,0.0,0.0,0.0,0.0,0.0,0.0,0.0,0.0,0.0,0.0,0.0,0.0,0.0,0.0,0.0,0.0,0.0,0.0,0.0,0.0,0.0,0.0,0.0,0.0,0.0,0.0,0.0,0.0,0.0,0.0,0.0,0.0,0.0,0.0,0.0,0.0,0.0,0.0,0.0,0.0,0.0,0.0,0.0,0.0,0.0,0.0,0.0,0.0,0.0,0.0,0.0,0.0,0.0,0.0,0.0,0.0,0.0,0.0,0.0,0.0,0.0,0.0,0.0,0.0,0.0,0.0,0.0,0.0,0.0,0.0,0.0,0.0,0.0,0.0,0.0,0.0,0.0,0.0,0.0,0.0,0.0,0.0,0.0,0.0,0.0,0.0,0.0,0.0,0.0,0.0,0.0,0.0,0.0,0.0,0.0,0.0,0.0,0.0,0.0,0.0,0.0,0.0,0.0,0.0,0.0,0.0,0.0,0.0,0.0,0.0,0.0,0.0,0.0,0.0,0.0,0.0,0.0,0.0,0.0,0.0,0.0,0.0,0.0,0.0,0.0,0.0,0.0,0.0,0.0,0.0,0.0,0.0,0.0,0.0,0.0,0.0,0.0,0.0,0.0,0.0,0.0,0.0,0.0,0.0,0.0,0.0,0.0,0.0,0.0,0.0,0.0,0.0,0.0,0.0,0.0,0.0,0.0,0.0,0.0,0.0,0.0,0.0,0.0,0.0,0.0,0.0,0.0,0.0,0.0,0.0,0.0,0.0,0.0,0.0,0.0,0.0,0.0,0.0,0.0,0.0,0.0,0.0,0.0,0.0,0.0,0.0,0.0,0.0,0.0,0.0,0.0,0.0,0.0,0.0,0.0,0.0,0.0,0.0,0.0,0.0,0.0,0.0,0.0,0.0,0.0,0.0,0.0,0.0,0.0,0.0,0.0,0.0,0.0,0.0,0.0,0.0,0.0,0.0,0.0,0.0,0.0,0.0,0.0,0.0,0.0,0.0,0.0,0.0,0.0,0.0,0.0,0.0,0.0,0.0,0.0,0.0,0.0,0.0,0.0,0.0,0.0,0.0,0.0,0.0,0.0,0.0,0.0,0.0,0.0,0.0,0.0,0.0,0.0,0.0,0.0,0.0,0.0,0.0,0.0,0.0,0.0,0.0,0.0,0.0,0.0,0.0,0.0,0.0,0.0,0.0,0.0,0.0,0.0,0.0,0.0,0.0,0.0,0.0,0.0,0.0,0.0,0.0,0.0,0.0,0.0,0.0,0.0,0.0,0.0,0.0,0.0,0.0,0.0,0.0,0.0,0.0,0.0,0.0,0.0,0.0,0.0,0.0,0.0,0.0,0.0,0.0,0.0,0.0,0.0,0.0,0.0,0.0,0.0,0.0,0.0,0.0,0.0,0.0,0.0,0.0,0.0,0.0,0.0,0.0,0.0,0.0,0.0,0.0,0.0,0.0,0.0,0.0,0.0,0.0,0.0,0.0,0.0,0.0,0.0,0.0,0.0,0.0,0.0,0.0,0.0,0.0,0.0,0.0,0.0,0.0,0.0,0.0,0.0,0.0,0.0,0.0,0.0,0.0,0.0,0.0,0.0,0.0,0.0,0.0,0.0,0.0,0.0,0.0,0.0,0.0,0.0,0.0,0.0,0.0,0.0,0.0,0.0,0.0,0.0,0.0,0.0,0.0,0.0,0.0,0.0,0.0,0.0,0.0,0.0,0.0,0.0,0.0,0.0,0.0,0.0,0.0,0.0,0.0,0.0,0.0,0.0,0.0,0.0,0.0,0.0,0.0,0.0,0.0,0.0,0.0,0.0,0.0,0.0,0.0,0.0,0.0,0.0,0.0,0.0,0.0,0.0,0.0,0.0,0.0,0.0,0.0,0.0,0.0,0.0,0.0,0.0,0.0,0.0,0.0,0.0,0.0,0.0,0.0,0.0,0.0,0.0,0.0,0.0,0.0,0.0,0.0,0.0,0.0,0.0,0.0,0.0,0.0,0.0,0.0,0.0,0.0,0.0,0.0,0.0,0.0,0.0,0.0,0.0,0.0,0.0,0.0,0.0,0.0,0.0,0.0,0.0,0.0,0.0,0.0,0.0,0.0,0.0,0.0,0.0,0.0,0.0,0.0,0.0,0.0,0.0,0.0,0.0,0.0,0.0,0.0,0.0,0.0,0.0,0.0,0.0,0.0,0.0,0.0,0.0,0.0,0.0,0.0,0.0,0.0,0.0,0.0,0.0,0.0,0.0,0.0,0.0,0.0,0.0,0.0,0.0,0.0,0.0,0.0,0.0,0.0,0.0,0.0,0.0,0.0,0.0,0.0,0.0,0.0,0.0,0.0,0.0,0.0,0.0,0.0,0.0,0.0,0.0,0.0,0.0,0.0,0.0,0.0,0.0,0.0,0.0,0.0,0.0,0.0,0.0,0.0,0.0,0.0,0.0,0.0,0.0,0.0,0.0,0.0,0.0,0.0,0.0,0.0,0.0,0.0,0.0,0.0,0.0,0.0,0.0,0.0,0.0,0.0,0.0,0.0,0.0,0.0,0.0,0.0,0.0,0.0,0.0,0.0,0.0,0.0,0.0,0.0,0.0,0.0,0.0,0.0,0.0,0.0,0.0,0.0,0.0,0.0,0.0,0.0,0.0,0.0,0.0,0.0,0.0,0.0,0.0,0.0,0.0,0.0,0.0,0.0,0.0,0.0,0.0,0.0,0.0,0.0,0.0,0.0,0.0,0.0,0.0,0.0,0.0,0.0,0.0,0.0,0.0,0.0,0.0,0.0,0.0,0.0,0.0,0.0,0.0,0.0,0.0,0.0,0.0,0.0,0.0,0.0,0.0,0.0,0.0,0.0,0.0,0.0,0.0,0.0,0.0,0.0,0.0,0.0,0.0,0.0,0.0,0.0,0.0,0.0,0.0,0.0,0.0,0.0,0.0,0.0,0.0,0.0,0.0,0.0,0.0,0.0,0.0,0.0,0.0,0.0,0.0,0.0,0.0,0.0,0.0,0.0,0.0,0.0,0.0,0.0,0.0,0.0,0.0,0.0,0.0,0.0,0.0,0.0,0.0,0.0,0.0,0.0,0.0,0.0,0.0,0.0,0.0,0.0,0.0,0.0,0.0,0.0,0.0,0.0,0.0,0.0,0.0,0.0,0.0,0.0,0.0,0.0,0.0,0.0,0.0,0.0,0.0,0.0,0.0,0.0,0.0,0.0,0.0,0.0,0.0,0.0,0.0,0.0,0.0,0.0,0.0,0.0,0.0,0.0,0.0,0.0,0.0,0.0,0.0,0.0,0.0,0.0,0.0,0.0,0.0,0.0,0.0,0.0,0.0,0.0,0.0,0.0,0.0,0.0,0.0,0.0,0.0,0.0,0.0,0.0,0.0,0.0,0.0,0.0,0.0,0.0,0.0,0.0,0.0,0.0,0.0,0.0,0.0,0.0,0.0,0.0,0.0,0.0,0.0,0.0,0.0,0.0,0.0,0.0,0.0,0.0,0.0,0.0,0.0,0.0,0.0,0.0,0.0,0.0,0.0,0.0,0.0,0.0,0.0,0.0,0.0,0.0,0.0,0.0,0.0,0.0,0.0,0.0,0.0,0.0,0.0,0.0,0.0,0.0,0.0,0.0,0.0,0.0,0.0,0.0,0.0,0.0,0.0,0.0,0.0,0.0,0.0,0.0,0.0,0.0,0.0,0.0,0.0,0.0,0.0,0.0,0.0,0.0,0.0,0.0,0.0,0.0,0.0,0.0,0.0,0.0,0.0,0.0,0.0,0.0,0.0,0.0,0.0,0.0,0.0,0.0,0.0,0.0,0.0,0.0,0.0,0.0,0.0,0.0,0.0,0.0,0.0,0.0,0.0,0.0,0.0,0.0,0.0,0.0,0.0,0.0,0.0,0.0,0.0,0.0,0.0,0.0,0.0,0.0,0.0,0.0,0.0,0.0,0.0,0.0,0.0,0.0,0.0,0.0,0.0,0.0,0.0,0.0,0.0,0.0,0.0,0.0,0.0,0.0,0.0,0.0,0.0,0.0,0.0,0.0,0.0,0.0,0.0,0.0,0.0,0.0,0.0,0.0,0.0,0.0,0.0,0.0,0.0,0.0,0.0,0.0,0.0,0.0,0.0,0.0,0.0,0.0,0.0,0.0,0.0,0.0,0.0,0.0,0.0,0.0,0.0,0.0,0.0,0.0,0.0,0.0,0.0,0.0,0.0,0.0,0.0,0.0,0.0,0.0,0.0,0.0,0.0,0.0,0.0,0.0,0.0,0.0,0.0,0.0,0.0,0.0,0.0,0.0,0.0,0.0,0.0,0.0,0.0,0.0,0.0,0.0,0.0,0.0,0.0,0.0,0.0,0.0,0.0,0.0,0.0,0.0,0.0,0.0,0.0,0.0,0.0,0.0,0.0,0.0,0.0,0.0,0.0,0.0,0.0,0.0,0.0,0.0,0.0,0.0,0.0,0.0,0.0,0.0,0.0,0.0,0.0,0.0,0.0,0.0,0.0,0.0,0.0,0.0,0.0,0.0,0.0,0.0,0.0,0.0,0.0,0.0,0.0,0.0,0.0,0.0,0.0,0.0,0.0,0.0,0.0,0.0,0.0,0.0,0.0,0.0,0.0,0.0,0.0,0.0,0.0,0.0,0.0,0.0,0.0,0.0,0.0,0.0,0.0,0.0,0.0,0.0,0.0,0.0,0.0,0.0,0.0,0.0,0.0,0.0,0.0,0.0,0.0,0.0,0.0,0.0,0.0,0.0,0.0,0.0,0.0,0.0,0.0,0.0,0.0,0.0,0.0,0.0,0.0,0.0,0.0,0.0,0.0,0.0,0.0,0.0,0.0,0.0,0.0,0.0,0.0,0.0,0.0,0.0,0.0,0.0,0.0,0.0,0.0,0.0,0.0,0.0,0.0,0.0,0.0,0.0,0.0,0.0,0.0,0.0,0.0,0.0,0.0,0.0,0.0,0.0,0.0,0.0,0.0,0.0,0.0,0.0,0.0,0.0,0.0,0.0,0.0,0.0,0.0,0.0,0.0,0.0,0.0,0.0,0.0,0.0,0.0,0.0,0.0,0.0,0.0,0.0,0.0,0.0,0.0,0.0,0.0,0.0,0.0,0.0,0.0,0.0,0.0,0.0,0.0,0.0,0.0,0.0,0.0,0.0,0.0,0.0,0.0,0.0,0.0,0.0,0.0,0.0,0.0,0.0,0.0,0.0,0.0,0.0,0.0,0.0,0.0,0.0,0.0,0.0,0.0,0.0,0.0,0.0,0.0,0.0,0.0,0.0,0.0,0.0,0.0,0.0,0.0,0.0,0.0,0.0,0.0,0.0,0.0,0.0,0.0,0.0,0.0,0.0,0.0,0.0,0.0,0.0,0.0,0.0,0.0,0.0,0.0,0.0,0.0,0.0,0.0,0.0,0.0,0.0,0.0,0.0,0.0,0.0,0.0,0.0,0.0,0.0,0.0,0.0,0.0,0.0,0.0,0.0,0.0,0.0,0.0,0.0,0.0,0.0,0.0,0.0,0.0,0.0,0.0,0.0,0.0,0.0,0.0,0.0,0.0,0.0,0.0,0.0,0.0,0.0,0.0,0.0,0.0,0.0,0.0,0.0,0.0,0.0,0.0,0.0,0.0,0.0,0.0,0.0,0.0,0.0,0.0,0.0,0.0,0.0,0.0,0.0,0.0,0.0,0.0,0.0,0.0,0.0,0.0,1.5808,0.0,0.0,0.0,0.0,0.0,0.0,0.0,0.0,0.0,0.0,0.0,0.0,0.0,0.0,0.0,0.0,0.0,0.0,0.0,0.0,0.0,0.0,0.0,0.0,0.0,0.0,0.0,-0.0432,-0.016,0.0,0.0,0.0,0.0,0.0,0.0,0.0,0.0,0.0,0.0,0.0,0.0123,0.0398,0.064,0.069,0.0572,0.0,0.0,0.0,0.0,0.0,0.0,0.0,0.0,0.0,0.0,0.0,0.0,0.0,0.0,0.0,0.0,0.0,0.0,0.0,0.0,0.0,0.0,0.0,0.0,0.0,0.0,0.0,0.0,0.0,0.0,0.0,0.0,0.0,0.0,0.0,0.0,0.0,0.0,0.0,0.0,0.0,0.0,0.0,0.0,0.0,0.0,0.0,0.0,0.0,0.0,0.0,0.0,0.0,0.0,0.0,0.0,0.0,0.0,0.0,0.0,0.0,0.0,0.0,0.0,0.0,0.0,0.0,0.0,0.0,0.0,0.0,1.5888,0.0,0.0,0.0,0.0,0.0,0.0,0.0,0.0,0.0,0.0,0.0,0.0,0.0,0.0,0.0,0.0,0.0,0.0,0.0,0.0,0.0,0.0,0.0,-0.0929,-0.057,-0.0418,-0.0163,0.0,0.0,0.0,0.0,0.0,0.0,0.0,0.0,0.0,0.0,0.0,0.005,0.0353,0.0884,0.1412,0.1639,0.1615,0.1464,0.0,0.0,0.0,0.0,0.0,0.0,0.0,0.0,0.0,0.0,0.0,0.0,0.0,0.0,0.0,0.0,0.0,0.0,0.0,0.0,0.0,0.0,0.0,0.0,0.0,0.0,0.0,0.0,0.0,0.0,0.0,0.0,0.0,0.0,0.0,0.0,0.0,0.0,0.0,0.0,0.0,0.0,0.0,0.0,0.0,0.0,0.0,0.0,0.0,0.0,0.0,0.0,0.0,0.0,0.0,0.0,0.0,0.0,0.0,0.0,0.0,0.0,0.0,1.6233,1.6377,1.6377,1.6593,1.67,1.6673,1.6168,1.6102,1.6377,0.0,0.0,0.0,0.0,0.0,0.0,0.0,0.0,0.0,0.0,0.0,0.0,0.0,0.0,0.0,0.0,0.0,0.0,0.0,0.0,0.0,0.0,-0.0709,-0.0426,-0.0403,-0.0166,0.0,0.0,0.0,0.0,0.0,0.0,0.0,0.0,0.0,0.0,0.0,0.0227,0.0631,0.1162,0.169,0.2421,0.3251,0.2546,0.2269,0.2295,0.0,0.0,0.0,0.0,0.0,0.0,0.0,0.0,0.0,0.0,0.0,0.0,0.0,0.0,0.0,0.0,0.0,0.0,0.0,0.0,0.0,0.0,0.0,0.0,0.0,0.0,0.0,0.0,0.0,0.0,0.0,0.0,0.0,0.0,0.0,0.0,0.0,0.0,0.0,0.0,0.0,1.2759,1.2977,0.0,0.0,0.0,0.0,0.0,0.0,0.0,0.0,0.0,0.0,0.0,0.0,0.0,1.6244,1.6244,1.646,1.6593,1.6593,1.6633,1.6647,1.6647,1.6687,1.67,1.67,1.662,0.0,1.6647,1.6647,0.0,0.0,0.0,0.0,0.0,0.0,0.0,0.0,0.0,0.0,0.0,0.0,0.0,0.0,0.0,0.0,0.0,0.0,0.0,0.0,0.0,-0.031,-0.0168,-0.0169,-0.0073,0.0,0.0,0.0,0.0,0.0,0.0,0.0,0.0,0.0,0.0,0.0,0.0429,0.0833,0.1213,0.2221,0.3075,0.383,0.4081,0.4106,0.3956,0.3805,0.0,0.0,0.0,0.0,0.0,0.0,0.0,0.0,0.0,0.0,0.0,0.0,0.0,0.0,0.0,0.0,0.0,0.0,0.0,0.0,0.0,0.0,0.0,0.0,0.0,0.0,0.0,0.0,0.0,0.0,0.0,0.0,0.0,0.0,0.0,0.0,0.0,0.0,0.0,1.2165,1.3281,1.3727,1.4256,1.4568,0.0,0.0,0.0,0.0,0.0,0.0,0.0,0.0,0.0,1.6288,1.6446,1.6513,1.6513,1.6647,1.67,1.6714,1.6899,1.6979,1.6993,1.7153,1.7194,1.7194,1.7194,1.7194,1.7181,1.7046,1.7073,1.7194,0.0,0.0,0.0,0.0,1.7194,1.7194,0.0,0.0,0.0,0.0,0.0,0.0,0.0,0.0,0.0,0.0,0.0,0.0,0.0,0.0,0.0,0.0,0.0,0.0,0.0,0.0,0.0,0.0,0.0,0.0,0.0,0.0,0.0,0.0,0.048,0.0833,0.1137,0.2397,0.333,0.3956,0.516,0.5586,0.5391,0.5261,0.5211,0.5186,0.0,0.0,0.0,0.0,0.0,0.0,0.0,0.0,0.0,0.0,0.0,0.0,0.0,0.0,0.0,0.0,0.0,0.0,0.0,0.0,0.0,0.0,0.0,0.0,0.0,0.0,0.0,0.0,0.0,0.0,0.0,0.0,0.0,0.0,0.0,0.0,0.0,1.2616,1.3583,1.4316,1.4879,1.5204,0.0,0.0,0.0,0.0,0.0,0.0,1.6366,1.6404,1.6486,1.67,1.678,1.682,1.682,1.6887,1.6927,1.6927,1.718,1.7313,1.7326,1.7515,1.7608,1.7608,1.7608,1.7608,1.7595,1.7367,1.7408,1.7608,1.7608,1.7608,1.7608,1.7608,1.7608,1.7608,0.0,0.0,0.0,0.0,0.0,0.0,0.0,0.0,0.0,0.0,0.0,0.0,0.0,0.0,0.0,0.0,0.0,0.0,0.0,0.0,0.0,0.0,0.0,0.0,0.0,0.0,0.0,0.0,0.0278,0.0555,0.0833,0.1943,0.2874,0.3679,0.5261,0.5967,0.5967,0.6212,0.6312,0.6312,0.6312,0.0,0.0,0.0,0.0,0.0,0.0,0.0,0.0,0.0,0.0,0.0,0.0,0.0,0.0,0.0,0.0,0.0,0.0,0.0,0.0,0.0,0.0,0.0,0.0,0.0,0.0,0.0,0.0,0.0,0.0,0.0,0.0,0.0,0.0,0.0,0.0,0.0,0.0,1.4616,1.5142,0.0,0.0,0.0,0.0,1.6235,1.6498,1.6648,1.6687,1.6687,1.6687,1.67,1.7006,1.7179,1.7179,1.7421,1.7542,1.7542,1.7582,1.7582,1.7582,1.7595,1.7608,1.7608,1.7608,1.7608,1.7608,1.7595,1.7595,1.7608,1.7608,1.7608,1.7608,1.7608,1.7608,1.7608,0.0,0.0,0.0,0.0,0.0,0.0,0.0,0.0,0.0,0.0,0.0,0.0,0.0,0.0,0.0,0.0,0.0,0.0,0.0,0.0,0.0,0.0,0.0,0.0,0.0,0.0,0.0,0.0,0.0278,0.053,0.0833,0.1891,0.2924,0.393,0.5365,0.6292,0.6792,0.7067,0.7166,0.7166,0.6992,0.7067,0.0,0.0,0.0,0.0,0.0,0.0,0.0,0.0,0.0,0.0,0.0,0.0,0.0,0.0,0.0,0.0,0.0,0.0,0.0,0.0,0.0,0.0,0.0,0.0,0.0,0.0,0.0,0.0,0.0,0.0,0.0,0.0,0.0,0.0,0.0,0.0,0.0,1.485,1.5576,0.0,1.6267,1.6355,1.6444,1.655,1.6663,1.6794,1.7006,1.702,1.71,1.7261,1.7394,1.7448,1.7448,1.7555,1.7608,1.7608,1.7608,1.7689,1.7849,1.7849,1.7983,1.817,1.817,1.817,1.817,1.817,1.7956,1.7608,1.7608,1.7702,1.7849,1.7849,1.7996,1.8143,0.0,0.0,0.0,0.0,0.0,0.0,0.0,0.0,0.0,0.0,0.0,0.0,0.0,0.0,0.0,0.0,0.0,0.0,0.0,0.0,0.0,0.0,0.0,0.0,0.0,0.0,0.0,0.0,0.0257,0.054,0.0849,0.1954,0.3007,0.4032,0.5491,0.6536,0.7217,0.7661,0.7792,0.7721,0.754,0.7565,0.7746,0.0,0.0,0.0,0.0,0.0,0.0,0.0,0.0,0.0,0.0,0.0,0.0,0.0,0.0,0.0,0.0,0.0,0.0,0.0,0.0,0.0,0.0,0.0,0.0,0.0,0.0,0.0,0.0,0.0,0.0,0.0,0.0,0.0,0.0,0.0,1.3975,1.4985,1.5795,1.6402,1.667,1.681,1.6926,1.6994,1.7007,1.7113,1.7314,1.7314,1.7461,1.7729,1.7742,1.7782,1.7889,1.7889,1.7889,1.7889,1.7889,1.7996,1.8169,1.8169,1.8276,1.849,1.849,1.849,1.849,1.849,1.825,1.7889,1.7889,1.8009,1.8169,1.8169,1.8234,1.8228,0.0,0.0,0.0,0.0,0.0,0.0,0.0,0.0,0.0,0.0,0.0,0.0,0.0,0.0,0.0,0.0,0.0,0.0,0.0,0.0,0.0,0.0,0.0,0.0,0.0,0.0,0.0,0.0,0.0264,0.0586,0.0959,0.2078,0.3092,0.4023,0.5691,0.6722,0.7264,0.8001,0.8187,0.8027,0.7995,0.7988,0.7988,0.0,0.0,0.0,0.0,0.0,0.0,0.0,0.0,0.0,0.0,0.0,0.0,0.0,0.0,0.0,0.0,0.0,0.0,0.0,0.0,0.0,0.0,0.0,0.0,0.0,0.0,0.0,0.0,0.0,0.0,0.0,0.0,0.0,1.1925,1.31,1.4083,1.4961,1.5783,1.638,1.6652,1.6988,1.7301,1.7569,1.7595,1.7595,1.7622,1.7635,1.7756,1.7995,1.8009,1.8169,1.849,1.849,1.849,1.849,1.849,1.849,1.8504,1.8504,1.8504,1.8517,1.8517,1.8517,1.8517,1.8517,1.8517,1.8517,1.849,1.849,1.8504,1.8476,1.8254,1.7768,0.0,0.0,0.0,0.0,0.0,0.0,0.0,0.0,0.0,0.0,0.0,0.0,0.0,0.0,0.0,0.0,0.0,0.0,0.0,0.0,0.0,0.0,0.0,0.0,0.0,0.0,0.0,0.0,0.0266,0.0831,0.1655,0.2605,0.3823,0.5256,0.6361,0.7224,0.7881,0.8282,0.8423,0.8343,0.8101,0.7988,0.7988,0.0,0.0,0.0,0.0,0.0,0.0,0.0,0.0,0.0,0.0,0.0,0.0,0.0,0.0,0.0,0.0,0.0,0.0,0.0,0.0,0.0,0.0,0.0,0.0,0.0,0.0,0.0,0.0,0.0,0.0,0.0,0.9764,1.0318,1.0898,1.2275,1.3456,1.4082,1.5246,1.6125,1.6385,1.6674,1.6976,1.7292,1.7502,1.7674,1.7889,1.813,1.8277,1.837,1.837,1.841,1.849,1.849,1.849,1.849,1.849,1.8597,1.8783,1.8783,1.8918,1.916,1.916,1.916,1.916,1.916,1.9004,1.875,1.8302,1.8262,1.8361,1.7937,1.7408,1.6785,0.0,0.0,0.0,0.0,0.0,0.0,0.0,0.0,0.0,0.0,0.0,0.0,0.0,0.0,0.0,0.0,0.0,0.0,0.0,0.0,0.0,0.0,0.0,0.0,0.0,0.0,0.0081,0.0218,0.0631,0.1416,0.2538,0.3551,0.4845,0.6331,0.7226,0.7937,0.8441,0.8595,0.8676,0.8648,0.8343,0.8162,0.8126,0.804,0.7988,0.7988,0.7988,0.7988,0.7988,0.7988,0.0,0.0,0.0,0.0,0.0,0.0,0.0,0.0,0.0,0.0,0.0,0.0,0.0,0.0,0.0,0.0,0.0,0.0,0.0,0.0,0.0,0.0,0.0,0.0,0.9596,0.9941,1.0037,1.1728,1.3113,1.3539,1.4736,1.5639,1.5893,1.6377,1.6858,1.7282,1.76,1.7895,1.8182,1.8397,1.8639,1.8879,1.8893,1.8971,1.9212,1.9225,1.9225,1.9225,1.9225,1.9276,1.9437,1.9437,1.953,0.0,1.9733,1.9733,1.9733,1.9585,1.9335,0.0,0.0,0.0,0.0,0.0,1.6371,1.5798,0.0,0.0,0.0,0.0,0.0,0.0,0.0,0.0,0.0,0.0,0.0,0.0,0.0,0.0,0.0,0.0,0.0,0.0,0.0,0.0,0.0,0.0,0.0,0.0,0.0,0.0,0.0166,0.0506,0.1144,0.215,0.3477,0.4741,0.6007,0.7237,0.8172,0.8726,0.8962,0.8962,0.8953,0.8912,0.8648,0.8451,0.8281,0.8094,0.8033,0.7988,0.7988,0.7988,0.7988,0.7988,0.0,0.0,0.0,0.0,0.0,0.0,0.0,0.0,0.0,0.0,0.0,0.0,0.0,0.0,0.0,0.0,0.0,0.0,0.0,0.0,0.0,0.0,0.0,0.0,0.9203,0.9431,0.9431,1.1287,1.2748,1.3056,1.4131,1.4934,1.5209,1.603,1.6759,1.7257,1.7667,1.8041,1.8417,0.0,0.0,0.0,0.0,1.9677,2.0197,2.0197,2.0197,2.0197,2.0197,2.0197,2.0197,2.018,2.0136,2.0136,2.0045,2.0015,1.9985,1.9663,1.9285,1.8825,1.8369,1.7799,1.7032,1.5864,1.5178,1.465,0.0,0.0,0.0,0.0,0.0,0.0,0.0,0.0,0.0,0.0,0.0,0.0,0.0,0.0,0.0,0.0,0.0,0.0,0.0,0.0,0.0,0.0,0.0,0.0,0.0,0.0,0.0171,0.0486,0.1366,0.248,0.3837,0.5421,0.6797,0.7927,0.8663,0.9108,0.9294,0.9291,0.9254,0.9124,0.892,0.8615,0.8294,0.826,0.8147,0.7988,0.7988,0.7988,0.7988,0.7988,0.7988,0.8033,0.8187,0.8253,0.0,0.0,0.0,0.0,0.0,0.0,0.0,0.0,0.0,0.0,0.0,0.0,0.0,0.0,0.0,0.0,0.0,0.0,0.0,0.8912,0.9287,0.956,0.956,1.0462,1.1288,1.1726,1.3015,1.3937,1.4174,1.5041,1.571,1.6025,1.6765,1.7421,1.7973,1.8428,1.8957,1.9615,1.9645,1.9819,2.0197,2.0197,2.0197,2.0197,0.0,0.0,2.0197,1.9937,1.9815,1.9785,1.9224,1.898,1.8949,1.8613,1.7803,1.6794,1.6951,1.6304,1.5186,1.4661,1.3918,1.3087,0.0,0.0,0.0,0.0,0.0,0.0,0.0,0.0,0.0,0.0,0.0,0.0,0.0,0.0,0.0,0.0,0.0,0.0,0.0,0.0,0.0,0.0,0.0,0.0,0.0,0.0,0.0318,0.0989,0.1802,0.3118,0.4929,0.6263,0.7538,0.872,0.9226,0.9516,0.9598,0.9523,0.9437,0.9281,0.9103,0.8825,0.8479,0.843,0.8282,0.8153,0.8153,0.8081,0.8027,0.8126,0.8153,0.818,0.8355,0.8403,0.843,0.0,0.0,0.0,0.0,0.0,0.0,0.0,0.0,0.0,0.0,0.0,0.0,0.0,0.0,0.9049,0.9049,0.0,0.9157,0.9157,0.9332,0.9495,0.9495,0.9932,1.0444,1.098,1.2108,1.2984,1.3365,1.4351,1.5191,1.5777,1.6459,1.7035,1.7475,1.7936,1.8477,1.9137,1.9304,1.9565,1.9892,1.9892,1.983,1.9643,1.9643,1.9719,1.9783,1.9625,1.9511,1.9424,1.9092,1.8836,1.86,1.7812,1.669,1.5418,1.515,1.4604,1.3882,1.3201,1.2634,1.213,0.0,0.0,0.0,0.0,0.0,0.0,0.0,0.0,0.0,0.0,0.0,0.0,0.0,0.0,0.0,0.0,0.0,0.0,0.0,0.0,0.0,0.0,0.0,0.0,0.0,0.0,0.0493,0.1503,0.2243,0.3731,0.5939,0.7006,0.8141,0.9305,0.964,0.9792,0.9785,0.9673,0.9523,0.9396,0.924,0.9022,0.8716,0.8615,0.8492,0.8335,0.8335,0.8228,0.8121,0.8294,0.8335,0.8362,0.8505,0.8526,0.8554,0.871,0.873,0.0,0.0,0.0,0.0,0.0,0.0,0.0,0.0,0.8953,0.896,0.8994,0.9117,0.9226,0.9226,0.9328,0.941,0.941,0.9437,0.9422,0.9422,0.9681,1.0002,1.0501,1.1433,1.2212,1.267,1.3764,1.4681,1.5319,1.5886,1.6293,1.6593,1.7021,1.757,1.8282,1.8656,1.901,1.9325,1.9386,1.9281,1.9003,1.9003,1.911,1.9235,1.9104,1.8991,1.8876,1.8575,1.8205,1.769,1.6629,1.5524,1.4334,1.3511,1.3078,1.2803,1.1915,1.1573,1.1445,0.0,0.0,0.0,0.0,0.0,0.0,0.0,0.0,0.0,0.0,0.0,0.0,0.0,0.0,0.0,0.0,0.0,0.0,0.0,0.0,0.0,0.0,0.0,0.0,0.0,0.0,0.0493,0.1503,0.248,0.3971,0.5939,0.7225,0.836,0.9305,0.964,0.9792,0.9785,0.9673,0.9523,0.9396,0.924,0.9083,0.8885,0.8865,0.871,0.8485,0.8485,0.8471,0.8438,0.8478,0.8485,0.8512,0.8635,0.8682,0.8716,0.8838,0.8885,0.8892,0.8906,0.8912,0.8912,0.8912,0.8912,0.8946,0.0,0.9158,0.9199,0.9335,0.9376,0.9383,0.9383,0.9396,0.941,0.941,0.9496,0.9585,0.9585,0.9808,1.0002,1.0064,1.1126,1.1889,1.2069,1.3119,1.3711,1.351,1.4006,1.4467,1.4859,1.5354,1.6119,1.7152,1.7684,1.8101,1.8451,1.8615,1.8696,1.8674,1.8674,1.8685,1.8675,1.8072,1.778,1.7712,1.6374,1.5425,1.4744,1.4317,1.3874,1.337,1.2627,1.2152,1.1813,1.1397,1.1066,1.0802,0.0,0.0,0.0,0.0,0.0,0.0,0.0,0.0,0.0,0.0,0.0,0.0,0.0,0.0,0.0,0.0,0.0,0.0,0.0,0.0,0.0,0.0,0.0,0.0,0.0,0.0,0.0577,0.1743,0.2588,0.4162,0.6436,0.7438,0.8513,0.9609,0.9731,0.9744,0.9693,0.9632,0.9469,0.9274,0.9234,0.9069,0.8912,0.8912,0.8831,0.871,0.8648,0.856,0.0,0.8587,0.8615,0.8642,0.877,0.8818,0.8831,0.8892,0.8912,0.8912,0.8912,0.8912,0.8933,0.9042,0.9062,0.9131,0.9281,0.9315,0.9335,0.9396,0.9449,0.9517,0.9517,0.9585,0.9639,0.9639,0.9693,0.9737,0.9819,0.994,1.0049,1.0175,1.0857,1.1399,1.1533,1.225,1.2729,1.2793,1.3122,1.3437,1.3721,1.4295,1.4992,1.5748,1.6406,1.6714,1.6603,1.6695,1.6509,1.6103,1.6103,1.6172,1.6324,1.6059,1.5885,1.5756,1.4885,1.4229,1.3695,1.3485,1.3063,1.2507,1.2091,1.171,1.1386,1.1261,1.1111,1.0975,0.0,0.0,0.0,0.0,0.0,0.0,0.0,0.0,0.0,0.0,0.0,0.0,0.0,0.0,0.0,0.0,0.0,0.0,0.0,0.0,0.0,0.0,0.0,0.0,0.0,0.0,0.0627,0.1898,0.2616,0.4252,0.6748,0.7461,0.8467,0.97,0.97,0.9646,0.9544,0.9503,0.9383,0.9207,0.9138,0.9028,0.8912,0.8912,0.8912,0.8899,0.8784,0.8703,0.8621,0.871,0.8743,0.8764,0.8879,0.8912,0.8912,0.8912,0.894,0.898,0.9021,0.9034,0.9083,0.922,0.9247,0.9288,0.9437,0.9442,0.9456,0.9496,0.9591,0.9666,0.9666,0.9724,0.9792,0.9792,0.9825,0.9893,0.997,1.0089,1.0184,1.0324,1.0693,1.0983,1.1113,1.1618,1.2003,1.2213,1.2363,1.2512,1.2684,1.3266,1.3807,1.4275,1.4978,1.5211,1.4893,1.4947,1.4708,1.419,1.419,1.4301,1.4465,1.436,1.4154,1.386,1.3547,1.319,1.2817,1.2732,1.237,1.1868,1.1713,1.1531,1.1322,1.1322,1.1268,1.12,0.0,0.0,0.0,0.0,0.0,0.0,0.0,0.0,0.0,0.0,0.0,0.0,0.0,0.0,0.0,0.0,0.0,0.0,0.0,0.0,0.0,0.0,0.0,0.0,0.0,0.0,0.0613,0.1898,0.2501,0.411,0.6633,0.7232,0.8201,0.9424,0.9424,0.9424,0.941,0.926,0.9221,0.92,0.9001,0.8912,0.8912,0.8912,0.8912,0.8912,0.8906,0.8899,0.8899,0.8899,0.8906,0.8906,0.8912,0.8912,0.8912,0.8912,0.9035,0.9206,0.9356,0.9396,0.9396,0.9403,0.9403,0.9415,0.9564,0.9605,0.9639,0.9751,0.9785,0.9785,0.9785,0.9785,0.9792,0.9792,0.9913,0.9984,0.9984,1.0265,1.048,1.0487,1.0622,1.0772,0.0,1.1466,1.1736,1.1528,1.155,1.1614,1.173,1.2082,1.2399,1.2742,1.3349,1.3682,1.3655,1.3861,1.3923,1.3923,1.3923,1.3923,1.3923,1.3531,1.2968,1.2266,1.2266,1.2015,1.1655,1.1649,1.1649,1.1613,1.1606,1.1606,1.1606,1.1606,1.1416,1.12,0.0,0.0,0.0,0.0,0.0,0.0,0.0,0.0,0.0,0.0,0.0,0.0,0.0,0.0,0.0,0.0,0.0,0.0,0.0,0.0,0.0,0.0,0.0,0.0,0.0,0.0,0.0599,0.1836,0.2474,0.4069,0.6561,0.719,0.8189,0.941,0.941,0.9356,0.9254,0.9228,0.9124,0.9008,0.8933,0.8912,0.8912,0.8912,0.8912,0.8912,0.0,0.8912,0.8912,0.8912,0.8912,0.8912,0.8912,0.8912,0.8926,0.9055,0.9213,0.9342,0.9396,0.941,0.9437,0.951,0.953,0.9571,0.972,0.9717,0.9731,0.9778,0.9792,0.9792,0.9792,0.9792,0.9825,0.9927,0.9988,1.0089,1.0317,1.0426,1.0527,1.0629,1.0745,0.0,0.0,0.0,0.0,1.1282,1.1296,1.1365,1.1482,1.1874,1.2169,1.2349,1.2818,1.2955,1.2678,1.2738,1.266,1.2366,1.2366,1.2366,1.2366,1.2223,1.2043,1.1799,1.1799,1.1727,1.1584,1.1584,1.1584,1.1584,1.1584,1.1584,1.1584,1.1584,1.1552,1.1463,0.0,0.0,0.0,0.0,0.0,0.0,0.0,0.0,0.0,0.0,0.0,0.0,0.0,0.0,0.0,0.0,0.0,0.0,0.0,0.0,0.0,0.0,0.0,0.0,0.0,0.0,0.0533,0.1624,0.2354,0.384,0.6028,0.686,0.7855,0.895,0.9034,0.9063,0.9022,0.9022,0.8974,0.8912,0.8912,0.8912,0.8912,0.8912,0.8912,0.0,0.8912,0.8912,0.8912,0.8912,0.8912,0.8912,0.8912,0.8946,0.9042,0.922,0.9369,0.9476,0.9523,0.9537,0.9564,0.9659,0.9686,0.9707,0.9771,0.9792,0.9792,0.9792,0.9792,0.9792,0.9792,0.9792,0.9839,0.9994,1.0062,1.0184,1.046,1.0541,1.0629,1.0752,1.0853,1.0955,0.0,0.0,0.0,1.1274,1.1281,1.1342,1.1463,1.1719,1.1909,1.1979,1.2223,1.2259,1.1979,1.1979,1.1871,1.1584,1.1584,1.1584,1.1584,1.1584,1.1584,1.1584,1.1584,1.1584,1.1584,1.1584,1.1584,1.1584,1.1584,1.1584,1.1584,1.1584,1.1584,1.1584,0.0,0.0,0.0,0.0,0.0,0.0,0.0,0.0,0.0,0.0,0.0,0.0,0.0,0.0,0.0,0.0,0.0,0.0,0.0,0.0,0.0,0.0,0.0,0.0,0.0,0.0,0.0418,0.1303,0.2151,0.3451,0.5126,0.6241,0.7249,0.8118,0.8381,0.856,0.8703,0.871,0.877,0.8899,0.8906,0.8912,0.8912,0.8912,0.8912,0.8912,0.8912,0.8912,0.8912,0.8912,0.8912,0.8912,0.8912,0.9042,0.922,0.9369,0.9496,0.9652,0.9751,0.9792,0.9792,0.9792,0.9792,0.9792,0.9792,0.9792,0.9792,0.9792,0.9792,0.9792,0.9792,0.9798,0.9852,1.0001,1.0188,1.0369,1.048,1.0629,1.0745,1.0894,1.0921,1.1036,1.1362,0.0,0.0,1.1402,0.0,1.1463,1.1577,1.1584,1.1584,1.1584,1.1584,1.1584,1.1584,1.1584,1.1584,1.1584,1.1584,1.1584,1.1584,1.1584,1.1584,1.1584,1.1584,1.1584,1.1584,1.1584,1.1584,1.1584,1.1584,1.1584,1.1584,1.1584,1.1548,1.1512,0.0,0.0,0.0,0.0,0.0,0.0,0.0,0.0,0.0,0.0,0.0,0.0,0.0,0.0,0.0,0.0,0.0,0.0,0.0,0.0,0.0,0.0,0.0,0.0,0.0,0.0,0.0436,0.1305,0.1983,0.3255,0.5126,0.6052,0.7059,0.8118,0.8381,0.8532,0.8547,0.8662,0.873,0.875,0.8865,0.8912,0.8912,0.8912,0.8912,0.8912,0.8912,0.8912,0.8912,0.8912,0.8912,0.8912,0.8912,0.9117,0.9362,0.9396,0.9564,0.9744,0.9778,0.9792,0.9792,0.9792,0.9792,0.9792,0.9792,0.9792,0.9792,0.9792,0.9792,0.9792,0.9792,0.9886,1.0008,1.0195,1.0344,1.0487,1.0643,1.0697,1.0745,1.0894,1.1043,1.1185,1.1375,1.1497,0.0,0.0,1.1558,1.1543,1.1619,1.1584,1.1584,1.1584,1.1584,1.1584,1.1584,1.1584,1.1584,1.1584,1.1584,1.1584,1.1584,1.1584,1.1584,1.1584,1.1584,1.1584,1.1584,1.1584,1.1584,1.1584,1.1584,1.1404,1.1152,1.1152,1.0822,1.0311,0.0,0.0,0.0,0.0,0.0,0.0,0.0,0.0,0.0,0.0,0.0,0.0,0.0,0.0,0.0,0.0,0.0,0.0,0.0,0.0177,0.0278,0.0505,0.0404,0.0404,0.053,0.0303,0.0533,0.1256,0.1819,0.2983,0.4645,0.5709,0.6741,0.7724,0.8109,0.8323,0.8423,0.8479,0.8594,0.0,0.0,0.8852,0.8912,0.8912,0.8912,0.8912,0.8912,0.8912,0.8912,0.8912,0.8912,0.8912,0.8912,0.9144,0.941,0.941,0.9591,0.9792,0.9792,0.9792,0.9792,0.9792,0.9792,0.9792,0.9792,0.9792,0.9792,0.9792,0.9792,0.9792,0.9792,0.9913,1.0069,1.0256,1.0399,1.0548,1.0664,1.0745,1.084,1.1023,1.1172,1.1321,1.1477,1.1565,1.1584,0.0,1.1584,1.1584,1.1584,1.1584,1.1584,1.1584,1.1584,1.1584,1.1584,1.1584,1.1584,1.1584,1.1584,1.1584,1.1584,1.1584,1.1584,1.1584,0.0,1.1584,1.1584,1.1584,1.1512,1.1332,1.1332,1.1002,1.0498,1.0317,0.9879,0.9332,0.0,0.0,0.0,0.0,0.0,0.0,0.0,0.0,0.0,0.0,0.0,0.0,0.0,0.0,0.0,0.0,0.0,0.0,0.0,0.0,0.0783,0.1287,0.1111,0.1111,0.1313,0.0858,0.0833,0.1313,0.1841,0.2773,0.4081,0.5391,0.6442,0.721,0.7764,0.8088,0.8267,0.8287,0.8444,0.8655,0.8696,0.8764,0.8885,0.0,0.8912,0.8912,0.8912,0.8912,0.8912,0.8912,0.8912,0.8912,0.8912,0.9144,0.941,0.941,0.9591,0.9792,0.9792,0.9792,0.9792,0.9792,0.9792,0.9792,0.9792,0.9792,0.9792,0.9792,0.9792,0.9792,0.9792,0.9913,1.0069,1.0256,1.0399,1.0548,1.0664,1.0819,1.0968,1.1179,1.1336,1.145,1.1606,1.1584,1.1584,1.1584,1.1584,1.1584,1.1584,1.1584,1.1584,1.1584,1.1584,1.1584,1.1584,1.1584,1.1584,1.1584,1.1584,1.1584,1.1584,1.1584,1.1584,1.1584,0.0,0.0,1.1512,1.1512,1.126,1.0864,1.0792,1.0281,0.9554,0.9157,0.8646,0.8136,0.0,0.0,0.0,0.0,0.0,0.0,0.0,0.0,0.0,0.0,0.0,0.0,0.0,0.0,0.0,0.0,0.0,0.0,0.0,0.0,0.0,0.1841,0.2017,0.2043,0.1866,0.1765,0.1765,0.1866,0.2397,0.3226,0.4354,0.5486,0.6442,0.721,0.7764,0.8027,0.806,0.824,0.8328,0.8396,0.8615,0.8723,0.8737,0.8865,0.0,0.0,0.8912,0.8912,0.8912,0.8912,0.8912,0.8912,0.8912,0.9144,0.941,0.941,0.9591,0.9792,0.9792,0.9792,0.9792,0.9792,0.9792,0.9792,0.9792,0.9792,0.9792,0.9792,0.9792,0.9792,0.9792,0.9913,1.0069,1.0256,1.0399,1.0548,1.0664,1.0819,1.0968,1.1179,1.1336,1.145,1.1606,1.1584,0.0,0.0,1.1584,1.1584,1.1584,1.1584,1.1584,1.1584,1.1584,1.1584,1.1584,1.1584,1.1584,1.1584,1.1584,1.1584,1.1584,1.1584,1.1584,1.1584,1.1584,0.0,1.1116,1.1116,1.0714,1.0059,0.9735,0.8941,0.7964,0.7562,0.6543,0.5383,0.0,0.0,0.0,0.0,0.0,0.0,0.0,0.0,0.0,0.0,0.0126,0.0151,0.0025,0.0126,0.0,0.0,0.0,0.0,0.0,0.0,0.0,0.0,0.0,0.0,0.345,0.2922,0.2773,0.305,0.0,0.383,0.5031,0.5837,0.6642,0.7416,0.7814,0.7988,0.7995,0.8094,0.8201,0.8308,0.8451,0.8574,0.8716,0.0,0.0,0.0,0.8912,0.8912,0.8912,0.8912,0.8912,0.8912,0.8912,0.9144,0.941,0.941,0.9591,0.9792,0.9792,0.9792,0.9792,0.9792,0.9792,0.9792,0.9792,0.9792,0.9792,0.9792,0.9792,0.9792,0.9792,0.9913,1.0069,1.0256,1.0399,1.0548,1.0664,1.0914,1.1084,1.1186,1.1369,1.1538,1.1577,1.1584,1.1584,1.1584,1.1584,1.1584,1.1584,1.1584,1.1584,1.1584,1.1584,1.1584,1.1584,1.1584,1.1584,1.1584,1.1584,1.1584,1.1584,1.1584,1.1476,1.1296,1.1296,0.0,1.0426,1.0209,0.9554,0.8652,0.8249,0.7272,0.6039,0.564,0.4766,0.3748,0.0,0.0,0.0,0.0,0.0,0.0,0.0,0.0,0.0025,0.0076,0.0328,0.0454,0.0353,0.048,0.0707,0.0,0.0,0.0,0.0,0.0,0.0,0.0,0.0,0.0,0.0,0.0,0.0,0.4332,0.4182,0.0,0.0,0.0,0.0,0.0,0.7889,0.7988,0.7988,0.7988,0.8088,0.0,0.0,0.8437,0.0,0.0,0.0,0.0,0.0,0.8912,0.8912,0.8912,0.8912,0.8919,0.8946,0.9164,0.9417,0.9422,0.9612,0.9792,0.9792,0.9792,0.9792,0.9792,0.9792,0.9792,0.9792,0.9792,0.9792,0.9792,0.9792,0.9792,0.9792,0.9886,1.0028,1.0249,1.0403,1.0514,1.0697,1.0975,1.12,1.12,1.1436,1.1584,1.1584,1.1584,0.0,1.1584,1.1584,0.0,1.1584,1.1584,1.1584,1.1584,1.1584,1.1584,1.1584,1.1584,1.1584,1.1584,1.1584,1.1548,1.1476,1.1476,1.1224,1.075,1.0684,0.0,0.0,0.8977,0.8068,0.6946,0.6547,0.5492,0.4151,0.3751,0.3096,0.2368,0.0,0.0,0.0,0.0,0.0,0.0,0.0,0.0,0.0076,0.0328,0.0606,0.0934,0.1412,0.1262,0.1338,0.0,0.0,0.0,0.0,0.0,0.0,0.0,0.0,0.0,0.0,0.0,0.0,0.5461,0.5661,0.0,0.0,0.0,0.0,0.0,0.0,0.7988,0.7988,0.7988,0.0,0.0,0.0,0.0,0.0,0.0,0.0,0.0,0.0,0.8912,0.8912,0.8912,0.8912,0.8933,0.9117,0.9274,0.9437,0.9551,0.97,0.9792,0.9792,0.9792,0.9792,0.9792,0.9792,0.9792,0.9792,0.9792,0.9792,0.9792,0.9792,0.9792,0.9792,0.9805,0.9937,1.0267,1.0322,1.0399,1.0644,1.0975,1.12,1.12,1.1436,1.1584,1.1584,1.1584,1.1584,1.1584,1.1584,0.0,1.1584,1.1584,1.1584,1.1584,1.1584,1.1584,1.1584,1.1584,1.1584,1.1584,1.1584,1.1404,1.1044,1.1044,1.0678,0.9987,0.9627,0.0,0.0,0.7381,0.6326,0.4911,0.4514,0.3607,0.2478,0.2078,0.1458,0.0802,0.0,0.0,0.0,0.0,0.0,0.0,0.0,0.0126,0.0328,0.0606,0.1161,0.1715,0.2269,0.2798,0.3073,0.2975,0.0,0.0,0.0,0.0,0.0,0.0,0.0,0.0,0.0,0.0,0.6517,0.6562,0.6517,0.0,0.0,0.0,0.0,0.0,0.0,0.7988,0.7988,0.7988,0.0,0.0,0.0,0.0,0.0,0.0,0.0,0.0,0.0,0.0,0.8912,0.8912,0.8912,0.8933,0.9138,0.9288,0.9437,0.9564,0.9707,0.9792,0.9792,0.9792,0.9792,0.9792,0.9792,0.9792,0.9792,0.9792,0.9792,0.9792,0.9792,0.9792,0.9792,0.9792,0.9924,1.0261,1.0315,1.0385,1.0644,1.0975,1.12,1.12,1.1436,1.1584,1.1584,0.0,1.1584,1.1584,1.1584,0.0,1.1584,1.1584,1.1584,1.1584,1.1584,1.1584,1.1584,1.1584,1.1476,1.1224,1.1224,1.0936,1.0317,1.0101,0.9446,0.8507,0.8104,0.0,0.0,0.5422,0.4478,0.3205,0.2804,0.2078,0.124,0.1094,0.0693,0.0255,0.0,0.0,0.0,0.0,0.0,0.0126,0.0126,0.0404,0.0757,0.1111,0.1866,0.2622,0.3327,0.4282,0.478,0.4558,0.5156,0.0,0.0,0.0,0.0,0.0,0.0,0.0,0.0,0.0,0.7241,0.7441,0.7241,0.7341,0.0,0.0,0.7821,0.7988,0.0,0.0,0.0,0.0,0.0,0.0,0.0,0.0,0.0,0.0,0.0,0.0,0.0,0.0,0.0,0.0,0.0,0.8933,0.9138,0.9288,0.9437,0.9564,0.9707,0.9792,0.9792,0.9792,0.9792,0.9792,0.9792,0.9792,0.9792,0.9792,0.9792,0.9792,0.9792,0.9792,0.9792,0.9792,0.9924,1.0261,1.0315,1.0385,1.0644,1.0975,1.12,1.12,1.1436,1.1584,1.1584,1.1584,1.1584,1.1584,0.0,0.0,1.1584,1.1584,1.1584,1.1584,1.1584,1.1584,1.1584,1.1476,1.1224,1.0858,1.0606,1.0065,0.9193,0.8796,0.7923,0.6728,0.633,0.0,0.0,0.3569,0.277,0.1786,0.1494,0.0985,0.0438,0.0438,0.0255,0.0,0.0,0.0,0.0,0.0,0.0,0.0,0.0404,0.0858,0.1388,0.1917,0.2695,0.3601,0.4659,0.5486,0.6192,0.6717,0.6537,0.0,0.0,0.0,0.0,0.0,0.0,0.0,0.0,0.0,0.7988,0.7988,0.7988,0.7988,0.7988,0.7988,0.7988,0.7988,0.0,0.0,0.0,0.0,0.0,0.0,0.0,0.0,0.0,0.0,0.0,0.0,0.0,0.0,0.0,0.0,0.0,0.0,0.0,0.9288,0.9437,0.9564,0.9707,0.9792,0.9792,0.9792,0.9792,0.9792,0.9792,0.9792,0.9792,0.9792,0.9792,0.9792,0.9792,0.9792,0.9792,0.9792,0.9924,1.0261,1.0315,1.0385,1.0644,1.0975,1.12,1.12,1.1436,1.1584,1.1584,1.1584,1.1584,1.1584,0.0,0.0,1.1584,1.1584,1.1584,1.1584,1.1584,1.1584,1.1584,1.1224,1.0822,1.0491,0.9699,0.8724,0.7602,0.72,0.6181,0.0,0.0,0.0,0.0,0.1895,0.1276,0.062,0.062,0.0365,0.0,0.0,0.0,0.0,0.0,0.0,0.0,0.0,0.0,0.0,0.0,0.1943,0.2498,0.3025,0.3952,0.483,0.5536,0.6337,0.6967,0.7322,0.7266,0.0,0.0,0.0,0.0,0.0,0.0,0.0,0.0,0.0,0.7988,0.7988,0.7988,0.7988,0.7988,0.7988,0.7988,0.7988,0.7988,0.7988,0.0,0.0,0.0,0.0,0.0,0.0,0.0,0.0,0.0,0.0,0.0,0.0,0.0,0.0,0.0,0.0,0.0,0.0,0.0,0.9437,0.9625,0.9792,0.9792,0.9792,0.9792,0.9792,0.9792,0.9792,0.9792,0.9792,0.9792,0.9792,0.9792,0.9792,0.9792,0.9792,0.9924,1.0261,1.0315,1.0419,1.0786,1.1043,1.1234,1.1342,1.1497,1.1584,0.0,0.0,1.1584,1.1584,0.0,0.0,1.1584,1.1584,1.1584,1.1584,1.1332,1.1188,1.1188,1.057,0.9915,0.9266,0.8507,0.7385,0.5931,0.5313,0.4296,0.0,0.0,0.0,0.0,0.0985,0.0657,0.0182,0.0182,0.0109,0.0,0.0,0.0,0.0,0.0,0.0,0.0,0.0,0.0,0.0,0.0,0.3075,0.3704,0.4153,0.5056,0.5857,0.6392,0.6992,0.7466,0.7721,0.7746,0.0,0.0,0.0,0.0,0.0,0.0,0.0,0.0,0.7988,0.7988,0.7988,0.7988,0.7988,0.7988,0.7988,0.7988,0.7988,0.7988,0.7988,0.0,0.0,0.0,0.0,0.0,0.0,0.8315,0.0,0.0,0.0,0.0,0.0,0.0,0.0,0.0,0.0,0.0,0.0,0.0,0.0,0.9551,0.9724,0.9778,0.9792,0.9792,0.9792,0.9792,0.9792,0.9792,0.9792,0.9792,0.9792,0.9792,0.9792,0.9792,0.9792,0.9924,1.0261,1.0315,1.0439,1.0853,1.107,1.1274,1.145,1.1558,1.1584,0.0,1.1584,1.1584,0.0,0.0,0.0,1.1584,1.1476,1.1332,1.1181,1.093,1.0678,1.0353,0.9482,0.8615,0.782,0.6765,0.5604,0.4299,0.3532,0.2624,0.0,0.0,0.0,0.0,0.0365,0.0219,0.0,0.0,0.0,0.0,0.0,0.0,0.0,0.0,0.0,0.0,0.0,0.0,0.0,0.0,0.4253,0.501,0.5281,0.6007,0.6686,0.7166,0.7466,0.7721,0.7963,0.0,0.0,0.0,0.0,0.0,0.0,0.0,0.0,0.0,0.7988,0.7988,0.7988,0.7988,0.7988,0.7988,0.7988,0.7988,0.7988,0.7988,0.7988,0.0,0.0,0.0,0.0,0.7988,0.8101,0.0,0.0,0.0,0.0,0.0,0.0,0.0,0.0,0.0,0.0,0.0,0.0,0.0,0.0,0.0,0.0,0.0,0.9785,0.9792,0.9792,0.9792,0.9792,0.9792,0.9792,0.0,0.9792,0.9792,0.9792,0.9792,0.9798,0.993,1.0267,1.0322,1.0453,1.0867,1.1097,1.1336,1.1586,1.1584,1.1584,1.1584,1.1584,1.1584,0.0,0.0,0.0,1.1548,1.1152,1.075,1.0383,1.0275,0.9915,0.9193,0.8,0.7022,0.6221,0.4696,0.3571,0.2771,0.1968,0.1239,0.0,0.0,0.0,0.0,0.0,0.0,0.0,0.0,0.0,0.0,0.0,0.0,0.0,0.0,0.0,0.0,0.0,0.0,0.0,0.0,0.0,0.0,0.0,0.6942,0.7372,0.7497,0.7739,0.7939,0.0,0.0,0.0,0.0,0.0,0.0,0.0,0.0,0.0,0.0,0.7988,0.7988,0.7988,0.7988,0.7988,0.7988,0.7988,0.7988,0.7988,0.7988,0.7988,0.0,0.0,0.0,0.0,0.7988,0.8033,0.0,0.0,0.0,0.0,0.8818,0.8912,0.0,0.0,0.0,0.0,0.0,0.0,0.0,0.0,0.9342,0.9469,0.9618,0.0,0.9792,0.9792,0.9792,0.9792,0.0,0.9792,0.9792,0.9792,0.9792,0.9792,0.9792,0.9886,1.0028,1.0249,1.0403,1.0602,1.1084,1.1341,1.1538,1.1577,1.1584,1.1584,1.1584,1.1584,1.1584,0.0,0.0,1.1152,1.1152,1.0534,0.9843,0.9163,0.8285,0.7887,0.8,0.6511,0.5386,0.4623,0.3352,0.2333,0.1567,0.1094,0.0584,0.0,0.0,0.0,0.0,0.0,0.0,0.0,0.0,0.0,0.0,0.0,0.0,0.0,0.0,0.0,0.0,0.0,0.0,0.0,0.0,0.0,0.0,0.0,0.0,0.0,0.0,0.0,0.0,0.0,0.0,0.0,0.0,0.0,0.0,0.0,0.0,0.0,0.7988,0.7988,0.7988,0.7988,0.7988,0.7988,0.7988,0.7988,0.7988,0.7988,0.7988,0.7988,0.0,0.0,0.0,0.0,0.7988,0.0,0.0,0.0,0.0,0.0,0.8798,0.8912,0.0,0.8912,0.8912,0.8912,0.0,0.0,0.0,0.0,0.924,0.9356,0.9551,0.9683,0.9792,0.9792,0.9792,0.9792,0.9792,0.9792,0.9792,0.9792,0.9792,0.9812,0.9879,0.9961,1.0089,1.0344,1.05,1.0751,1.124,1.147,1.1584,1.1584,1.1584,1.1584,0.0,1.1584,0.0,0.0,0.0,1.0936,1.0786,0.9699,0.8719,0.796,0.6475,0.5858,0.6257,0.4841,0.3751,0.2988,0.2005,0.1313,0.0912,0.0511,0.0219,0.0,0.0,0.0,0.0,0.0,0.0,0.0,0.0,0.0,0.0,0.0,0.0,0.0,0.0,0.0,0.0,0.0,0.0,0.0,0.0,0.0,0.0,0.0,0.0,0.0,0.0,0.0,0.0,0.0,0.0,0.0,0.0,0.0,0.0,0.0,0.0,0.7988,0.7988,0.7988,0.7988,0.7988,0.7988,0.7988,0.7988,0.7988,0.7988,0.7988,0.7988,0.7988,0.0,0.0,0.0,0.0,0.7988,0.0,0.0,0.0,0.0,0.0,0.0,0.0,0.0,0.8912,0.8912,0.8912,0.8912,0.0,0.0,0.0,0.0,0.0,0.9496,0.968,0.9765,0.9785,0.9792,0.9792,0.9792,0.9792,0.9792,0.9792,0.9792,0.9839,0.9988,1.0035,1.0143,1.0446,1.0656,1.0928,1.1335,1.1525,1.1584,1.1584,1.1584,0.0,1.1584,1.1548,0.0,0.0,0.0,1.0498,1.0167,0.8574,0.7308,0.658,0.4769,0.3932,0.4148,0.3132,0.226,0.1531,0.0839,0.0511,0.0511,0.0146,0.0,0.0,0.0,0.0,0.0,0.0,0.0,0.0,0.0,0.0,0.0,0.0,0.0,0.0,0.0,0.0,0.0,0.0,0.0,0.0,0.0,0.0,0.0,0.0,0.0,0.0,0.0,0.0,0.0,0.0,0.0,0.0,0.0,0.0,0.0,0.0,0.7988,0.7988,0.7988,0.7988,0.7988,0.7988,0.7988,0.7988,0.7988,0.7988,0.7988,0.7988,0.7988,0.7988,0.7988,0.0,0.0,0.7988,0.7988,0.0,0.0,0.0,0.0,0.0,0.0,0.0,0.0,0.8912,0.8912,0.8912,0.8912,0.0,0.0,0.0,0.0,0.0,0.9396,0.953,0.9673,0.9758,0.9792,0.9792,0.9792,0.9792,0.9792,0.9792,0.9792,0.9839,0.9988,1.0123,1.0297,1.0466,1.0866,1.12,1.1362,1.1525,1.1584,1.1584,0.0,1.1584,1.1584,0.0,0.0,0.0,0.0,0.8868,0.8502,0.6688,0.5313,0.455,0.3279,0.2296,0.1749,0.1566,0.1239,0.0766,0.0292,0.0109,0.0073,0.0036,0.0,0.0,0.0,0.0,0.0,0.0,0.0,0.0,0.0,0.0,0.0,0.0,0.0,0.0,0.0,0.0,0.0,0.0,0.0,0.0,0.0,0.0,0.0,0.0,0.0,0.0,0.0,0.0,0.0,0.0,0.0,0.0,0.0,0.0,0.0,0.7988,0.7988,0.7988,0.7988,0.7988,0.7988,0.7988,0.7988,0.7988,0.7988,0.7988,0.7988,0.7988,0.7988,0.7988,0.7988,0.7988,0.7988,0.7988,0.0,0.0,0.0,0.0,0.0,0.0,0.0,0.0,0.0,0.0,0.8912,0.8912,0.8912,0.0,0.0,0.0,0.0,0.0,0.9247,0.9396,0.9523,0.9673,0.9737,0.9792,0.9792,0.9792,0.9792,0.9792,0.9852,0.9961,1.0148,1.0297,1.0493,1.0839,1.1132,1.1341,1.1491,1.1572,1.1584,0.0,0.0,1.1512,1.1296,0.0,0.0,0.0,0.0,0.0,0.72,0.5347,0.4041,0.3462,0.2114,0.1204,0.0875,0.0656,0.0474,0.0255,0.0073,0.0,0.0,0.0,0.0,0.0,0.0,0.0,0.0,0.0,0.0,0.0,0.0,0.0,0.0,0.0,0.0,0.0,0.0,0.0,0.0,0.0,0.0,0.0,0.0,0.0,0.0,0.0,0.0,0.0,0.0,0.0,0.0,0.0,0.0,0.0,0.0,0.0,0.7988,0.7988,0.7988,0.7988,0.7988,0.7988,0.7988,0.7988,0.7988,0.7988,0.7988,0.7988,0.7988,0.7988,0.7988,0.7988,0.7988,0.7988,0.7988,0.7988,0.0,0.0,0.0,0.0,0.0,0.0,0.0,0.0,0.0,0.0,0.0,0.0,0.0,0.0,0.0,0.8912,0.8912,0.894,0.9145,0.9267,0.9403,0.9564,0.9713,0.9792,0.9792,0.9792,0.9798,0.9839,0.994,1.0076,1.0297,1.048,1.0738,1.1186,1.1314,1.1443,1.1563,1.1584,1.1584,1.1584,1.1584,1.144,0.0,0.0,0.0,0.0,0.0,0.0,0.5749,0.3969,0.2768,0.237,0.1131,0.0474,0.0474,0.0146,0.0,0.0,0.0,0.0,0.0,0.0,0.0,0.0,0.0,0.0,0.0,0.0,0.0,0.0,0.0,0.0,0.0,0.0,0.0,0.0,0.0,0.0,0.0,0.0,0.0,0.0,0.0,0.0,0.0,0.0,0.0,0.0,0.0,0.0,0.0,0.0,0.0,0.0,0.0,0.0,0.7988,0.7988,0.7988,0.7988,0.7988,0.7988,0.7988,0.7988,0.7988,0.7988,0.7988,0.7988,0.7988,0.7988,0.7988,0.7988,0.7988,0.7988,0.7988,0.7988,0.7988,0.0,0.0,0.0,0.0,0.0,0.0,0.0,0.0,0.0,0.0,0.0,0.0,0.0,0.8912,0.8912,0.8912,0.894,0.9145,0.9221,0.9267,0.9537,0.9713,0.9792,0.9792,0.9792,0.9832,0.9974,0.9977,1.0103,1.0426,1.0684,1.0982,1.1321,1.1382,1.1443,1.1563,0.0,1.1584,1.1584,1.1584,0.0,0.0,0.0,0.0,0.0,0.0,0.0,0.3751,0.2222,0.1166,0.0766,0.0292,0.0036,0.0036,0.0,0.0,0.0,0.0,0.0,0.0,0.0,0.0,0.0,0.0,0.0,0.0,0.0,0.0,0.0,0.0,0.0,0.0,0.0,0.0,0.0,0.0,0.0,0.0,0.0,0.0,0.0,0.0,0.0,0.0,0.0,0.0,0.0,0.0,0.0,0.0,0.0,0.0,0.0,0.0,0.0,0.7988,0.7988,0.7988,0.7988,0.7988,0.7988,0.7988,0.7988,0.7988,0.7988,0.7988,0.7988,0.7988,0.7988,0.7988,0.7988,0.7988,0.7988,0.7988,0.7988,0.7988,0.8133,0.0,0.0,0.0,0.0,0.0,0.0,0.0,0.0,0.8912,0.8912,0.8912,0.8912,0.8912,0.8912,0.8912,0.8926,0.9008,0.9111,0.9233,0.9415,0.9578,0.9713,0.9771,0.9866,0.9947,0.9977,1.0163,1.0387,1.0684,1.0941,1.1151,1.1355,1.147,1.1552,1.1577,1.1584,1.1584,1.1584,1.1584,0.0,0.0,0.0,0.0,0.0,0.0,0.0,0.244,0.1385,0.0766,0.062,0.0219,0.0,0.0,0.0,0.0,0.0,0.0,0.0,0.0,0.0,0.0,0.0,0.0,0.0,0.0,0.0,0.0,0.0,0.0,0.0,0.0,0.0,0.0,0.0,0.0,0.0,0.0,0.0,0.0,0.0,0.0,0.0,0.0,0.0,0.0,0.0,0.0,0.0,0.0,0.0,0.0,0.0,0.7988,0.7988,0.7988,0.7988,0.7988,0.7988,0.7988,0.7988,0.7988,0.7988,0.7988,0.7988,0.7988,0.7988,0.7988,0.7988,0.7988,0.7988,0.7988,0.7988,0.7988,0.802,0.8067,0.8201,0.0,0.0,0.0,0.0,0.0,0.0,0.0,0.0,0.8912,0.8912,0.8912,0.8912,0.8912,0.8912,0.8912,0.8912,0.8912,0.9042,0.922,0.9369,0.9496,0.9659,0.9819,0.994,1.0035,1.0082,1.0399,1.0711,1.0934,1.1138,1.1322,0.0,1.1552,1.1584,1.1584,1.1584,1.1584,1.1584,1.1476,0.0,0.0,0.0,0.0,0.0,0.0,0.0,0.0,0.0766,0.0401,0.0401,0.0146,0.0,0.0,0.0,0.0,0.0,0.0,0.0,0.0,0.0,0.0,0.0,0.0,0.0,0.0,0.0,0.0,0.0,0.0,0.0,0.0,0.0,0.0,0.0,0.0,0.0,0.0,0.0,0.0,0.0,0.0,0.0,0.0,0.0,0.0,0.0,0.0,0.0,0.0,0.0,0.0,0.0,0.7988,0.7988,0.7988,0.7988,0.7988,0.7988,0.7988,0.7988,0.7988,0.7988,0.7988,0.7988,0.7988,0.7988,0.7988,0.7988,0.7988,0.7988,0.7988,0.7988,0.7988,0.8033,0.8208,0.8383,0.8526,0.0,0.0,0.0,0.0,0.0,0.0,0.0,0.8912,0.8912,0.8912,0.8912,0.8912,0.8912,0.8912,0.8912,0.8912,0.9042,0.922,0.9369,0.9496,0.9656,0.9954,1.0053,1.0131,1.0281,1.0603,1.0961,1.1172,1.1322,1.1443,1.1592,1.1584,1.1584,1.1584,1.1584,1.1584,1.1584,1.1224,0.0,0.0,0.0,0.0,0.0,0.0,0.0,0.0,0.0219,0.0,0.0,0.0,0.0,0.0,0.0,0.0,0.0,0.0,0.0,0.0,0.0,0.0,0.0,0.0,0.0,0.0,0.0,0.0,0.0,0.0,0.0,0.0,0.0,0.0,0.0,0.0,0.0,0.0,0.0,0.0,0.0,0.0,0.0,0.0,0.0,0.0,0.0,0.0,0.0,0.0,0.0,0.0,0.0,0.7988,0.7988,0.7988,0.7988,0.7988,0.7988,0.7988,0.7988,0.7988,0.7988,0.7988,0.7988,0.7988,0.7988,0.7988,0.7988,0.7988,0.7988,0.7988,0.7988,0.8074,0.8208,0.8281,0.8444,0.8648,0.0,0.0,0.0,0.0,0.0,0.0,0.0,0.0,0.0,0.8912,0.8912,0.8912,0.8912,0.8912,0.8912,0.8912,0.9042,0.922,0.9369,0.9496,0.9656,0.9954,1.0134,1.0315,1.0534,1.0745,1.0961,1.1172,1.1322,0.0,1.1592,1.1584,1.1584,1.1584,1.1584,1.1584,1.1584,1.1224,0.0,0.0,0.0,0.0,0.0,0.0,0.0,0.0,0.0073,0.0,0.0,0.0,0.0,0.0,0.0,0.0,0.0,0.0,0.0,0.0,0.0,0.0,0.0,0.0,0.0,0.0,0.0,0.0,0.0,0.0,0.0,0.0,0.0,0.0,0.0,0.0,0.0,0.0,0.0,0.0,0.0,0.0,0.0,0.0,0.0,0.7988,0.7988,0.0,0.0,0.0,0.0,0.0,0.0,0.0,0.7988,0.7988,0.7988,0.7988,0.7988,0.7988,0.7988,0.7988,0.7988,0.7988,0.7988,0.7988,0.7988,0.7988,0.7988,0.7988,0.7988,0.7995,0.8081,0.8187,0.8308,0.8423,0.8554,0.8716,0.0,0.0,0.0,0.0,0.0,0.0,0.0,0.0,0.0,0.8912,0.8912,0.8912,0.8912,0.8912,0.8912,0.8912,0.9089,0.9294,0.939,0.9537,0.9774,1.0042,1.0256,1.0432,1.067,1.0853,1.1056,1.1179,1.1341,0.0,1.1606,1.1584,1.1584,1.1584,1.1584,1.1548,1.1368,1.0894,0.0,0.0,0.0,0.0,0.0,0.0,0.0,0.0,0.0,0.0,0.0,0.0,0.0,0.0,0.0,0.0,0.0,0.0,0.0,0.0,0.0,0.0,0.0,0.0,0.0,0.0,0.0,0.0,0.0,0.0,0.0,0.0,0.0,0.0,0.0,0.0,0.0,0.7988,0.7988,0.0,0.0,0.0,0.0,0.0,0.0,0.7988,0.7988,0.0,0.0,0.0,0.0,0.0,0.0,0.0,0.0,0.7988,0.7988,0.7988,0.7988,0.7988,0.7988,0.7988,0.7988,0.7988,0.7988,0.7988,0.7988,0.7988,0.7988,0.7988,0.802,0.8047,0.8208,0.8315,0.8362,0.8601,0.8716,0.8743,0.8858,0.0,0.0,0.0,0.0,0.0,0.0,0.0,0.0,0.8912,0.8912,0.8912,0.8912,0.8912,0.8912,0.8912,0.9157,0.941,0.941,0.9625,0.9937,1.0215,1.0399,1.0555,1.0677,1.0968,1.12,1.1213,1.1423,1.1584,1.1584,1.1584,1.1584,1.1584,1.1584,1.144,1.1044,0.0,0.0,0.0,0.0,0.0,0.0,0.0,0.0,0.0,0.0,0.0,0.0,0.0,0.0,0.0,0.0,0.0,0.0,0.0,0.0,0.0,0.0,0.0,0.0,0.0,0.0,0.0,0.0,0.0,0.0,0.0,0.0,0.0,0.0,0.0,0.0,0.0,0.0,0.7988,0.7988,0.0,0.0,0.0,0.0,0.0,0.0,0.0,0.0,0.0,0.0,0.0,0.0,0.0,0.0,0.0,0.0,0.7988,0.7988,0.7988,0.7988,0.7988,0.7988,0.7988,0.7988,0.7988,0.7988,0.7988,0.7988,0.7988,0.7988,0.7988,0.8081,0.8247,0.8281,0.843,0.8621,0.8682,0.8757,0.8865,0.8899,0.8912,0.0,0.0,0.0,0.0,0.0,0.0,0.0,0.8912,0.8912,0.8912,0.8912,0.8912,0.8912,0.8912,0.9157,0.941,0.941,0.9788,1.0202,1.0263,1.048,1.0717,1.0833,1.1043,1.1234,1.1356,1.1497,1.1584,1.1584,1.1584,1.1584,1.1584,1.1584,1.144,1.1044,0.0,0.0,0.0,0.0,0.0,0.0,0.0,0.0,0.0036,0.0,0.0,0.0,0.0,0.0,0.0,0.0,0.0,0.0,0.0,0.0,0.0,0.0,0.0,0.0,0.0,0.0,0.0,0.0,0.0,0.0,0.0,0.0,0.0,0.0,0.0,0.0,0.0,0.0,0.0,0.0,0.0,0.0,0.0,0.0,0.0,0.0,0.0,0.0,0.0,0.7988,0.0,0.0,0.7988,0.7988,0.7988,0.7988,0.7988,0.7988,0.7988,0.7988,0.7988,0.7988,0.7988,0.7988,0.7988,0.7988,0.7988,0.7988,0.7988,0.7995,0.8094,0.8194,0.8308,0.8451,0.8567,0.8716,0.8764,0.8838,0.8912,0.8912,0.8912,0.8912,0.8912,0.0,0.0,0.0,0.0,0.0,0.0,0.0,0.8912,0.8912,0.8912,0.8912,0.8912,0.9157,0.9444,0.9557,0.9937,1.0315,1.0315,1.0507,1.0732,1.088,1.1063,1.1247,1.1362,1.1518,1.1584,1.1584,1.1584,1.1584,1.1584,1.144,1.1116,1.0534,0.0,0.0,0.0,0.0,0.0,0.0,0.0,0.0219,0.0,0.0,0.0,0.0,0.0,0.0,0.0,0.0,0.0,0.0,0.0,0.0,0.0,0.0,0.0,0.0,0.0,0.0,0.0,0.0,0.0,0.0,0.0,0.0,0.0,0.0,0.0,0.0,0.0,0.0,0.0,0.0,0.0,0.0,0.0,0.0,0.0,0.0,0.0,0.0,0.0,0.7988,0.7988,0.0,0.0,0.0,0.7988,0.7988,0.7988,0.7988,0.7988,0.7988,0.7988,0.7988,0.7988,0.7988,0.7988,0.7988,0.7988,0.7988,0.8027,0.806,0.8214,0.8321,0.8389,0.8608,0.8723,0.8737,0.8858,0.8912,0.8912,0.8912,0.0,0.8912,0.8912,0.8912,0.8912,0.8912,0.0,0.0,0.0,0.0,0.8912,0.8912,0.8912,0.8912,0.8912,0.9157,0.9449,0.9747,1.0053,1.0315,1.0315,1.0507,1.0732,1.088,1.1063,1.1247,1.1362,1.1518,1.1584,1.1584,1.1584,1.1584,1.1584,1.126,1.0714,0.9879,0.0,0.0,0.0,0.0,0.0,0.0,0.0,0.0,0.0,0.0,0.0,0.0,0.0,0.0,0.0,0.0,0.0,0.0,0.0,0.0,0.0,0.0,0.0,0.0,0.0,0.0,0.0,0.0,0.0,0.0,0.0,0.0,0.0,0.0,0.0,0.0,0.0,0.0,0.0,0.0,0.0,0.0,0.0,0.0,0.0,0.0,0.7988,0.7988,0.7988,0.7988,0.7988,0.7988,0.7988,0.7988,0.7988,0.0,0.0,0.7988,0.7988,0.7988,0.7988,0.7988,0.7988,0.7988,0.7988,0.7988,0.7988,0.7988,0.8088,0.8267,0.8287,0.8437,0.8655,0.8696,0.8757,0.8885,0.8899,0.8912,0.8912,0.0,0.0,0.0,0.0,0.8912,0.8912,0.8912,0.8912,0.0,0.0,0.0,0.8912,0.8912,0.8912,0.8912,0.8912,0.9157,0.9449,0.9747,1.0053,1.0315,1.0315,1.0507,1.0732,1.088,1.1063,1.1247,1.1362,1.1518,1.1584,1.1584,1.1584,1.1584,1.1584,1.126,1.0612,0.9518,0.0,0.0,0.0,0.0,0.0,0.0,0.0219,0.0,0.0,0.0,0.0,0.0,0.0,0.0,0.0,0.0,0.0,0.0,0.0,0.0,0.0,0.0,0.0,0.0,0.0,0.0,0.0,0.0,0.0,0.0,0.0,0.0,0.0,0.0,0.0,0.0,0.0,0.0,0.0,0.0,0.0,0.0,0.0,0.0,0.0,0.0,0.0,0.7988,0.7988,0.7988,0.7988,0.7988,0.7988,0.7988,0.7988,0.7988,0.7988,0.7988,0.7988,0.7988,0.7988,0.7988,0.7988,0.7988,0.7988,0.806,0.8167,0.8167,0.8208,0.8301,0.8471,0.8587,0.8716,0.8777,0.8852,0.8912,0.8912,0.8912,0.0,0.0,0.0,0.0,0.0,0.0,0.0,0.8912,0.8912,0.8912,0.8912,0.0,0.0,0.0,0.8912,0.8946,0.9144,0.9279,0.9449,0.9747,0.9954,1.0175,1.0263,1.0439,1.0636,1.0752,1.0907,1.1111,1.1348,1.1518,1.1584,1.1584,1.1584,1.1584,1.1584,1.0894,1.0023,0.908,0.705,0.0,0.0,0.0,0.0,0.0,0.0109,0.0,0.0,0.0,0.0,0.0,0.0,0.0,0.0,0.0,0.0,0.0,0.0,0.0,0.0,0.0,0.0,0.0,0.0,0.0,0.0,0.0,0.0,0.0,0.0,0.0,0.0,0.0,0.0,0.0,0.0,0.0,0.0,0.0,0.0,0.0,0.0,0.0,0.0,0.0,0.0,0.7988,0.7988,0.0,0.0,0.0,0.7988,0.7988,0.7988,0.7988,0.7988,0.7988,0.7988,0.7988,0.7988,0.7988,0.8033,0.8074,0.8074,0.8174,0.8349,0.8389,0.841,0.8417,0.8615,0.873,0.875,0.8865,0.8912,0.8912,0.8912,0.0,0.0,0.0,0.0,0.0,0.0,0.0,0.0,0.0,0.0,0.8912,0.8912,0.8912,0.0,0.0,0.0,0.8967,0.9281,0.9383,0.9442,0.97,0.9879,1.0062,1.0243,1.0392,1.0534,1.0657,1.0806,1.0982,1.124,1.143,1.1572,1.1577,1.1584,1.1548,1.1476,1.0534,0.9482,0.8389,0.6145,0.0,0.0,0.0,0.0,0.0,0.0,0.0,0.0,0.0,0.0,0.0,0.0,0.0,0.0,0.0,0.0,0.0,0.0,0.0,0.0,0.0,0.0,0.0,0.0,0.0,0.0,0.0,0.0,0.0,0.0,0.0,0.0,0.0,0.0,0.0,0.0,0.0,0.0,0.0,0.0,0.0,0.0,0.0,0.0,0.0,0.0,0.7988,0.7988,0.7988,0.7988,0.7988,0.7988,0.7988,0.7988,0.7988,0.7988,0.7988,0.7988,0.0,0.7988,0.7988,0.8088,0.8281,0.8281,0.8355,0.8498,0.8621,0.8689,0.8689,0.8703,0.8764,0.8899,0.8906,0.8912,0.8912,0.8912,0.0,0.0,0.0,0.0,0.0,0.0,0.0,0.0,0.0,0.0,0.0,0.0,0.8912,0.8912,0.0,0.0,0.0,0.9152,0.9301,0.9422,0.9578,0.9805,1.0062,1.0243,1.0392,1.0534,1.0657,1.0806,1.0921,1.0934,1.1171,1.145,1.1599,1.1584,1.1476,1.108,1.0389,0.9188,0.7304,0.5673,0.0,0.0,0.0,0.0,0.0,0.0,0.0,0.0,0.0,0.0,0.0,0.0,0.0,0.0,0.0,0.0,0.0,0.0,0.0,0.0,0.0,0.0,0.0,0.0,0.0,0.0,0.0,0.0,0.0,0.0,0.0,0.0,0.0,0.0,0.0,0.0,0.0,0.0,0.0,0.0,0.0,0.0,0.0,0.0,0.0,0.0,0.0,0.0,0.7988,0.7988,0.7988,0.7988,0.7988,0.7988,0.7988,0.7988,0.7988,0.7988,0.7988,0.7988,0.814,0.8214,0.8294,0.8389,0.8505,0.8628,0.8682,0.8737,0.8831,0.8831,0.8858,0.8912,0.8912,0.8912,0.8912,0.8912,0.0,0.0,0.0,0.0,0.0,0.0,0.0,0.0,0.0,0.0,0.0,0.0,0.0,0.0,0.8912,0.8912,0.894,0.9145,0.9294,0.9415,0.9571,0.9724,0.9913,1.0069,1.0249,1.0399,1.0541,1.0697,1.0799,1.0894,1.1158,1.1409,1.1463,1.1558,1.1476,1.1044,0.9915,0.8605,0.7159,0.4947,0.0,0.0,0.0,0.0,0.0,0.0,0.0,0.0,0.0,0.0,0.0,0.0,0.0,0.0,0.0,0.0,0.0,0.0,0.0,0.0,0.0,0.0,0.0,0.0,0.0,0.0,0.0,0.0,0.0,0.0,0.0,0.0,0.0,0.0,0.0,0.0,0.0,0.0,0.0,0.0,0.7988,0.0,0.0,0.0,0.0,0.0,0.0,0.0,0.0,0.7988,0.7988,0.7988,0.8033,0.8088,0.8094,0.8115,0.8162,0.8162,0.8162,0.8162,0.8289,0.8396,0.8444,0.8513,0.8635,0.8757,0.8757,0.8818,0.8912,0.8912,0.8912,0.8912,0.8912,0.8912,0.8912,0.0,0.0,0.8912,0.0,0.0,0.0,0.0,0.0,0.0,0.0,0.0,0.0,0.0,0.0,0.0,0.0,0.8912,0.8933,0.9055,0.922,0.9369,0.9496,0.9646,0.9771,0.9974,1.0096,1.0256,1.0453,1.0575,1.0657,1.0813,1.1043,1.126,1.1307,1.1443,1.1324,1.0645,0.949,0.81,0.6435,0.4255,0.0,0.0,0.0,0.0,0.0,0.0,0.0,0.0,0.0,0.0,0.0,0.0,0.0,0.0,0.0,0.0,0.0,0.0,0.0,0.0,0.0,0.0,0.0,0.0,0.0,0.0,0.0,0.0,0.0,0.0,0.0,0.0,0.0,0.0,0.0,0.0,0.7988,0.7988,0.7988,0.7988,0.7988,0.7988,0.0,0.0,0.0,0.0,0.0,0.0,0.0,0.0,0.7995,0.8002,0.8088,0.8294,0.8301,0.8362,0.8505,0.8505,0.8505,0.8505,0.8512,0.856,0.871,0.8716,0.8764,0.8912,0.8912,0.8912,0.8912,0.8912,0.8912,0.8912,0.8912,0.8912,0.8912,0.0,0.8912,0.8912,0.0,0.0,0.0,0.8912,0.8912,0.0,0.8912,0.0,0.0,0.0,0.0,0.0,0.0,0.0,0.0,0.0,0.0,0.0,0.9369,0.9496,0.9656,0.9947,0.9984,1.0103,1.0426,1.0487,1.0541,1.069,1.0806,1.0955,1.1159,1.128,1.0995,0.9859,0.9107,0.7661,0.5017,0.3603,0.2258,0.0,0.0,0.0,0.0,0.0,0.0,0.0,0.0,0.0,0.0,0.0,0.0,0.0,0.0,0.0,0.0,0.0,0.0,0.0,0.0,0.0,0.0,0.0,0.0,0.0,0.0,0.0,0.0,0.0,0.0,0.0,0.0,0.0,0.0,0.7988,0.7988,0.7988,0.7988,0.7988,0.7988,0.7988,0.0,0.0,0.0,0.0,0.0,0.0,0.0,0.8208,0.8208,0.8303,0.8377,0.8444,0.8451,0.8464,0.8505,0.8505,0.8505,0.8505,0.0,0.0,0.0,0.0,0.0,0.0,0.0,0.8912,0.8912,0.8912,0.8912,0.8912,0.8912,0.8912,0.8912,0.8912,0.8912,0.0,0.0,0.0,0.0,0.0,0.8912,0.8912,0.0,0.8912,0.8912,0.0,0.0,0.0,0.0,0.0,0.0,0.8912,0.0,0.0,0.0,0.0,0.0,0.9812,0.994,1.0076,1.0297,1.0419,1.0541,1.069,1.0725,1.0765,1.0839,1.0817,1.0531,0.966,0.8278,0.663,0.477,0.3078,0.164,0.0,0.0,0.0,0.0,0.0,0.0,0.0,0.0,0.0,0.0,0.0,0.0,0.0,0.0,0.0,0.0,0.0,0.0,0.0,0.0,0.0,0.0,0.0,0.0,0.0,0.0,0.0,0.0,0.0,0.0,0.0,0.0,0.0,0.0,0.7988,0.7988,0.7988,0.7988,0.7988,0.7988,0.0,0.0,0.0,0.0,0.0,0.0,0.0,0.0,0.0,0.8383,0.8457,0.8532,0.8574,0.8574,0.8608,0.8669,0.8669,0.8669,0.8669,0.0,0.0,0.0,0.0,0.0,0.0,0.0,0.0,0.8912,0.8912,0.8912,0.8912,0.8912,0.0,0.0,0.8912,0.0,0.0,0.8912,0.8912,0.0,0.0,0.0,0.9028,0.9028,0.9028,0.0,0.0,0.0,0.0,0.0,0.0,0.0,0.0,0.0,0.0,0.0,0.0,0.0,0.9744,0.9859,0.9967,1.0154,1.0304,1.0453,1.0595,1.0677,1.0684,1.0684,1.0429,0.9946,0.9068,0.7711,0.605,0.4036,0.2545,0.1338,0.0,0.0145,0.0,0.0,0.0,0.0,0.0,0.0,0.0,0.0,0.0,0.0,0.0,0.0,0.0,0.0,0.0,0.0,0.0,0.0,0.0,0.0,0.0,0.0,0.0,0.0,0.0,0.0,0.0,0.0,0.0,0.0,0.0,0.0,0.0,0.7988,0.7995,0.804,0.804,0.8047,0.0,0.0,0.0,0.0,0.0,0.0,0.0,0.0,0.0,0.0,0.8546,0.8587,0.8723,0.8737,0.0,0.0,0.0,0.0,0.0,0.0,0.0,0.0,0.0,0.0,0.0,0.0,0.0,0.0,0.8912,0.8912,0.8912,0.8912,0.0,0.8912,0.8912,0.8912,0.0,0.0,0.8933,0.894,0.8953,0.9069,0.9234,0.9234,0.9234,0.0,0.0,0.0,0.0,0.0,0.8933,0.0,0.0,0.0,0.0,0.0,0.9424,0.0,0.9724,0.9792,0.9832,0.9988,1.013,1.0297,1.0439,1.0595,1.0697,1.0697,1.0114,0.933,0.8319,0.7298,0.5691,0.311,0.2123,0.1213,0.0107,0.0,0.0,0.0,0.0,0.0,0.0,0.0,0.0,0.0,0.0,0.0,0.0,0.0,0.0,0.0,0.0,0.0,0.0,0.0,0.0,0.0,0.0,0.0,0.0,0.0,0.0,0.0,0.0,0.0,0.0,0.0,0.0,0.0,0.7988,0.7988,0.8054,0.8201,0.8253,0.0,0.0,0.0,0.0,0.0,0.0,0.0,0.0,0.0,0.0,0.0,0.875,0.8831,0.8865,0.0,0.0,0.0,0.0,0.0,0.0,0.0,0.0,0.0,0.0,0.0,0.0,0.0,0.0,0.0,0.8912,0.8912,0.8912,0.8912,0.0,0.8912,0.8912,0.0,0.8926,0.9069,0.9138,0.9158,0.9252,0.9342,0.9369,0.9369,0.9369,0.9369,0.0,0.0,0.0,0.0,0.0,0.0,0.0,0.0,0.0,0.0,0.0,0.0,0.9751,0.9792,0.9832,0.9988,1.0042,1.0109,1.0297,1.0439,1.0534,1.0534,1.0083,0.9301,0.821,0.6681,0.4921,0.2963,0.1814,0.0884,0.0072,0.0,0.0,0.0,0.0,0.0,0.0,0.0,0.0,0.0,0.0,0.0,0.0,0.0,0.0,0.0,0.0,0.0,0.0,0.0,0.0,0.0,0.0,0.0,0.0,0.0,0.0,0.0,0.0,0.0,0.0,0.0,0.0,0.0,0.8262,0.8262,0.8282,0.8389,0.0,0.0,0.0,0.0,0.0,0.0,0.0,0.0,0.0,0.0,0.0,0.0,0.0,0.0,0.0,0.0,0.0,0.0,0.0,0.0,0.0,0.0,0.0,0.0,0.0,0.0,0.0,0.0,0.0,0.0,0.8912,0.8912,0.8912,0.8912,0.8953,0.9042,0.894,0.0,0.9055,0.9152,0.9226,0.9308,0.9383,0.9429,0.9503,0.9578,0.9551,0.0,0.0,0.9442,0.9396,0.0,0.9294,0.9281,0.0,0.0,0.0,0.9456,0.0,0.0,0.0,0.9792,0.9812,0.9886,0.9967,1.0042,1.0116,1.029,1.0385,1.0385,1.0091,0.9393,0.8096,0.6455,0.4716,0.2921,0.1755,0.0801,0.007,0.0,0.0,0.0,0.0,0.0,0.0,0.0,0.0,0.0,0.0,0.0,0.0,0.0,0.0,0.0,0.0,0.0,0.0,0.0,0.0,0.0,0.0,0.0,0.0,0.0,0.0,0.0,0.0,0.0,0.0,0.0,0.0,0.0,0.8519,0.8505,0.8519,0.8546,0.0,0.0,0.0,0.0,0.0,0.871,0.0,0.0,0.0,0.0,0.0,0.0,0.0,0.0,0.0,0.0,0.0,0.0,0.0,0.8912,0.0,0.0,0.0,0.0,0.0,0.0,0.0,0.0,0.0,0.0,0.0,0.8953,0.8953,0.898,0.0,0.9213,0.0,0.9096,0.9226,0.926,0.9349,0.9429,0.9456,0.9544,0.9666,0.9751,0.9717,0.9652,0.9652,0.9564,0.0,0.0,0.0,0.0,0.0,0.0,0.0,0.0,0.0,0.968,0.0,0.0,0.0,0.9792,0.9886,0.9974,0.9974,1.0134,0.0,1.0236,0.0,0.0,0.0,0.6535,0.0,0.2924,0.1801,0.0,0.0069,0.0,0.0,0.0,0.0,0.0,0.0,0.0,0.0,0.0,0.0,0.0,0.0,0.0,0.0,0.0,0.0,0.0,0.0,0.0,0.0,0.0,0.0,0.0,0.0,0.0,0.0,0.0,0.0,0.0,0.0,0.0,0.0,0.0,0.8533,0.8505,0.8526,0.8662,0.0,0.0,0.0,0.0,0.0,0.8885,0.8899,0.0,0.0,0.0,0.0,0.0,0.0,0.0,0.8912,0.0,0.0,0.0,0.0,0.0,0.8912,0.0,0.0,0.0,0.0,0.0,0.0,0.0,0.0,0.0,0.9076,0.9158,0.9165,0.9301,0.9369,0.0,0.9369,0.9369,0.0,0.9503,0.9571,0.9598,0.9727,0.9751,0.9771,0.0,0.9778,0.9765,0.0,0.9758,0.9717,0.9618,0.0,0.0,0.0,0.0,0.0,0.0,0.9677,0.0,0.0,0.0,0.9792,0.9792,0.0,0.9819,0.9819,0.0,0.0,0.0,0.0,0.0,0.8454,0.7037,0.5261,0.2987,0.2022,0.1152,0.0,0.0,0.0,0.0,0.0,0.0,0.0,0.0,0.0,0.0,0.0,0.0,0.0,0.0,0.0,0.0,0.0,0.0,0.0,0.0,0.0,0.0,0.0,0.0,0.0,0.0,0.0,0.0,0.0,0.0,0.0,0.0,0.0,0.0,0.8743,0.8723,0.8737,0.8804,0.0,0.0,0.0,0.0,0.0,0.8912,0.8912,0.0,0.0,0.0,0.0,0.0,0.0,0.8912,0.0,0.0,0.0,0.0,0.0,0.0,0.0,0.0,0.0,0.0,0.9198,0.0,0.0,0.0,0.0,0.0,0.9288,0.9315,0.9322,0.0,0.9435,0.0,0.0,0.0,0.0,0.9618,0.9659,0.971,0.9771,0.9792,0.9792,0.0,0.9792,0.0,0.0,0.0,0.0,0.0,0.0,0.0,0.0,0.0,0.0,0.0,0.0,0.0,0.9792,0.0,0.9792,0.0,0.0,0.0,0.0,0.0,0.0,0.0,0.9884,0.0,0.0,0.0,0.5876,0.0,0.0,0.0,0.0,0.0,0.0,0.0,0.0,0.0,0.0,0.0,0.0,0.0,0.0,0.0,0.0,0.0,0.0,0.0,0.0,0.0,0.0,0.0,0.0,0.0,0.0,0.0,0.0,0.0,0.0,0.0,0.0,0.0,0.0,0.0,0.0,0.0,0.8912,0.8912,0.8912,0.8912,0.0,0.0,0.0,0.0,0.0,0.0,0.0,0.0,0.8912,0.8912,0.0,0.0,0.8912,0.8926,0.0,0.0,0.9228,0.0,0.0,0.0,0.0,0.0,0.0,0.0,0.0,0.0,0.0,0.0,0.0,0.0,0.0,0.9442,0.9449,0.9483,0.9564,0.9666,0.9666,0.9724,0.9839,0.969,0.9704,0.9798,0.9839,0.9852,0.9859,0.993,0.9886,0.0,0.9852,0.0,0.0,0.0,0.0,0.0,0.9792,0.0,0.0,0.0,0.0,0.0,0.0,0.0,0.0,0.0,0.0,0.0,0.0,0.0,0.0,0.0,0.0,0.9379,0.0,0.7397,0.0,0.0,0.0,0.0,0.0,0.0,0.0,0.0,0.0,0.0,0.0,0.0,0.0,0.0,0.0,0.0,0.0,0.0,0.0,0.0,0.0,0.0,0.0,0.0,0.0,0.0,0.0,0.0,0.0,0.0,0.0,0.0,0.0,0.0,0.0,0.0,0.0,0.0,0.8912,0.8912,0.8912,0.8912,0.8912,0.0,0.0,0.0,0.0,0.0,0.0,0.0,0.0,0.0,0.0,0.0,0.0,0.8967,0.9165,0.0,0.9247,0.0,0.0,0.941,0.0,0.0,0.0,0.0,0.0,0.0,0.0,0.0,0.0,0.0,0.9537,0.9605,0.9612,0.9717,0.9778,0.9785,0.9785,0.9873,0.9994,0.0,0.9785,0.9812,0.9961,0.0,0.0,1.0215,1.0136,0.0,0.0,0.0,0.0,0.0,0.0,0.0,0.0,0.0,0.0,0.9792,0.0,0.0,0.0,0.0,0.9792,0.0,0.0,0.0,0.0,0.0,0.0,0.0,0.0,0.0,0.0,0.0,0.0,0.0,0.0,0.0,0.0,0.0,0.0,0.0,0.0,0.0,0.0,0.0,0.0,0.0,0.0,0.0,0.0,0.0,0.0,0.0,0.0,0.0,0.0,0.0,0.0,0.0,0.0,0.0,0.0,0.0,0.0,0.0,0.0,0.0,0.0,0.0,0.0,0.0,0.8912,0.8912,0.8912,0.8912,0.8912,0.8912,0.0,0.8912,0.0,0.0,0.0,0.0,0.0,0.9111,0.9123,0.0,0.0,0.9252,0.9328,0.943,0.0,0.0,0.0,0.9673,0.0,0.0,0.0,0.0,0.0,0.0,0.9673,0.9673,0.0,0.0,0.9727,0.9717,0.9724,0.9771,0.9792,0.0,0.0,0.9974,0.9984,0.0,0.0,1.0134,1.0181,1.0202,0.0,1.0295,1.0243,1.0202,1.0202,1.0168,1.0127,1.0127,1.0127,0.0,0.0,0.0,1.01,0.9967,0.0,0.0,0.0,0.0,0.0,0.0,0.0,0.0,0.0,0.0,0.0,0.0,0.0,0.0,0.0,0.0,0.0,0.0,0.0,0.0,0.0,0.0,0.0,0.0,0.0,0.0,0.0,0.0,0.0,0.0,0.0,0.0,0.0,0.0,0.0,0.0,0.0,0.0,0.0,0.0,0.0,0.0,0.0,0.0,0.0,0.0,0.0,0.0,0.0,0.0,0.0,0.0,0.0,0.0,0.8912,0.8912,0.8912,0.8912,0.8912,0.0,0.0,0.0,0.0,0.0,0.9034,0.0,0.9254,0.0,0.9301,0.0,0.941,0.943,0.9456,0.9557,0.0,0.968,0.9744,0.0,0.0,0.0,0.0,0.0,0.0,0.9792,0.9792,0.9792,0.9792,0.9792,0.9792,0.9792,0.9792,0.9792,0.9792,0.0,0.0,1.0082,0.0,0.0,1.0236,1.0322,0.0,1.0358,1.0397,1.0419,1.0399,1.0358,1.0358,1.0356,1.0315,1.0315,1.0315,1.0315,1.0315,1.0315,0.0,1.0123,1.0103,0.0,1.0005,0.0,0.0,0.0,0.0,0.0,0.0,0.0,0.0,0.0,0.0,0.0,0.0,0.4085,0.0,0.0,0.0,0.0,0.0,0.0,0.0,0.0,0.0,0.0,0.0,0.0,0.0,0.0,0.0,0.0,0.0,0.0,0.0,0.0,0.0,0.0,0.0,0.0,0.0,0.0,0.0,0.0,0.0,0.0,0.0,0.0,0.0,0.0,0.0,0.0,0.0,0.0,0.8933,0.8933,0.8933,0.8933,0.8926,0.0,0.0,0.0,0.9221,0.0,0.9322,0.9417,0.9424,0.9424,0.9424,0.943,0.943,0.9462,0.9612,0.9618,0.0,0.0,0.9792,0.9792,0.9792,0.0,0.0,0.0,0.0,0.0,0.9792,0.9792,0.9792,0.9792,0.9792,0.9792,0.9792,0.9798,0.9805,0.9825,0.9981,1.0211,1.0493,1.05,1.0419,1.0349,1.0453,1.05,1.0527,1.067,1.0622,1.05,1.05,1.0412,1.0335,1.0335,1.0335,1.0335,1.0335,1.0335,1.0329,1.0322,0.0,0.0,0.0,0.0,1.0181,0.0,0.0,0.0,0.0,0.0,0.0,0.0,0.0,0.0,0.0,0.0,0.0,0.0,0.0,0.0,0.0,0.0,0.0,0.0,0.0,0.0,0.0,0.0,0.0,0.0,0.0,0.0,0.0,0.0,0.0,0.0,0.0,0.0,0.0,0.0,0.0,0.0,0.0,0.0,0.0,0.0,0.0,0.0,0.0,0.0,0.0,0.0,0.0,0.0,0.9266,0.9266,0.9266,0.0,0.9199,0.9124,0.0,0.0,0.0,0.0,0.9383,0.9422,0.9537,0.9551,0.9591,0.97,0.9707,0.0,0.0,0.0,0.0,0.9792,0.9792,0.9792,0.9792,0.9792,0.0,0.9792,0.0,0.0,0.9792,0.9792,0.9792,0.9792,0.9792,0.9792,0.9798,0.9913,1.0028,1.0175,1.0317,1.0426,1.0507,0.0,1.0636,1.0616,1.0649,1.0663,1.0637,1.0704,1.0697,1.0663,1.0663,1.0636,1.0609,1.0609,1.0609,1.0609,1.0609,1.0609,1.0582,1.0466,1.0439,1.0412,0.0,0.0,0.0,0.0,0.0,0.0,0.0,0.0,0.0,0.0,0.0,0.0,0.0,0.0,0.0,0.0602,0.0,0.0,0.0,0.0,0.0,0.0,0.0,0.0,0.0,0.0,0.0,0.0,0.0,0.0,0.0,0.0,0.0,0.0,0.0,0.0,0.0,0.0,0.0,0.0,0.0,0.0,0.0,0.0,0.0,0.0,0.0,0.0,0.0,0.0,0.0,0.0,0.941,0.941,0.0,0.941,0.0,0.0,0.9294,0.941,0.0,0.9564,0.9632,0.0,0.989,0.9903,0.9937,1.0012,1.0025,0.0,1.0025,0.0,0.0,1.0025,0.9927,0.9893,0.9893,0.9825,0.0,0.9792,0.0,0.0,0.9792,0.9792,0.9792,0.9792,0.9792,0.9825,0.99,1.0055,1.0236,1.0378,1.046,1.0534,0.0,1.065,1.0684,1.0684,1.0684,1.0684,1.0684,1.0684,1.0684,1.0684,1.0684,1.0684,1.0684,1.0684,1.0684,1.0684,1.0684,1.0684,1.0664,1.0616,1.0595,1.0568,1.0493,1.0473,1.0272,0.0,0.0,0.0,0.0,0.0,0.0,0.0,0.0,0.0,0.0,0.0,0.0,0.0,0.0101,0.0,0.0,0.0,0.0,0.0,0.0,0.0,0.0,0.0,0.0,0.0,0.0,0.0,0.0,0.0,0.0,0.0,0.0,0.0,0.0,0.0,0.0,0.0,0.0,0.0,0.0,0.0,0.0,0.0,0.0,0.0,0.0,0.0,0.0,-0.0036,0.9442,0.9442,0.0,0.0,0.0,0.0,0.0,0.9585,0.0,0.9805,0.0,1.0103,1.0263,1.0315,1.0315,1.0315,0.0,1.0315,1.0315,1.0315,1.0315,1.0315,1.0116,1.0049,1.0049,0.992,0.0,0.0,0.0,0.0,0.9819,0.9798,0.9798,0.9819,0.9819,0.9913,1.0082,1.0249,1.0392,1.0521,1.0521,1.0602,1.0684,1.0684,1.0684,1.0684,1.0684,1.0684,1.0684,1.0684,1.0684,1.0684,1.0684,1.0684,1.0684,1.0684,1.0684,1.0684,1.0684,1.0684,1.0684,1.0684,1.0684,1.0684,1.0684,1.0658,1.0352,0.9316,0.8717,0.8084,0.0,0.0,0.0,0.0,0.0,0.0,0.0,0.0,0.0,0.0,0.0,0.0,0.0,0.0,0.0,0.0,0.0,0.0,0.0,0.0,0.0,0.0,0.0,0.0,0.0,0.0,0.0,0.0,0.0,0.0,0.0,0.0,0.0,0.0,0.0,0.0,0.0,0.0,0.0,0.0,0.0,0.0,0.0,-0.0073,-0.0109,-0.0219,0.9741,0.9741,0.9741,0.0,0.0,0.9934,0.9907,0.992,0.9947,0.9974,1.0141,1.0249,1.0308,1.0315,1.0315,1.0315,1.0315,0.0,0.0,0.0,0.0,1.0315,1.0288,1.0243,1.0243,1.0215,1.0202,0.0,0.0,0.0,0.0,0.9852,0.9859,0.9981,0.9981,1.013,1.0412,1.0446,0.0,1.0644,1.0644,1.0697,1.0684,1.0684,1.0684,1.0684,1.0684,1.0684,1.0684,1.0684,1.0684,1.0684,1.0684,1.0684,1.0684,1.0684,1.0684,1.0684,1.0684,1.0684,1.0684,1.0684,1.0684,1.0684,1.0684,1.0485,1.0054,0.925,0.8117,0.7049,0.6246,0.0,0.0,0.0,0.0,0.0,0.0,0.0,0.0,0.0,0.0,0.0,0.0,0.0,0.0,0.0,0.0,0.0,0.0,0.0,0.0,0.0,0.0,0.0,0.0,0.0,0.0,0.0,0.0,0.0,0.0,0.0,0.0,0.0,0.0,0.0,0.0,0.0,0.0,0.0,0.0,0.0,-0.0036,-0.0365,-0.0693,-0.0984,0.9893,0.9907,0.9934,0.0,0.0,0.0,0.0,1.0197,0.0,1.0245,1.0344,1.0419,1.05,1.0507,1.0507,1.0507,1.0507,1.0507,1.0507,1.0507,1.0507,1.0507,1.0432,0.0,1.0392,1.0349,1.0315,1.0315,0.0,0.0,0.0,0.0,1.0053,1.0028,1.0177,1.0358,1.0493,0.0,0.0,1.0684,1.0684,1.0684,1.0684,1.0684,1.0684,1.0684,1.0684,1.0684,1.0684,1.0684,1.0684,1.0684,1.0684,1.0684,1.0684,1.0684,1.0684,1.0684,1.0684,1.0684,1.0684,1.0684,1.0684,1.0684,1.0684,1.0459,0.9888,0.8745,0.7545,0.6313,0.5041,0.4675,0.0,0.0,0.0,0.0,0.0,0.0,0.0,0.0,0.0,0.0,0.0,0.0,0.0,0.0,0.0,0.0,0.0,0.0,0.0,0.0,0.0,0.0,0.0,0.0,0.0,0.0,0.0,0.0,0.0,0.0,0.0,0.0,0.0,0.0,0.0,0.0,0.0,0.0,0.0,-0.0109,-0.0365,-0.0766,-0.1422,-0.2078,0.0,1.0069,0.0,0.0,1.0304,0.0,1.0324,1.0446,1.0527,1.0493,1.0521,1.0588,1.0677,1.0684,1.0684,1.0684,1.0684,1.0684,1.0684,1.0684,1.0684,1.0684,1.0602,1.0541,1.0541,1.0432,1.0403,0.0,0.0,0.0,0.0,0.0,0.0,0.0,0.0,0.0,0.0,0.0,1.0684,1.0684,1.0684,1.0684,1.0684,1.0684,1.0684,1.0684,1.0684,1.0684,1.0684,1.0684,1.0684,1.0684,1.0684,1.0684,1.0684,1.0684,1.0684,1.0684,1.0684,1.0684,1.0684,1.0684,1.0684,1.0684,1.0684,1.0319,0.9588,0.8279,0.6773,0.5238,0.3631,0.3331,0.0,0.0,0.0,0.0,0.0,0.0,0.0,0.0,0.0,0.0,0.0,0.0,0.0,0.0,0.0,0.0,0.0,0.0,0.0,0.0,0.0,0.0,0.0,0.0,0.0,0.0,0.0,0.0,0.0,0.0,0.0,0.0,0.0,0.0,0.0,0.0,0.0,0.0,0.0,-0.0255,-0.0657,-0.1239,-0.215,-0.3207,0.0,0.0,0.0,0.0,0.0,0.0,1.0473,1.0602,1.0649,1.0507,1.0616,1.0704,1.0684,1.0684,1.0684,1.0684,1.0684,1.0684,1.0684,1.0684,1.0684,1.0684,1.0704,1.0664,1.0664,1.0683,1.0644,0.0,0.0,0.0,0.0,0.0,0.0,0.0,0.0,0.0,0.0,1.0684,1.0684,1.0684,1.0684,1.0684,1.0684,1.0684,1.0684,1.0684,1.0684,1.0684,1.0684,1.0684,1.0684,1.0684,1.0684,1.0684,1.0684,1.0684,1.0684,1.0684,1.0684,1.0684,1.0684,1.0684,1.0684,1.0684,1.0684,0.9921,0.8984,0.8179,0.5603,0.3161,0.2019,0.1818,0.1784,0.0,0.0,0.0,0.0,0.0,0.0034,0.0,0.0,0.0,0.0,0.0,0.0,0.0,0.0,0.0,0.0,0.0,0.0,0.0,0.0,0.0,0.0,0.0,0.0,0.0,0.0,0.0,0.0,0.0,0.0,0.0,0.0,0.0,0.0,0.0,0.0,0.0,0.0,-0.0255,-0.0729,-0.1786,-0.2952,-0.4223,0.0,0.0,0.0,0.0,0.0,0.0,0.0,1.0683,1.0698,1.0732,1.0704,1.0684,1.0684,1.0772,1.0826,1.0826,1.0934,1.0989,1.0989,1.0989,1.0948,1.0826,1.0826,1.0779,1.0691,1.0684,1.0684,0.0,0.0,0.0,0.0,0.0,0.0,0.0,0.0,1.0684,1.0684,1.0684,1.0684,1.0684,1.0684,1.0684,1.0698,1.0786,1.0826,1.0833,1.0955,1.0989,1.0989,1.0989,1.0867,1.0684,1.0684,1.0684,1.0684,1.0684,1.0684,1.0684,1.0684,1.0684,1.0684,1.0684,1.0684,1.0651,1.0459,0.9721,0.8712,0.7312,0.4669,0.2322,0.1447,0.1313,0.1212,0.0,0.0,0.0,0.0,0.0,0.0,0.0,0.0,0.0,0.0,0.0,0.0,0.0,0.0,0.0,0.0,0.0,0.0,0.0,0.0,0.0,0.0,0.0,0.0,0.0,0.0,0.0,0.0,0.0,0.0,0.0,0.0,0.0,0.0,0.0,0.0,-0.0036,-0.0255,-0.0729,-0.1422,-0.2842,-0.426,-0.5713,1.0541,0.0,1.0595,0.0,1.0725,1.0752,1.0752,1.0826,1.0887,1.0995,1.0921,1.0853,1.0853,1.0948,1.0975,1.0975,1.1104,1.12,1.12,1.12,1.1152,1.0982,1.0975,0.0,1.0853,1.0853,1.0833,1.0752,1.0752,0.0,0.0,0.0,0.0,0.0,1.0684,1.0684,1.0691,1.0732,1.0752,1.0759,1.0833,1.0853,1.086,1.0934,1.0975,1.1023,1.1159,1.12,1.12,1.12,1.1057,1.0853,1.0853,1.0853,1.0853,1.0853,1.0853,1.0853,1.0853,1.0853,1.0853,1.0853,1.0853,1.0752,1.0416,0.9573,0.8187,0.5811,0.3562,0.1784,0.0943,0.0774,0.0673,0.0404,0.0,0.0,0.0,0.0,0.0,0.0,0.0,0.0,0.0,0.0,0.0,0.0,0.0,0.0,0.0,0.0,0.0,0.0,0.0,0.0,0.0,0.0,0.0,0.0,0.0,0.0,0.0,0.0,0.0,0.0,0.0,0.0,0.0,-0.0109,-0.0182,-0.0219,-0.0729,-0.1385,-0.226,-0.3823,-0.5422,-0.6982,1.0684,1.0684,1.0684,1.0684,1.0813,1.0914,1.0914,1.1063,1.1193,1.1193,1.1193,1.1193,1.1193,1.1193,1.1193,1.1193,1.1193,1.12,1.12,1.12,1.12,0.0,0.0,1.1193,1.1193,1.1193,1.109,1.0914,0.0,0.0,1.0684,0.0,1.0684,1.0684,1.0684,1.0684,1.0698,1.0846,1.0914,1.0921,1.1097,1.1193,1.1193,1.1193,1.1193,1.1193,1.12,1.12,1.12,1.12,1.1193,1.1193,1.1193,1.1193,1.1193,1.1193,1.1193,1.1193,1.1193,1.1193,1.1193,1.1193,1.1193,1.1089,1.0709,0.9394,0.7263,0.3503,0.2153,0.1279,0.0202,0.0,0.0,0.0,0.0,0.0,0.0,0.0,0.0,0.0,0.0,0.0,0.0,0.0,0.0,0.0,0.0,0.0,0.0,0.0,0.0,0.0,0.0,0.0,0.0,0.0,0.0,0.0,0.0,0.0,0.0,0.0,0.0,0.0,0.0,0.0,-0.0036,-0.0438,-0.0584,-0.0657,-0.1385,-0.2187,-0.3061,-0.4623,-0.6221,-0.782,1.1057,1.1057,1.1057,1.1057,1.1097,1.1097,1.1097,1.1166,1.1234,1.1307,1.1356,1.1355,1.1463,1.1382,1.1356,0.0,1.1416,1.147,0.0,1.147,1.143,1.1321,1.1356,1.1302,1.12,1.12,1.1172,1.1097,0.0,0.0,0.0,1.1057,1.1057,1.1057,1.1057,1.1057,1.1023,1.1077,1.1097,1.1097,1.1179,1.12,1.1206,1.1315,1.1356,1.137,1.1436,1.147,1.147,1.147,1.147,1.147,1.147,1.137,1.12,1.12,1.12,1.12,1.12,1.12,1.12,1.12,1.12,1.0958,1.0058,0.7664,0.5103,0.3149,0.1751,0.0683,0.0102,0.0,0.0,0.0,0.0,0.0,0.0,0.0,0.0,0.0,0.0,0.0,0.0,0.0,0.0,0.0,0.0,0.0,0.0,0.0,0.0,0.0,0.0,0.0,0.0,0.0,0.0,0.0,0.0,0.0,0.0,0.0,0.0,0.0,0.0,-0.0146,-0.0438,-0.0838,-0.1312,-0.186,-0.2915,-0.3787,-0.4696,-0.6511,-0.7851,-0.8941,1.12,1.12,1.12,1.12,1.1247,1.1281,1.1281,1.1336,1.1369,1.1463,1.1477,1.1511,1.157,1.1531,0.0,1.1477,1.1565,1.1584,1.1584,1.1584,1.1579,1.1484,1.1477,1.143,1.1335,0.0,0.0,1.1281,1.1227,1.12,1.12,1.12,1.12,1.12,1.12,1.12,1.12,1.1261,1.1281,1.1288,1.1342,1.1335,1.1348,1.1443,1.1477,1.1491,1.1586,1.1584,1.1584,1.1584,1.1584,1.1584,1.1584,1.1491,1.1335,1.1335,1.1335,1.1335,1.1335,1.1335,1.1335,1.1335,1.1229,1.0684,0.8914,0.6411,0.4085,0.2666,0.1393,0.0381,0.0069,0.0,0.0,0.0,0.0,0.0,0.0,0.0,0.0,0.0,0.0,0.0,0.0,0.0,0.0,0.0,0.0,0.0,0.0,0.0,0.0,0.0,0.0,0.0,0.0,0.0,0.0,0.0,0.0,0.0,0.0,0.0,0.0,0.0,-0.0146,-0.0438,-0.0875,-0.1567,-0.2296,-0.3097,-0.4441,-0.5422,-0.6293,-0.796,-0.9049,-0.9879,1.1227,1.1227,1.1227,0.0,1.1349,0.0,1.1409,1.1531,1.1584,1.1584,1.1584,1.1584,1.1584,1.1584,1.1584,1.1584,0.0,0.0,0.0,1.1584,1.1584,1.1584,1.1584,1.1584,1.1584,1.1584,1.1552,1.1409,1.1302,1.1227,1.1227,1.1227,1.1227,1.1227,1.1227,1.1227,1.124,1.1348,1.1409,1.1416,1.1558,1.1584,1.1584,1.1584,1.1584,1.1584,1.1584,1.1584,1.1584,1.1584,1.1584,1.1584,1.1584,1.1584,1.1584,1.1584,1.1584,1.1584,1.1584,1.1584,1.1584,1.1584,1.1224,1.0138,0.7513,0.5642,0.3954,0.208,0.1055,0.0386,0.007,0.0,0.0,0.0,0.0,0.0,0.0,0.0,0.0,0.0,0.0,0.0,0.0,0.0,0.0,0.0,0.0,0.0,0.0,0.0,0.0,0.0,0.0,0.0,0.0,0.0,0.0,0.0,0.0,0.0,0.0,0.0,0.0,-0.0073,-0.0474,-0.0912,-0.1421,-0.2551,-0.3534,-0.4444,-0.5967,-0.7055,-0.7892,-0.9013,-0.9879,-1.0563,0.0,0.0,1.1511,1.1511,1.1545,1.1565,1.1565,1.1599,1.1584,1.1584,1.1584,1.1584,1.1584,1.1584,1.1584,1.1584,1.1584,1.1584,1.1584,1.1584,1.1584,1.1584,1.1584,1.1584,1.1584,1.1584,1.1563,1.1565,1.1531,1.1511,1.1511,1.1511,1.1511,1.1511,1.1511,1.1511,1.1511,1.1552,1.1565,1.1565,1.1606,1.1584,1.1584,1.1584,1.1584,1.1584,1.1584,1.1584,1.1584,1.1584,1.1584,1.1584,1.1584,1.1584,1.1584,1.1584,1.1584,1.1584,1.1584,1.1584,1.1584,1.1584,1.0419,0.8853,0.7314,0.5069,0.3005,0.1915,0.0861,0.0107,0.0,0.0,0.0,0.0,0.0,0.0,0.0,0.0,0.0,0.0,0.0,0.0,0.0,0.0,0.0,0.0,0.0,0.0,0.0,0.0,0.0,0.0,0.0,0.0,0.0,0.0,0.0,0.0,0.0,0.0,0.0,0.0,-0.0182,-0.0474,-0.0875,-0.1604,-0.2588,-0.3787,-0.5093,-0.6435,-0.7675,-0.8652,-0.9446,-1.0281,-1.072,-1.093,1.1584,1.1584,1.1584,1.1584,1.1584,1.1584,1.1584,1.1584,1.1584,1.1584,1.1584,1.1584,1.1584,1.1584,1.1584,1.1584,1.1584,1.1584,1.1584,1.1584,1.1584,1.1584,1.1584,1.1584,1.1584,1.1584,1.1584,1.1584,1.1584,1.1584,1.1584,1.1584,1.1584,1.1584,1.1584,1.1584,1.1584,1.1584,1.1584,1.1584,1.1584,1.1584,1.1584,1.1584,1.1584,1.1584,1.1584,1.1584,1.1584,1.1584,1.1584,1.1584,1.1584,1.1584,1.1584,1.1584,1.1584,1.1584,1.1584,1.1584,1.1476,1.0966,0.9765,0.8208,0.6362,0.4366,0.2586,0.1422,0.0544,0.0,0.0,0.0,0.0,0.0,0.0,0.0,0.0,0.0,0.0,0.0,0.0,0.0,0.0,0.0,0.0,0.0,0.0,0.0,0.0,0.0,0.0,0.0,0.0,0.0,0.0,0.0,0.0,0.0,0.0,0.0,0.0,-0.0182,-0.0511,-0.0912,-0.164,-0.2624,-0.3823,-0.5201,-0.6543,-0.7887,-0.9085,-0.9879,-1.0462,-1.108,-1.126,-1.1296,1.1584,1.1584,1.1584,1.1584,1.1584,1.1584,1.1584,1.1584,1.1584,1.1584,1.1584,1.1584,1.1584,1.1584,1.1584,1.1584,1.1584,1.1584,1.1584,1.1584,1.1584,1.1584,1.1584,1.1584,1.1584,1.1584,1.1584,1.1584,1.1584,1.1584,1.1584,1.1584,1.1584,1.1584,1.1584,1.1584,1.1584,1.1584,1.1584,1.1584,1.1584,1.1584,1.1584,1.1584,1.1584,1.1584,1.1584,1.1584,1.1584,1.1584,1.1584,1.1584,1.1584,1.1584,1.1584,1.1584,1.1584,1.1584,1.1584,1.1548,1.1253,1.0167,0.9152,0.7774,0.5274,0.3676,0.2331,0.0875,0.0292,0.0,0.0,0.0,0.0,0.0,0.0,0.0,0.0,0.0,0.0,0.0,0.0,0.0,0.0,0.0,0.0,0.0,0.0,0.0,0.0,0.0,0.0,0.0,0.0,0.0,0.0,0.0,0.0,0.0,0.0,-0.0036,-0.0109,-0.0511,-0.0985,-0.1531,-0.266,-0.3896,-0.5165,-0.6652,-0.7923,-0.909,-1.0167,-1.0786,-1.1116,-1.1476,-1.1584,-1.1584,1.1584,1.1584,1.1584,1.1584,1.1584,1.1584,1.1584,1.1584,1.1584,1.1584,1.1584,1.1584,1.1584,1.1584,1.1584,1.1584,1.1584,1.1584,1.1584,1.1584,1.1584,1.1584,1.1584,1.1584,1.1584,1.1584,1.1584,1.1584,1.1584,1.1584,1.1584,1.1584,1.1584,1.1584,1.1584,1.1584,1.1584,1.1584,1.1584,1.1584,1.1584,1.1584,1.1584,1.1584,1.1584,1.1584,1.1584,1.1584,1.1584,1.1584,1.1584,1.1584,1.1584,1.1584,1.1584,1.1584,1.1584,1.1584,1.1584,1.1368,1.0894,1.0095,0.8574,0.6797,0.5093,0.3241,0.164,0.0766,0.0292,0.0,0.0,0.0,0.0,0.0,0.0,0.0,0.0,0.0,0.0,0.0,0.0,0.0,0.0,0.0,0.0,0.0,0.0,0.0,0.0,0.0,0.0,0.0,0.0,0.0,0.0,0.0,0.0,0.0,0.0,-0.0182,-0.0511,-0.0911,-0.1677,-0.2697,-0.3896,-0.5274,-0.6725,-0.7928,-0.9157,-1.0275,-1.075,-1.1152,-1.1512,-1.1584,-1.1584,-1.1584,1.1584,1.1584,1.1584,1.1584,1.1584,1.1584,1.1584,1.1584,1.1584,1.1584,1.1584,1.1584,1.1584,1.1584,1.1584,1.1584,1.1584,1.1584,1.1584,1.1584,1.1584,1.1584,1.1584,1.1584,1.1584,1.1584,1.1584,1.1584,1.1584,1.1584,1.1584,1.1584,1.1584,1.1584,1.1584,1.1584,1.1584,1.1584,1.1584,1.1584,1.1584,1.1584,1.1584,1.1584,1.1584,1.1584,1.1584,1.1584,1.1584,1.1584,1.1584,1.1584,1.1584,1.1584,1.1584,1.1584,1.1584,1.1584,1.1584,1.1296,1.0714,0.9549,0.81,0.6435,0.4221,0.2695,0.1422,0.0474,0.0146,0.0,0.0,0.0,0.0,0.0,0.0,0.0,0.0,0.0,0.0,0.0,0.0,0.0,0.0,0.0,0.0,0.0,0.0,0.0,0.0,0.0,0.0,0.0,0.0,0.0,0.0,0.0,0.0,0.0,0.0,-0.0219,-0.062,-0.1422,-0.2442,-0.3644,-0.5238,-0.6688,-0.8,-0.9193,-1.0095,-1.0822,-1.1188,-1.144,-1.1584,-1.1584,-1.1584,-1.1584,1.1584,1.1584,1.1584,1.1584,1.1584,1.1584,1.1584,1.1584,1.1584,1.1584,1.1584,1.1584,1.1584,1.1584,1.1584,1.1584,1.1584,1.1584,1.1584,1.1584,1.1584,1.1584,1.1584,1.1584,1.1584,1.1584,1.1584,1.1584,1.1584,1.1584,1.1584,1.1584,1.1584,1.1584,1.1584,1.1584,1.1584,1.1584,1.1584,1.1584,1.1584,1.1584,1.1584,1.1584,1.1584,1.1584,1.1584,1.1584,1.1584,1.1584,1.1584,1.1584,1.1584,1.1584,1.1584,1.1584,1.1548,1.1476,1.1476,1.1116,1.0353,0.8827,0.7449,0.5818,0.3312,0.2076,0.1166,0.0182,0.0,0.0,0.0,0.0,0.0,0.0,0.0,0.0,0.0,0.0,0.0,0.0,0.0,0.0,0.0,0.0,0.0,0.0,0.0,0.0,0.0,0.0,0.0,0.0,0.0,0.0,0.0,0.0,0.0,0.0,-0.0109,-0.0401,-0.0912,-0.215,-0.3425,-0.4732,-0.6583,-0.8032,-0.9199,-1.0203,-1.0822,-1.1188,-1.1476,-1.1584,-1.1584,-1.1584,-1.1584,-1.1584,1.1584,1.1584,1.1584,1.1584,1.1584,1.1584,1.1584,1.1584,1.1584,1.1584,1.1584,1.1584,1.1584,1.1584,1.1584,1.1584,1.1584,1.1584,1.1584,1.1584,1.1584,1.1584,1.1584,1.1584,1.1584,1.1584,1.1584,1.1584,1.1584,1.1584,1.1584,1.1584,1.1584,1.1584,1.1584,1.1584,1.1584,1.1584,1.1584,1.1584,1.1584,1.1584,1.1584,1.1584,1.1584,1.1584,1.1584,1.1584,1.1584,1.1584,1.1584,1.1584,1.1584,1.1584,1.1584,1.1584,1.1332,1.1044,1.1044,1.0534,0.9627,0.8073,0.6257,0.4439,0.2732,0.1495,0.0547,0.0109,0.0,0.0,0.0,0.0,0.0,0.0,0.0,0.0,0.0,0.0,0.0,0.0,0.0,0.0,0.0,0.0,0.0,0.0,0.0,0.0,0.0,0.0,0.0,0.0,0.0,0.0,0.0,0.0,0.0,0.0,-0.0365,-0.0948,-0.175,-0.3279,-0.4805,-0.633,-0.7892,-0.9266,-1.0383,-1.0786,-1.1188,-1.1548,-1.1584,-1.1584,-1.1584,-1.1584,-1.1584,-1.1584,1.1584,1.1584,1.1584,1.1584,1.1584,1.1584,1.1584,1.1584,1.1584,1.1584,1.1584,1.1584,1.1584,1.1584,1.1584,1.1584,1.1584,1.1584,1.1584,1.1584,1.1584,1.1584,1.1584,1.1584,1.1584,1.1584,1.1584,1.1584,1.1584,1.1584,1.1584,1.1584,1.1584,1.1584,1.1584,1.1584,1.1584,1.1584,1.1584,1.1584,1.1584,1.1584,1.1584,1.1584,1.1584,1.1584,1.1584,1.1584,1.1584,1.1584,1.1584,1.1584,1.1584,1.1584,1.1548,1.1296,1.0966,1.0534,0.9776,0.9379,0.8796,0.7236,0.5568,0.3896,0.2296,0.124,0.0474,0.0073,0.0,0.0,0.0,0.0,0.0,0.0,0.0,0.0,0.0,0.0,0.0,0.0,0.0,0.0,0.0,0.0,0.0,0.0,0.0,0.0,0.0,0.0,0.0,0.0,0.0,0.0,0.0,0.0,-0.0108,-0.036,-0.0763,-0.1494,-0.2551,-0.4078,-0.564,-0.724,-0.876,-0.9957,-1.0822,-1.1224,-1.1476,-1.1584,-1.1584,-1.1584,-1.1584,-1.1584,-1.1584,-1.1584,1.1584,1.1584,1.1584,1.1584,1.1584,1.1584,1.1584,1.1584,1.1584,1.1584,1.1584,1.1584,1.1584,1.1584,1.1584,1.1584,1.1584,1.1584,1.1584,1.1584,1.1584,1.1584,1.1584,1.1584,1.1584,1.1584,1.1584,1.1584,1.1584,1.1584,1.1584,1.1584,1.1584,1.1584,1.1584,1.1584,1.1584,1.1584,1.1584,1.1584,1.1584,1.1584,1.1584,1.1584,1.1584,1.1584,1.1584,1.1584,1.1584,1.1584,1.1584,1.1584,1.1584,1.1512,1.1332,1.093,1.0419,0.9663,0.8471,0.782,0.7163,0.5967,0.4587,0.317,0.1677,0.0875,0.0328,0.0073,0.0,0.0,0.0,0.0,0.0,0.0,0.0,0.0,0.0,0.0,0.0,0.0,0.0,0.0,0.0,0.0,0.0,0.0,0.0,0.0,0.0,0.0,0.0,0.0,0.0,-0.0034,-0.0173,-0.0141,-0.0356,-0.0747,-0.1362,-0.2268,-0.3421,-0.5069,-0.661,-0.8081,-0.9553,-1.0537,-1.1158,-1.1456,-1.1584,-1.1584,-1.1584,-1.1584,-1.1584,-1.1584,-1.1584,-1.1619,1.1584,1.1584,1.1584,1.1584,1.1584,1.1584,1.1584,1.1584,1.1584,1.1584,1.1584,1.1584,1.1584,1.1584,1.1584,1.1584,1.1584,1.1584,1.1584,1.1584,1.1584,1.1584,1.1584,1.1584,1.1584,1.1584,1.1584,1.1584,1.1584,1.1584,1.1584,1.1584,1.1584,1.1584,1.1584,1.1584,1.1584,1.1584,1.1584,1.1584,1.1584,1.1584,1.1584,1.1584,1.1584,1.1584,1.1584,1.1584,1.1584,1.1584,1.1584,1.1584,1.1584,1.1332,1.0936,1.0599,0.9627,0.8435,0.7308,0.5855,0.4587,0.4187,0.317,0.2005,0.0875,0.0292,0.0,0.0,0.0,0.0,0.0,0.0,0.0,0.0,0.0,0.0,0.0,0.0,0.0,0.0,0.0,0.0,0.0,0.0,0.0,0.0,0.0,0.0,0.0,0.0,0.0,0.0,0.0,-0.0168,-0.0505,-0.0519,-0.0701,-0.1122,-0.2208,-0.3328,-0.4482,-0.6364,-0.7826,-0.8978,-1.0234,-1.1036,-1.1402,-1.1558,-1.1584,-1.1584,-1.1584,-1.1584,-1.1584,-1.1584,-1.1584,-1.1655,1.1584,1.1584,1.1584,1.1584,1.1584,1.1584,1.1584,1.1584,1.1584,1.1584,1.1584,1.1584,1.1584,1.1584,1.1584,1.1584,1.1584,1.1584,1.1584,1.1584,1.1584,1.1584,1.1584,1.1584,1.1584,1.1584,1.1584,1.1584,1.1584,1.1584,1.1584,1.1584,1.1584,1.1584,1.1584,1.1584,1.1584,1.1584,1.1584,1.1584,1.1584,1.1584,1.1584,1.1584,1.1584,1.1584,1.1584,1.1584,1.1584,1.1584,1.1584,1.1548,1.126,1.093,1.0455,0.9518,0.8435,0.72,0.5782,0.4441,0.3425,0.3279,0.2369,0.1349,0.0729,0.0292,0.0,0.0,0.0,0.0,0.0,0.0,0.0,0.0,0.0,0.0,0.0,0.0,0.0,0.0,0.0,0.0,0.0,0.0,0.0,0.0,0.0,0.0,0.0,0.0,0.0,0.0,-0.0236,-0.0539,-0.0909,-0.0925,-0.1348,-0.2246,-0.3347,-0.4619,-0.5981,-0.7339,-0.8591,-0.9712,-1.048,-1.1036,-1.1402,-1.1558,-1.1584,-1.1584,-1.1584,-1.1584,-1.1584,-1.1584,-1.1763,-1.2086,1.1584,1.1584,1.1584,1.1584,1.1584,1.1584,1.1584,1.1584,1.1584,1.1584,1.1584,1.1584,1.1584,1.1584,1.1584,1.1584,1.1584,1.1584,1.1584,1.1584,1.1584,1.1584,1.1584,1.1584,1.1584,1.1584,1.1584,1.1584,1.1584,1.1584,1.1584,1.1584,1.1584,1.1584,1.1584,1.1584,1.1584,1.1584,1.1584,1.1584,1.1584,1.1584,1.1584,1.1584,1.1584,1.1584,1.1584,1.1584,1.1584,1.1584,1.1584,1.1548,1.1116,1.0534,0.9807,0.8615,0.7236,0.5782,0.4369,0.3132,0.2187,0.2042,0.1459,0.0875,0.0438,0.0182,0.0,0.0,0.0,0.0,0.0,0.0,0.0,0.0,0.0,0.0,0.0,0.0,0.0,0.0,0.0,0.0,0.0,0.0,0.0,0.0,0.0,0.0,0.0,0.0,-0.0067,-0.0202,-0.0539,-0.1043,-0.1715,-0.217,-0.269,-0.3335,-0.4598,-0.5886,-0.7228,-0.8357,-0.9314,-1.0116,-1.0692,-1.1091,-1.1349,-1.1531,-1.1584,-1.1584,-1.1584,-1.1584,-1.1619,-1.1763,-1.2086,-1.2545,1.1584,1.1584,1.1584,1.1584,1.1584,1.1584,1.1584,1.1584,1.1584,1.1584,1.1584,1.1584,1.1584,1.1584,1.1584,1.1584,1.1584,1.1584,1.1584,1.1584,1.1584,1.1584,1.1584,1.1584,1.1584,1.1584,1.1584,1.1584,1.1584,1.1584,1.1584,1.1584,1.1584,1.1584,1.1584,1.1584,1.1584,1.1584,1.1584,1.1584,1.1584,1.1584,1.1584,1.1584,1.1584,1.1584,1.1584,1.1584,1.1584,1.1584,1.1584,1.1476,1.1044,1.0101,0.8904,0.7747,0.6039,0.4293,0.3061,0.1968,0.1057,0.0657,0.0547,0.0438,0.0073,0.0,0.0,0.0,0.0,0.0,0.0,0.0,0.0,0.0,0.0,0.0,0.0,0.0,0.0,0.0,0.0,0.0,0.0,0.0,0.0,0.0,0.0,0.0,0.0,-0.0034,-0.0202,-0.0539,-0.1009,-0.1749,-0.2823,-0.3931,-0.4501,-0.4501,-0.5908,-0.7149,-0.8289,-0.9283,-0.9921,-1.0272,-1.0934,-1.12,-1.122,-1.1491,-1.1584,-1.1584,-1.1584,-1.1584,-1.1655,-1.2051,-1.251,-1.3075,1.1584,1.1584,1.1584,1.1584,1.1584,1.1584,1.1584,1.1584,1.1584,1.1584,1.1584,1.1584,1.1584,1.1584,1.1584,1.1584,1.1584,1.1584,1.1584,1.1584,1.1584,1.1584,1.1584,1.1584,1.1584,1.1584,1.1584,1.1584,1.1584,1.1584,1.1584,1.1584,1.1584,1.1584,1.1584,1.1584,1.1584,1.1584,1.1584,1.1584,1.1584,1.1584,1.1584,1.1584,1.1584,1.1584,1.1584,1.1584,1.1584,1.1584,1.1404,1.1008,1.0353,0.9157,0.7675,0.6148,0.455,0.3025,0.1895,0.1166,0.062,0.0219,0.0146,0.0109,0.0036,0.0,0.0,0.0,0.0,0.0,0.0,0.0,0.0,0.0,0.0,0.0,0.0,0.0,0.0,0.0,0.0,0.0,0.0,0.0,0.0,0.0,0.0,0.0,0.0,-0.0236,-0.0572,-0.0943,-0.1884,-0.2857,-0.3931,-0.5272,-0.5941,-0.5975,-0.7149,-0.8284,-0.9383,-0.9854,-1.0253,-1.0605,-1.1036,-1.12,-1.122,-1.1491,-1.1584,-1.1584,-1.1584,-1.1584,-1.1655,-1.2051,-1.2832,-1.4039,1.1584,1.1584,1.1584,1.1584,1.1584,1.1584,1.1584,1.1584,1.1584,1.1584,1.1584,1.1584,1.1584,1.1584,1.1584,1.1584,1.1584,1.1584,1.1584,1.1584,1.1584,1.1584,1.1584,1.1584,1.1584,1.1584,1.1584,1.1584,1.1584,1.1584,1.1584,1.1584,1.1584,1.1584,1.1584,1.1584,1.1584,1.1584,1.1584,1.1584,1.1584,1.1584,1.1584,1.1584,1.1584,1.1584,1.1584,1.1584,1.1584,1.1584,1.1332,1.0828,0.9921,0.8538,0.6982,0.5204,0.3569,0.2114,0.1166,0.062,0.0255,0.0036,0.0,0.0,0.0,0.0,0.0,0.0,0.0,0.0,0.0,0.0,0.0,0.0,0.0,0.0,0.0,0.0,0.0,0.0,0.0,0.0,0.0,0.0,0.0,0.0,0.0,0.0,0.0,-0.0303,-0.0841,-0.1615,-0.2655,-0.3897,-0.5272,-0.6577,-0.7479,-0.7979,-0.8584,-0.925,-0.9954,-1.0286,-1.0518,-1.0738,-1.1036,-1.12,-1.122,-1.1491,-1.1584,-1.1584,-1.1584,-1.1727,-1.1943,-1.251,-1.4003,-1.6089,1.1584,1.1584,1.1584,1.1584,1.1584,1.1584,1.1584,1.1584,1.1584,1.1584,1.1584,1.1584,1.1584,1.1584,1.1584,1.1584,1.1584,1.1584,1.1584,1.1584,1.1584,1.1584,1.1584,1.1584,1.1584,1.1584,1.1584,1.1584,1.1584,1.1584,1.1584,1.1584,1.1584,1.1584,1.1584,1.1584,1.1584,1.1584,1.1584,1.1584,1.1584,1.1584,1.1584,1.1584,1.1584,1.1584,1.1584,1.1584,1.1584,1.1512,1.1188,1.0606,0.9374,0.7887,0.6253,0.4332,0.2695,0.1349,0.0693,0.0255,0.0,0.0,0.0,0.0,0.0,0.0,0.0,0.0,0.0,0.0,0.0,0.0,0.0,0.0,0.0,0.0,0.0,0.0,0.0,0.0,0.0,0.0,0.0,0.0,0.0,0.0,0.0,-0.0034,-0.0067,-0.0471,-0.1245,-0.242,-0.3562,-0.4967,-0.6677,-0.7817,-0.8856,-0.9782,-0.9848,-1.0014,-1.0293,-1.0558,-1.0698,-1.0738,-1.1043,-1.1213,-1.1261,-1.1504,-1.1584,-1.1619,-1.1691,-1.1943,-1.2445,-1.3503,-1.5629,-1.8201,1.1584,1.1584,1.1584,1.1584,1.1584,1.1584,1.1584,1.1584,1.1584,1.1584,1.1584,1.1584,1.1584,1.1584,1.1584,1.1584,1.1584,1.1584,1.1584,1.1584,1.1584,1.1584,1.1584,1.1584,1.1584,1.1584,1.1584,1.1584,1.1584,1.1584,1.1584,1.1584,1.1584,1.1584,1.1584,1.1584,1.1584,1.1584,1.1584,1.1584,1.1584,1.1584,1.1584,1.1584,1.1584,1.1584,1.1584,1.1584,1.1548,1.1188,1.0606,0.9771,0.829,0.6547,0.4693,0.3023,0.1677,0.0657,0.0219,0.0036,0.0,0.0,0.0,0.0,0.0,0.0,0.0,0.0,0.0,0.0,0.0,0.0,0.0,0.0,0.0,0.0,0.0,0.0,0.0,0.0,0.0,0.0,0.0,0.0,0.0,0.0,0.0,-0.0135,-0.0404,-0.1077,-0.2119,-0.3528,-0.4903,-0.6347,-0.7856,-0.895,-0.9715,-1.016,-1.0419,-1.0585,-1.0618,-1.0684,-1.0759,-1.0894,-1.109,-1.1274,-1.1375,-1.1545,-1.1584,-1.1619,-1.1979,-1.2366,-1.3003,-1.5381,-1.7359,-1.903,1.1584,1.1584,1.1584,1.1584,1.1584,1.1584,1.1584,1.1584,1.1584,1.1584,1.1584,1.1584,1.1584,1.1584,1.1584,1.1584,1.1584,1.1584,1.1584,1.1584,1.1584,1.1584,1.1584,1.1584,1.1584,1.1584,1.1584,1.1584,1.1584,1.1584,1.1584,1.1584,1.1584,1.1584,1.1584,1.1584,1.1584,1.1584,1.1584,1.1584,1.1584,1.1584,1.1584,1.1584,1.1584,1.1584,1.1368,1.126,1.1188,1.057,0.9885,0.8977,0.7417,0.5749,0.4041,0.244,0.1313,0.0511,0.0109,0.0,0.0,0.0,0.0,0.0,0.0,0.0,0.0,0.0,0.0,0.0,0.0,0.0,0.0,0.0,0.0,0.0,0.0,0.0,0.0,0.0,0.0,0.0,0.0,0.0,0.0,0.0,-0.017,-0.0438,-0.0808,-0.1715,-0.2858,-0.43,-0.5778,-0.7216,-0.8651,-0.9555,-1.0153,-1.0485,-1.0618,-1.0684,-1.0684,-1.0684,-1.0772,-1.0921,-1.1097,-1.1281,-1.1402,-1.1558,-1.1584,-1.1655,-1.2051,-1.3075,-1.4662,-1.7102,-1.8786,-2.0074]},{"header":{"parameterUnit":"m.s-1","parameterCategory":1,"la1":30.6,"la2":28.766,"lo1":-90.7593,"lo2":-88.6598,"dy":0.0162,"dx":0.0183,"nx":116,"ny":114,"refTime":"2024-02-25T06:00:00:Z","depth":0,"parameterNumber":3,"parameterNumberName":"V-component_of_WINDS"},"data":[0.0,0.0,0.0,0.0,0.0,0.0,0.0,0.0,0.0,0.0,0.0,0.0,0.0,0.0,0.0,0.0,0.0,0.0,0.0,0.0,0.0,0.0,0.0,0.0,0.0,0.0,0.0,0.0,0.0,0.0,0.0,0.0,0.0,0.0,0.0,0.0,0.0,0.0,0.0,0.0,0.0,0.0,0.0,0.0,0.0,0.0,0.0,0.0,0.0,0.0,0.0,0.0,0.0,0.0,0.0,0.0,0.0,0.0,0.0,0.0,0.0,0.0,0.0,0.0,0.0,0.0,0.0,0.0,0.0,0.0,0.0,0.0,0.0,0.0,0.0,0.0,0.0,0.0,0.0,0.0,0.0,0.0,0.0,0.0,0.0,0.0,0.0,0.0,0.0,0.0,0.0,0.0,0.0,0.0,0.0,0.0,0.0,0.0,0.0,0.0,0.0,0.0,0.0,0.0,0.0,0.0,0.0,0.0,0.0,0.0,0.0,0.0,0.0,0.0,0.0,0.0,0.0,0.0,0.0,0.0,0.0,0.0,0.0,0.0,0.0,0.0,0.0,0.0,0.0,0.0,0.0,0.0,0.0,0.0,0.0,0.0,0.0,0.0,0.0,0.0,0.0,0.0,0.0,0.0,0.0,0.0,0.0,0.0,0.0,0.0,0.0,0.0,0.0,0.0,0.0,0.0,0.0,0.0,0.0,0.0,0.0,0.0,0.0,0.0,0.0,0.0,0.0,0.0,0.0,0.0,0.0,0.0,0.0,0.0,0.0,0.0,0.0,0.0,0.0,0.0,0.0,0.0,0.0,0.0,0.0,0.0,0.0,0.0,0.0,0.0,0.0,0.0,0.0,0.0,0.0,0.0,0.0,0.0,0.0,0.0,0.0,0.0,0.0,0.0,0.0,0.0,0.0,0.0,0.0,0.0,0.0,0.0,0.0,0.0,0.0,0.0,0.0,0.0,0.0,0.0,0.0,0.0,0.0,0.0,0.0,0.0,0.0,0.0,0.0,0.0,0.0,0.0,0.0,0.0,0.0,0.0,0.0,0.0,0.0,0.0,0.0,0.0,0.0,0.0,0.0,0.0,0.0,0.0,0.0,0.0,0.0,0.0,0.0,0.0,0.0,0.0,0.0,0.0,0.0,0.0,0.0,0.0,0.0,0.0,0.0,0.0,0.0,0.0,0.0,0.0,0.0,0.0,0.0,0.0,0.0,0.0,0.0,0.0,0.0,0.0,0.0,0.0,0.0,0.0,0.0,0.0,0.0,0.0,0.0,0.0,0.0,0.0,0.0,0.0,0.0,0.0,0.0,0.0,0.0,0.0,0.0,0.0,0.0,0.0,0.0,0.0,0.0,0.0,0.0,0.0,0.0,0.0,0.0,0.0,0.0,0.0,0.0,0.0,0.0,0.0,0.0,0.0,0.0,0.0,0.0,0.0,0.0,0.0,0.0,0.0,0.0,0.0,0.0,0.0,0.0,0.0,0.0,0.0,0.0,0.0,0.0,0.0,0.0,0.0,0.0,0.0,0.0,0.0,0.0,0.0,0.0,0.0,0.0,0.0,0.0,0.0,0.0,0.0,0.0,0.0,0.0,0.0,0.0,0.0,0.0,0.0,0.0,0.0,0.0,0.0,0.0,0.0,0.0,0.0,0.0,0.0,0.0,0.0,0.0,0.0,0.0,0.0,0.0,0.0,0.0,0.0,0.0,0.0,0.0,0.0,0.0,0.0,0.0,0.0,0.0,0.0,0.0,0.0,0.0,0.0,0.0,0.0,0.0,0.0,0.0,0.0,0.0,0.0,0.0,0.0,0.0,0.0,0.0,0.0,0.0,0.0,0.0,0.0,0.0,0.0,0.0,0.0,0.0,0.0,0.0,0.0,0.0,0.0,0.0,0.0,0.0,0.0,0.0,0.0,0.0,0.0,0.0,0.0,0.0,0.0,0.0,0.0,0.0,0.0,0.0,0.0,0.0,0.0,0.0,0.0,0.0,0.0,0.0,0.0,0.0,0.0,0.0,0.0,0.0,0.0,0.0,0.0,0.0,0.0,0.0,0.0,0.0,0.0,0.0,0.0,0.0,0.0,0.0,0.0,0.0,0.0,0.0,0.0,0.0,0.0,0.0,0.0,0.0,0.0,0.0,0.0,0.0,0.0,0.0,0.0,0.0,0.0,0.0,0.0,0.0,0.0,0.0,0.0,0.0,0.0,0.0,0.0,0.0,0.0,0.0,0.0,0.0,0.0,0.0,0.0,0.0,0.0,0.0,0.0,0.0,0.0,0.0,0.0,0.0,0.0,0.0,0.0,0.0,0.0,0.0,0.0,0.0,0.0,0.0,0.0,0.0,0.0,0.0,0.0,0.0,0.0,0.0,0.0,0.0,0.0,0.0,0.0,0.0,0.0,0.0,0.0,0.0,0.0,0.0,0.0,0.0,0.0,0.0,0.0,0.0,0.0,0.0,0.0,0.0,0.0,0.0,0.0,0.0,0.0,0.0,0.0,0.0,0.0,0.0,0.0,0.0,0.0,0.0,0.0,0.0,0.0,0.0,0.0,0.0,0.0,0.0,0.0,0.0,0.0,0.0,0.0,0.0,0.0,0.0,0.0,0.0,0.0,0.0,0.0,0.0,0.0,0.0,0.0,0.0,0.0,0.0,0.0,0.0,0.0,0.0,0.0,0.0,0.0,0.0,0.0,0.0,0.0,0.0,0.0,0.0,0.0,0.0,0.0,0.0,0.0,0.0,0.0,0.0,0.0,0.0,0.0,0.0,0.0,0.0,0.0,0.0,0.0,0.0,0.0,0.0,0.0,0.0,0.0,0.0,0.0,0.0,0.0,0.0,0.0,0.0,0.0,0.0,0.0,0.0,0.0,0.0,0.0,0.0,0.0,0.0,0.0,0.0,0.0,0.0,0.0,0.0,0.0,0.0,0.0,0.0,0.0,0.0,0.0,0.0,0.0,0.0,0.0,0.0,0.0,0.0,0.0,0.0,0.0,0.0,0.0,0.0,0.0,0.0,0.0,0.0,0.0,0.0,0.0,0.0,0.0,0.0,0.0,0.0,0.0,0.0,0.0,0.0,0.0,0.0,0.0,0.0,0.0,0.0,0.0,0.0,0.0,0.0,0.0,0.0,0.0,0.0,0.0,0.0,0.0,0.0,0.0,0.0,0.0,0.0,0.0,0.0,0.0,0.0,0.0,0.0,0.0,0.0,0.0,0.0,0.0,0.0,0.0,0.0,0.0,0.0,0.0,0.0,0.0,0.0,0.0,0.0,0.0,0.0,0.0,0.0,0.0,0.0,0.0,0.0,0.0,0.0,0.0,0.0,0.0,0.0,0.0,0.0,0.0,0.0,0.0,0.0,0.0,0.0,0.0,0.0,0.0,0.0,0.0,0.0,0.0,0.0,0.0,0.0,0.0,0.0,0.0,0.0,0.0,0.0,0.0,0.0,0.0,0.0,0.0,0.0,0.0,0.0,0.0,0.0,0.0,0.0,0.0,0.0,0.0,0.0,0.0,0.0,0.0,0.0,0.0,0.0,0.0,0.0,0.0,0.0,0.0,0.0,0.0,0.0,0.0,0.0,0.0,0.0,0.0,0.0,0.0,0.0,0.0,0.0,0.0,0.0,0.0,0.0,0.0,0.0,0.0,0.0,0.0,0.0,0.0,0.0,0.0,0.0,0.0,0.0,0.0,0.0,0.0,0.0,0.0,0.0,0.0,0.0,0.0,0.0,0.0,0.0,0.0,0.0,0.0,0.0,0.0,0.0,0.0,0.0,0.0,0.0,0.0,0.0,0.0,0.0,0.0,0.0,0.0,0.0,0.0,0.0,0.0,0.0,0.0,0.0,0.0,0.0,0.0,0.0,0.0,0.0,0.0,0.0,0.0,0.0,0.0,0.0,0.0,0.0,0.0,0.0,0.0,0.0,0.0,0.0,0.0,0.0,0.0,0.0,0.0,0.0,0.0,0.0,0.0,0.0,0.0,0.0,0.0,0.0,0.0,0.0,0.0,0.0,0.0,0.0,0.0,0.0,0.0,0.0,0.0,0.0,0.0,0.0,0.0,0.0,0.0,0.0,0.0,0.0,0.0,0.0,0.0,0.0,0.0,0.0,0.0,0.0,0.0,0.0,0.0,0.0,0.0,0.0,0.0,0.0,0.0,0.0,0.0,0.0,0.0,0.0,0.0,0.0,0.0,0.0,0.0,0.0,0.0,0.0,0.0,0.0,0.0,0.0,0.0,0.0,0.0,0.0,0.0,0.0,0.0,0.0,0.0,0.0,0.0,0.0,0.0,0.0,0.0,0.0,0.0,0.0,0.0,0.0,0.0,0.0,0.0,0.0,0.0,0.0,0.0,0.0,0.0,0.0,0.0,0.0,0.0,0.0,0.0,0.0,0.0,0.0,0.0,0.0,0.0,0.0,0.0,0.0,0.0,0.0,0.0,0.0,0.0,0.0,0.0,0.0,0.0,0.0,0.0,0.0,0.0,0.0,0.0,0.0,0.0,0.0,0.0,0.0,0.0,0.0,0.0,0.0,0.0,0.0,0.0,0.0,0.0,0.0,0.0,0.0,0.0,0.0,0.0,0.0,0.0,0.0,0.0,0.0,0.0,0.0,0.0,0.0,0.0,0.0,0.0,0.0,0.0,0.0,0.0,0.0,0.0,0.0,0.0,0.0,0.0,0.0,0.0,0.0,0.0,0.0,0.0,0.0,0.0,0.0,0.0,0.0,0.0,0.0,0.0,0.0,0.0,0.0,0.0,0.0,0.0,0.0,0.0,0.0,0.0,0.0,0.0,0.0,0.0,0.0,0.0,0.0,0.0,0.0,0.0,0.0,0.0,0.0,0.0,0.0,0.0,0.0,0.0,0.0,0.0,0.0,0.0,0.0,0.0,0.0,0.0,0.0,0.0,0.0,0.0,0.0,0.0,0.0,0.0,0.0,0.0,0.0,0.0,0.0,0.0,0.0,0.0,0.0,0.0,0.0,0.0,0.0,0.0,0.0,0.0,0.0,0.0,0.0,0.0,0.0,0.0,0.0,0.0,0.0,0.0,0.0,0.0,0.0,0.0,0.0,0.0,0.0,0.0,0.0,0.0,0.0,0.0,0.0,0.0,0.0,0.0,0.0,0.0,0.0,0.0,0.0,0.0,0.0,0.0,0.0,0.0,0.0,0.0,0.0,0.0,0.0,0.0,0.0,0.0,0.0,0.0,0.0,0.0,0.0,0.0,0.0,0.0,0.0,0.0,0.0,0.0,0.0,0.0,0.0,0.0,0.0,0.0,0.0,0.0,0.0,0.0,0.0,0.0,0.0,0.0,0.0,0.0,0.0,0.0,0.0,0.0,0.0,0.0,0.0,0.0,0.0,0.0,0.0,0.0,0.0,0.0,0.0,0.0,0.0,0.0,0.0,0.0,0.0,0.0,0.0,0.0,0.0,0.0,0.0,0.0,0.0,0.0,0.0,0.0,0.0,0.0,0.0,0.0,0.0,0.0,0.0,0.0,0.0,0.0,0.0,0.0,0.0,0.0,0.0,0.0,0.0,0.0,0.0,0.0,0.0,0.0,0.0,0.0,0.0,0.0,0.0,0.0,0.0,0.0,0.0,0.0,0.0,0.0,0.0,0.0,0.0,0.0,0.0,0.0,0.0,0.0,0.0,0.0,0.0,0.0,0.0,0.0,0.0,0.0,0.0,0.0,0.0,0.0,0.0,0.0,0.0,0.0,0.0,0.0,0.0,0.0,0.0,0.0,0.0,0.0,0.0,0.0,0.0,0.0,0.0,0.0,0.0,0.0,0.0,0.0,0.0,0.0,0.0,0.0,0.0,0.0,0.0,0.0,0.0,0.0,0.0,0.0,0.0,0.0,0.0,0.0,0.0,0.0,0.0,0.0,0.0,0.0,0.0,0.0,0.0,0.0,0.0,0.0,0.0,0.0,0.0,0.0,0.0,0.0,0.0,0.0,0.0,0.0,0.0,0.0,0.0,0.0,0.0,0.0,0.0,0.0,0.0,0.0,0.0,0.0,0.0,0.0,0.0,0.0,0.0,0.0,0.0,0.0,0.0,0.0,0.0,0.0,0.0,0.0,0.0,0.0,4.3506,0.0,0.0,0.0,0.0,0.0,0.0,0.0,0.0,0.0,0.0,0.0,0.0,0.0,0.0,0.0,0.0,0.0,0.0,0.0,0.0,0.0,0.0,0.0,0.0,0.0,0.0,0.0,4.1716,4.1914,4.2383,4.2383,4.2383,4.2383,4.2812,4.3008,4.3008,4.3867,4.4336,4.4336,4.4726,4.5195,4.5623,4.5113,4.5151,4.5621,0.0,0.0,0.0,0.0,0.0,0.0,0.0,0.0,0.0,0.0,0.0,0.0,0.0,0.0,0.0,0.0,0.0,0.0,0.0,0.0,0.0,0.0,0.0,0.0,0.0,0.0,0.0,0.0,0.0,0.0,0.0,0.0,0.0,0.0,0.0,0.0,0.0,0.0,0.0,0.0,0.0,0.0,0.0,0.0,0.0,0.0,0.0,0.0,0.0,0.0,0.0,0.0,0.0,0.0,0.0,0.0,0.0,0.0,0.0,0.0,0.0,0.0,0.0,0.0,0.0,0.0,0.0,0.0,0.0,0.0,0.0,4.3726,0.0,0.0,0.0,0.0,0.0,0.0,0.0,0.0,0.0,0.0,0.0,0.0,0.0,0.0,0.0,0.0,0.0,0.0,0.0,0.0,0.0,0.0,0.0,4.1552,4.1832,4.2576,4.2617,4.293,4.3633,4.3711,4.3711,4.3711,4.3867,4.3945,4.3945,4.4766,4.5234,4.5234,4.5937,4.6288,4.6281,4.6228,4.6221,4.6261,4.6266,0.0,0.0,0.0,0.0,0.0,0.0,0.0,0.0,0.0,0.0,0.0,0.0,0.0,0.0,0.0,0.0,0.0,0.0,0.0,0.0,0.0,0.0,0.0,0.0,0.0,0.0,0.0,0.0,0.0,0.0,0.0,0.0,0.0,0.0,0.0,0.0,0.0,0.0,0.0,0.0,0.0,0.0,0.0,0.0,0.0,0.0,0.0,0.0,0.0,0.0,0.0,0.0,0.0,0.0,0.0,0.0,0.0,0.0,0.0,0.0,0.0,0.0,0.0,4.4599,4.492,4.492,4.559,4.5883,4.581,4.4497,4.4314,4.492,0.0,0.0,0.0,0.0,0.0,0.0,0.0,0.0,0.0,0.0,0.0,0.0,0.0,0.0,0.0,0.0,0.0,0.0,0.0,0.0,0.0,0.0,4.3353,4.3396,4.3514,4.3515,4.3594,4.3672,4.3711,4.3711,4.3711,4.4414,4.4844,4.4844,4.5664,4.6133,4.6133,4.6249,4.6285,4.6313,4.6219,4.6187,4.6135,4.618,4.6194,4.6193,0.0,0.0,0.0,0.0,0.0,0.0,0.0,0.0,0.0,0.0,0.0,0.0,0.0,0.0,0.0,0.0,0.0,0.0,0.0,0.0,0.0,0.0,0.0,0.0,0.0,0.0,0.0,0.0,0.0,0.0,0.0,0.0,0.0,0.0,0.0,0.0,0.0,0.0,0.0,0.0,0.0,4.4496,4.4433,0.0,0.0,0.0,0.0,0.0,0.0,0.0,0.0,0.0,0.0,0.0,0.0,0.0,4.4553,4.4553,4.5223,4.559,4.559,4.57,4.5736,4.5736,4.5847,4.5883,4.5883,4.5663,0.0,4.5736,4.5736,0.0,0.0,0.0,0.0,0.0,0.0,0.0,0.0,0.0,0.0,0.0,0.0,0.0,0.0,0.0,0.0,0.0,0.0,0.0,0.0,0.0,4.371,4.3906,4.4375,4.4414,4.4648,4.5117,4.5156,4.5156,4.5156,4.5547,4.5742,4.5742,4.6094,4.6289,4.6289,4.6287,4.6281,4.6312,4.6236,4.6148,4.6091,4.6069,4.6067,4.608,4.6093,0.0,0.0,0.0,0.0,0.0,0.0,0.0,0.0,0.0,0.0,0.0,0.0,0.0,0.0,0.0,0.0,0.0,0.0,0.0,0.0,0.0,0.0,0.0,0.0,0.0,0.0,0.0,0.0,0.0,0.0,0.0,0.0,0.0,0.0,0.0,0.0,0.0,0.0,0.0,4.4621,4.4302,4.4207,4.4039,4.3937,0.0,0.0,0.0,0.0,0.0,0.0,0.0,0.0,0.0,4.4828,4.5186,4.5369,4.5369,4.5736,4.5883,4.592,4.6351,4.6571,4.6608,4.7049,4.7241,4.7241,4.7241,4.7241,4.7205,4.6755,4.6828,4.7241,0.0,0.0,0.0,0.0,4.7241,4.7241,0.0,0.0,0.0,0.0,0.0,0.0,0.0,0.0,0.0,0.0,0.0,0.0,4.4375,4.4375,4.4648,4.5273,4.5312,4.5625,4.625,4.6289,4.6289,4.6289,4.6289,4.6289,4.6289,4.6289,4.6289,4.6289,4.6286,4.6281,4.6314,4.6227,4.6169,4.608,4.5961,4.5911,4.5974,4.595,4.5955,4.5958,0.0,0.0,0.0,0.0,0.0,0.0,0.0,0.0,0.0,0.0,0.0,0.0,0.0,0.0,0.0,0.0,0.0,0.0,0.0,0.0,0.0,0.0,0.0,0.0,0.0,0.0,0.0,0.0,0.0,0.0,0.0,0.0,0.0,0.0,0.0,0.0,0.0,4.4455,4.4169,4.3978,4.3832,4.3845,0.0,0.0,0.0,0.0,0.0,0.0,4.4966,4.4993,4.5296,4.5883,4.6104,4.6214,4.6214,4.6397,4.6507,4.6507,4.7122,4.7406,4.7443,4.8039,4.8296,4.8296,4.8296,4.8296,4.826,4.7636,4.7746,4.8296,4.8296,4.8296,4.8296,4.8296,4.8296,4.8296,0.0,0.0,0.0,0.0,0.0,0.0,0.0,0.0,0.0,0.0,0.0,4.6172,4.6172,4.6172,4.6172,4.6211,4.6211,4.625,4.6289,4.6289,4.6289,4.6289,4.6289,4.6289,4.6289,4.6289,4.6289,4.6289,4.6288,4.6286,4.6281,4.6248,4.6161,4.6103,4.595,4.5903,4.5903,4.5831,4.5817,4.5817,4.5817,0.0,0.0,0.0,0.0,0.0,0.0,0.0,0.0,0.0,0.0,0.0,0.0,0.0,0.0,0.0,0.0,0.0,0.0,0.0,0.0,0.0,0.0,0.0,0.0,0.0,0.0,0.0,0.0,0.0,0.0,0.0,0.0,0.0,0.0,0.0,0.0,0.0,0.0,4.3921,4.3742,0.0,0.0,0.0,0.0,4.5926,4.5873,4.5819,4.5847,4.5847,4.5847,4.5883,4.6645,4.7039,4.7039,4.7783,4.8196,4.8196,4.8223,4.8223,4.8223,4.826,4.8296,4.8296,4.8296,4.8296,4.8296,4.826,4.826,4.8296,4.8296,4.8296,4.8296,4.8296,4.8296,4.8296,0.0,0.0,0.0,0.0,0.0,0.0,0.0,0.0,4.5859,4.5859,4.6094,4.6289,4.6289,4.6289,4.6289,4.6289,4.6289,4.6289,4.6289,4.6289,4.6289,4.6289,4.6289,4.6289,4.6289,4.6289,4.6289,4.6289,4.6288,4.6286,4.6281,4.6211,4.6157,4.6083,4.5977,4.5859,4.5788,4.5746,4.5731,4.5731,4.5758,4.5746,0.0,0.0,0.0,0.0,0.0,0.0,0.0,0.0,0.0,0.0,0.0,0.0,0.0,0.0,0.0,0.0,0.0,0.0,0.0,0.0,0.0,0.0,0.0,0.0,0.0,0.0,0.0,0.0,0.0,0.0,0.0,0.0,0.0,0.0,0.0,0.0,0.0,4.4707,4.4997,0.0,4.5541,4.5551,4.5644,4.5938,4.5938,4.614,4.6645,4.6682,4.6902,4.7425,4.7709,4.7856,4.7856,4.815,4.8296,4.8296,4.8296,4.86,4.9123,4.9123,4.9407,4.9921,4.9921,4.9921,4.9921,4.9921,4.9251,4.8296,4.8296,4.8636,4.9123,4.9123,4.9444,4.9931,0.0,0.0,0.0,0.0,0.0,0.0,0.0,0.0,4.6289,4.6289,4.6289,4.6289,4.6289,4.6289,4.6289,4.6289,4.6289,4.6289,4.6289,4.6289,4.6289,4.6289,4.6289,4.6289,4.6289,4.6601,4.6758,4.6758,4.703,4.7184,4.7141,4.7108,4.7052,4.6976,4.6828,4.6693,4.6553,4.6245,4.5945,4.568,4.5671,4.5667,4.5676,0.0,0.0,0.0,0.0,0.0,0.0,0.0,0.0,0.0,0.0,0.0,0.0,0.0,0.0,0.0,0.0,0.0,0.0,0.0,0.0,0.0,0.0,0.0,0.0,0.0,0.0,0.0,0.0,0.0,0.0,0.0,0.0,0.0,0.0,0.0,4.5888,4.5609,4.5872,4.6157,4.6351,4.6342,4.6425,4.6691,4.6728,4.6938,4.7489,4.7489,4.7893,4.871,4.8746,4.8857,4.915,4.915,4.915,4.915,4.915,4.9444,5.0004,5.0004,5.0298,5.0802,5.0802,5.0802,5.0802,5.0802,5.0141,4.915,4.915,4.9481,5.0004,5.0004,5.0355,5.0855,0.0,0.0,0.0,0.0,0.0,0.0,0.0,4.6289,4.6289,4.6289,4.6289,4.6289,4.6289,4.6289,4.6289,4.6289,4.6289,4.6289,4.6289,4.6289,4.6289,4.6289,4.6328,4.6328,4.6328,4.7187,4.7656,4.7656,4.8476,4.8864,4.8858,4.8823,4.8808,4.874,4.8535,4.8403,4.8245,4.7336,4.6432,4.5667,4.5633,4.5594,4.5594,0.0,0.0,0.0,0.0,0.0,0.0,0.0,0.0,0.0,0.0,0.0,0.0,0.0,0.0,0.0,0.0,0.0,0.0,0.0,0.0,0.0,0.0,0.0,0.0,0.0,0.0,0.0,0.0,0.0,0.0,0.0,0.0,0.0,4.739,4.7038,4.6794,4.6562,4.633,4.6496,4.727,4.7233,4.7452,4.8269,4.8343,4.8343,4.8333,4.837,4.8783,4.961,4.9647,5.0004,5.0802,5.0802,5.0802,5.0802,5.0802,5.0802,5.0839,5.0839,5.0839,5.0875,5.0875,5.0875,5.0875,5.0875,5.0875,5.0875,5.0802,5.0802,5.0839,5.0849,5.0929,5.1059,0.0,0.0,0.0,0.0,0.0,0.0,0.0,4.6289,4.6289,4.6289,4.6289,4.6289,4.6289,4.6289,4.6289,4.6289,4.6289,4.6289,4.6289,4.6289,4.6289,4.6289,4.6914,4.7226,4.7226,4.8086,4.8555,4.8555,4.8788,4.9173,4.9738,4.9697,4.9618,4.9487,4.9357,4.8883,4.8227,4.7883,4.762,4.7317,4.609,4.5594,4.5594,0.0,0.0,0.0,0.0,0.0,0.0,0.0,0.0,0.0,0.0,0.0,0.0,0.0,0.0,0.0,0.0,0.0,0.0,0.0,0.0,0.0,0.0,0.0,0.0,0.0,0.0,0.0,0.0,0.0,0.0,0.0,4.9794,4.9203,4.7797,4.7785,4.7912,4.7732,4.7988,4.8194,4.8354,4.8255,4.8274,4.8411,4.8999,4.9311,4.9233,4.9811,5.0215,5.0472,5.0472,5.0582,5.0802,5.0802,5.0802,5.0802,5.0802,5.1096,5.1693,5.1693,5.1977,5.2553,5.2553,5.2553,5.2553,5.2553,5.2569,5.2494,5.1327,5.1216,5.1762,5.191,5.2502,5.3237,0.0,0.0,0.0,0.0,0.0,0.0,0.0,4.6289,4.6289,4.6289,4.6289,4.6289,4.6289,4.6289,4.6289,4.6289,4.6289,4.6289,4.6289,4.6289,4.6445,4.6836,4.7344,4.7773,4.8125,4.8984,4.9609,4.996,5.0308,5.0879,5.1656,5.1597,5.1491,5.133,5.1211,5.0829,5.0273,4.9533,4.9202,4.9048,4.7317,4.6436,4.6086,4.5744,4.5594,4.5594,4.5594,4.5594,4.5594,4.5594,0.0,0.0,0.0,0.0,0.0,0.0,0.0,0.0,0.0,0.0,0.0,0.0,0.0,0.0,0.0,0.0,0.0,0.0,0.0,0.0,0.0,0.0,0.0,0.0,5.0542,5.0117,4.9062,4.8967,4.8938,4.8821,4.8963,4.9133,4.9463,4.9304,4.9307,4.9574,4.9959,5.0186,5.0124,5.0545,5.1122,5.1783,5.182,5.2123,5.2784,5.2821,5.2821,5.2821,5.2821,5.3052,5.3492,5.3492,5.3749,0.0,5.4216,5.4216,5.4216,5.4269,5.4317,0.0,0.0,0.0,0.0,0.0,5.3652,5.4311,0.0,0.0,0.0,0.0,0.0,0.0,0.0,4.6289,4.6289,4.6289,4.6289,4.6289,4.6289,4.6289,4.6289,4.6289,4.6289,4.6289,4.6289,4.6289,4.668,4.7578,4.7695,4.8164,4.9023,5.0,5.082,5.156,5.2409,5.3238,5.395,5.3854,5.3767,5.3615,5.3481,5.3393,5.3196,5.165,5.0938,5.0707,4.9048,4.7774,4.6812,4.6052,4.5706,4.5594,4.5594,4.5594,4.5594,4.5594,0.0,0.0,0.0,0.0,0.0,0.0,0.0,0.0,0.0,0.0,0.0,0.0,0.0,0.0,0.0,0.0,0.0,0.0,0.0,0.0,0.0,0.0,0.0,0.0,5.0734,5.0732,5.0732,5.0392,5.0082,4.9922,4.9588,4.9719,5.0534,5.0362,5.0453,5.1111,5.1218,5.1212,5.112,0.0,0.0,0.0,0.0,5.4153,5.5585,5.5585,5.5585,5.5585,5.5585,5.5585,5.5585,5.5633,5.5607,5.5607,5.564,5.5651,5.5662,5.5817,5.5908,5.5858,5.4405,5.3977,5.4224,5.4536,5.4731,5.4915,0.0,0.0,0.0,0.0,0.0,0.0,0.0,4.6289,4.6289,4.6289,4.6289,4.6289,4.6289,4.6289,4.6289,4.6289,4.6289,4.6289,4.6289,4.6289,4.668,4.7578,4.8281,4.9062,4.9922,5.1445,5.2304,5.2459,5.3264,5.4084,5.4866,5.4732,5.4618,5.4465,5.4313,5.3884,5.3218,5.2861,5.2313,5.1582,5.0587,4.8856,4.6889,4.6697,4.6201,4.5594,4.5594,4.5594,4.5594,4.5594,4.5594,4.5706,4.6432,4.6658,0.0,0.0,0.0,0.0,0.0,0.0,0.0,0.0,0.0,0.0,0.0,0.0,0.0,0.0,0.0,0.0,0.0,0.0,0.0,5.0707,5.1196,5.1582,5.1582,5.2005,5.1992,5.1174,5.0781,5.09,5.1766,5.1603,5.1485,5.151,5.267,5.332,5.3136,5.4384,5.5153,5.5296,5.5285,5.5389,5.5585,5.5585,5.5585,5.5585,0.0,0.0,5.5585,5.572,5.5764,5.5774,5.5929,5.6012,5.6023,5.6135,5.6356,5.6584,5.6211,5.628,5.6551,5.6689,5.6877,5.7113,0.0,0.0,0.0,0.0,0.0,0.0,0.0,4.6289,4.6289,4.6289,4.6289,4.6289,4.6289,4.6289,4.6289,4.6289,4.6289,4.6289,4.6289,4.6289,4.6875,4.8203,4.8672,4.9492,5.0781,5.2031,5.2929,5.335,5.415,5.4911,5.5641,5.5507,5.5388,5.5253,5.5132,5.4844,5.4434,5.401,5.3351,5.2467,5.1625,5.0048,4.8086,4.7658,4.6971,4.624,4.624,4.5975,4.5667,4.6086,4.624,4.6394,4.7235,4.7505,4.7658,0.0,0.0,0.0,0.0,0.0,0.0,0.0,0.0,0.0,0.0,0.0,0.0,0.0,0.0,5.1318,5.1318,0.0,5.1933,5.1933,5.2259,5.2508,5.2508,5.2785,5.2805,5.2217,5.1927,5.2077,5.2868,5.3095,5.3307,5.3585,5.4686,5.5287,5.5108,5.5822,5.6344,5.6578,5.6562,5.672,5.7062,5.7062,5.7083,5.7148,5.7148,5.737,5.7761,5.7814,5.81,5.8582,5.865,5.8733,5.8767,5.8603,5.8688,5.8955,5.858,5.8034,5.7408,5.7608,5.7735,5.7843,0.0,0.0,0.0,0.0,0.0,0.0,0.0,4.6289,4.6289,4.6289,4.6289,4.6289,4.6289,4.6289,4.6289,4.6289,4.6289,4.6289,4.6289,4.6289,4.707,4.8828,4.8906,4.9687,5.1367,5.2266,5.3123,5.4002,5.4798,5.5539,5.621,5.6048,5.5934,5.5792,5.5735,5.5708,5.567,5.4857,5.401,5.3121,5.2236,5.1005,4.9591,4.8856,4.8005,4.712,4.712,4.6663,4.6206,4.6889,4.712,4.7274,4.8082,4.8355,4.8509,4.9394,4.9668,0.0,0.0,0.0,0.0,0.0,0.0,0.0,0.0,5.0938,5.0976,5.1169,5.1702,5.2159,5.2159,5.2736,5.3197,5.3197,5.3351,5.3433,5.3433,5.3705,5.3805,5.371,5.3359,5.3427,5.4203,5.4822,5.5392,5.5948,5.6683,5.7055,5.6928,5.7005,5.7247,5.7762,5.7847,5.8184,5.8821,5.9006,5.9123,5.9254,5.9254,5.9589,6.0205,6.0247,6.0692,6.1382,6.1474,6.1584,6.1693,6.1259,6.1267,6.1476,6.0942,5.9917,5.8658,5.8566,5.8515,5.854,0.0,0.0,0.0,0.0,0.0,0.0,0.0,0.0,4.6289,4.6289,4.6289,4.6289,4.6289,4.6289,4.6289,4.6289,4.6289,4.6289,4.6289,4.6289,4.707,4.8828,4.8906,4.9687,5.1367,5.2266,5.3123,5.4002,5.4748,5.5483,5.621,5.606,5.5941,5.5792,5.5735,5.5708,5.567,5.4857,5.401,5.3121,5.2236,5.1351,5.0553,5.0438,4.9394,4.7966,4.7966,4.7889,4.7855,4.7928,4.7966,4.812,4.8971,4.924,4.9433,5.0284,5.0553,5.0592,5.0668,5.0707,5.0707,5.0707,5.0707,5.0899,0.0,5.1774,5.2005,5.2774,5.3005,5.3044,5.3044,5.3121,5.3197,5.3197,5.3857,5.4357,5.4357,5.5626,5.6544,5.6533,5.5617,5.5339,5.6179,5.6825,5.7248,5.7376,5.8061,5.8431,5.8373,5.8971,5.9253,5.9084,5.9701,6.0025,6.0,6.0767,6.1151,6.1199,6.1199,6.1236,6.1321,6.1501,6.1627,6.1768,6.2056,6.2298,6.2463,6.2482,6.2582,6.2732,6.2766,6.27,6.2407,6.0935,6.0441,6.0488,0.0,0.0,0.0,0.0,0.0,0.0,0.0,0.0,0.0,4.6289,4.6289,4.6289,4.6289,4.6289,4.6289,4.6289,4.6289,4.6289,4.6289,4.6289,4.6836,4.8086,4.8633,4.9453,5.0664,5.1992,5.2887,5.3253,5.4509,5.5195,5.5409,5.5795,5.5918,5.574,5.5719,5.5439,5.4972,5.4626,5.3703,5.2428,5.2038,5.1433,5.0707,5.0707,5.0245,4.9553,4.9048,4.8548,0.0,4.8702,4.8856,4.9009,4.9899,5.0168,5.0245,5.0592,5.0707,5.0707,5.0707,5.0707,5.0822,5.1279,5.1395,5.162,5.2467,5.2659,5.2774,5.3121,5.3587,5.3972,5.3972,5.4357,5.4664,5.4664,5.4972,5.5401,5.5862,5.6555,5.717,5.7703,5.7698,5.7633,5.7487,5.8097,5.8474,5.846,5.9188,5.9838,6.0334,6.0562,6.0836,6.1169,6.136,6.1439,6.1428,6.1768,6.202,6.2126,6.2126,6.2391,6.2836,6.2945,6.3271,6.3786,6.3995,6.4184,6.426,6.3785,6.3674,6.3785,6.3309,6.3182,6.3161,6.247,6.2219,6.2243,0.0,0.0,0.0,0.0,0.0,0.0,0.0,0.0,0.0,0.0,4.6289,4.6289,4.6289,4.6289,4.6289,4.6289,4.6289,4.6289,4.6289,4.6289,4.668,4.7578,4.8203,4.9062,5.0195,5.1406,5.2223,5.27,5.3843,5.4404,5.4466,5.5043,5.5214,5.5011,5.5011,5.4703,5.4126,5.3895,5.3044,5.1885,5.1659,5.1202,5.0707,5.0707,5.0707,5.063,4.9976,4.9356,4.8894,4.9553,4.9745,4.9861,5.0515,5.0707,5.0707,5.0707,5.0861,5.1092,5.1323,5.1399,5.151,5.212,5.2274,5.2505,5.3351,5.3549,5.3626,5.3857,5.4395,5.4818,5.4818,5.5324,5.5708,5.5708,5.5901,5.6285,5.6907,5.7401,5.794,5.855,5.9317,5.9622,5.924,5.9422,5.9664,5.986,6.0428,6.1155,6.1997,6.1915,6.2117,6.2612,6.2689,6.2753,6.2789,6.3017,6.3234,6.3352,6.3352,6.3687,6.4251,6.4275,6.468,6.5383,6.5488,6.5561,6.5556,6.4935,6.4767,6.4821,6.4174,6.3969,6.4006,6.4006,6.3698,6.3314,0.0,0.0,0.0,0.0,0.0,0.0,0.0,0.0,0.0,0.0,0.0,0.0,0.0,4.6289,4.6289,4.6289,4.6289,4.6289,4.6289,4.6289,4.668,4.7578,4.7617,4.8437,5.0156,5.0234,5.1051,5.27,5.2675,5.2966,5.3536,5.3576,5.3476,5.3274,5.3274,5.3274,5.3197,5.2351,5.1962,5.1846,5.1048,5.0707,5.0707,5.0707,5.0707,5.0707,5.0668,5.063,5.063,5.063,5.0668,5.0668,5.0707,5.0707,5.0707,5.0707,5.1241,5.2043,5.289,5.3121,5.3121,5.3159,5.3159,5.3395,5.4241,5.4472,5.4664,5.5478,5.567,5.567,5.567,5.567,5.5708,5.5708,5.6401,5.6983,5.6983,5.8401,5.9435,5.9473,6.0242,6.1089,0.0,6.1121,6.0911,6.1825,6.194,6.2286,6.3098,6.3072,6.305,6.2982,6.3654,6.4023,6.4069,6.4863,6.5329,6.5329,6.5329,6.5329,6.5329,6.5412,6.5566,6.578,6.578,6.5826,6.5891,6.5853,6.5853,6.5859,6.582,6.582,6.582,6.582,6.4743,6.3314,0.0,0.0,0.0,0.0,0.0,0.0,0.0,0.0,0.0,0.0,0.0,0.0,0.0,0.0,0.0,0.0,4.6289,4.6289,4.6289,4.6289,4.6445,4.6719,4.7305,4.7851,4.8476,4.9023,4.9879,5.0982,5.1503,5.2068,5.2718,5.3267,5.3399,5.3197,5.3197,5.289,5.2313,5.2,5.1582,5.1087,5.0822,5.0707,5.0707,5.0707,5.0707,5.0707,0.0,5.0707,5.0707,5.0707,5.0707,5.0707,5.0707,5.0707,5.0784,5.1356,5.2082,5.2813,5.3121,5.3197,5.3351,5.3933,5.4049,5.428,5.5126,5.5285,5.5362,5.5631,5.5708,5.5708,5.5708,5.5708,5.5901,5.6478,5.6824,5.7401,5.8511,5.9127,5.9704,6.0281,6.1133,0.0,0.0,0.0,0.0,6.2783,6.286,6.3245,6.4097,6.4065,6.4288,6.485,6.4998,6.513,6.5224,6.5531,6.5705,6.5722,6.5722,6.5722,6.5722,6.5748,6.5781,6.5865,6.5865,6.5878,6.5904,6.5904,6.5904,6.5904,6.5904,6.5904,6.5904,6.5904,6.5513,6.5013,0.0,0.0,0.0,0.0,0.0,0.0,0.0,0.0,0.0,0.0,0.0,0.0,0.0,0.0,0.0,0.0,0.0,4.6289,4.6289,4.6289,4.6289,4.6289,4.6836,4.7266,4.7578,4.8164,4.8825,4.9622,5.014,5.0557,5.0933,5.1459,5.1593,5.1414,5.1399,5.1236,5.1005,5.1005,5.0894,5.0707,5.0707,5.0707,5.0707,5.0707,5.0707,0.0,5.0707,5.0707,5.0707,5.0707,5.0707,5.0707,5.0707,5.0899,5.1279,5.212,5.2967,5.3741,5.401,5.4087,5.4241,5.478,5.4934,5.5049,5.5593,5.5708,5.5708,5.5708,5.5708,5.5708,5.5708,5.5708,5.5978,5.6863,5.7247,5.794,5.9319,5.9781,6.0281,6.1172,6.1749,6.2326,0.0,0.0,0.0,6.3737,6.3775,6.4122,6.5013,6.5007,6.525,6.5833,6.5748,6.5742,6.5833,6.5833,6.5852,6.5904,6.5904,6.5904,6.5904,6.5904,6.5904,6.5904,6.5904,6.5904,6.5904,6.5904,6.5904,6.5904,6.5904,6.5904,6.5904,6.5904,6.5904,6.5904,0.0,0.0,0.0,0.0,0.0,0.0,0.0,0.0,0.0,0.0,0.0,0.0,0.0,0.0,0.0,0.0,0.0,0.0,4.6289,4.6289,4.6289,4.6289,4.6289,4.668,4.7539,4.7539,4.7928,4.8732,4.8663,4.8588,4.8519,4.8427,4.8326,4.8188,4.8143,4.8548,4.9356,4.9394,4.9899,5.063,5.0668,5.0707,5.0707,5.0707,5.0707,5.0707,5.0707,5.0707,5.0707,5.0707,5.0707,5.0707,5.0707,5.1279,5.212,5.2967,5.3857,5.4741,5.5478,5.5708,5.5708,5.5708,5.5708,5.5708,5.5708,5.5708,5.5708,5.5708,5.5708,5.5708,5.5708,5.5747,5.6055,5.6901,5.778,5.8621,5.9435,6.0281,6.1133,6.1979,6.2133,6.2787,6.4436,0.0,0.0,6.4666,0.0,6.5013,6.5865,6.5904,6.5904,6.5904,6.5904,6.5904,6.5904,6.5904,6.5904,6.5904,6.5904,6.5904,6.5904,6.5904,6.5904,6.5904,6.5904,6.5904,6.5904,6.5904,6.5904,6.5904,6.5904,6.5904,6.5904,6.5904,6.591,6.5916,0.0,0.0,0.0,0.0,0.0,0.0,0.0,0.0,0.0,0.0,0.0,0.0,0.0,0.0,0.0,0.0,0.0,0.0,4.6289,4.6289,4.6289,4.6289,4.6289,4.6406,4.6641,4.6641,4.7029,4.7834,4.781,4.8054,4.8519,4.8412,4.8315,4.8188,4.8143,4.8235,4.8471,4.9125,4.951,4.9784,5.0438,5.0707,5.0707,5.0707,5.0707,5.0707,5.0707,5.0707,5.0707,5.0707,5.0707,5.0707,5.0707,5.1702,5.2928,5.3121,5.4241,5.5439,5.5631,5.5708,5.5708,5.5708,5.5708,5.5708,5.5708,5.5708,5.5708,5.5708,5.5708,5.5708,5.5708,5.6247,5.694,5.7819,5.8665,5.9473,6.0358,6.0666,6.1133,6.1979,6.2627,6.3435,6.4512,6.5205,0.0,0.0,6.5551,6.5673,6.5897,6.5904,6.5904,6.5904,6.5904,6.5904,6.5904,6.5904,6.5904,6.5904,6.5904,6.5904,6.5904,6.5904,6.5904,6.5904,6.5904,6.5904,6.5904,6.5904,6.5904,6.5904,6.5904,6.5935,6.5978,6.5978,6.5993,6.6036,0.0,0.0,0.0,0.0,0.0,0.0,0.0,0.0,0.0,0.0,0.0,0.0,0.0,0.0,0.0,0.0,0.0,0.0,0.0,4.6289,4.6288,4.6286,4.6287,4.6287,4.6286,4.6288,4.652,4.6975,4.6957,4.7093,4.7429,4.7352,4.7216,4.7105,4.704,4.7201,4.762,4.8086,4.874,0.0,0.0,5.0361,5.0707,5.0707,5.0707,5.0707,5.0707,5.0707,5.0707,5.0707,5.0707,5.0707,5.0707,5.1856,5.3197,5.3197,5.4395,5.5708,5.5708,5.5708,5.5708,5.5708,5.5708,5.5708,5.5708,5.5708,5.5708,5.5708,5.5708,5.5708,5.5708,5.6401,5.7286,5.8165,5.8973,5.9819,6.0671,6.1133,6.1672,6.2512,6.3358,6.4205,6.5089,6.559,6.5904,0.0,6.5904,6.5904,6.5904,6.5904,6.5904,6.5904,6.5904,6.5904,6.5904,6.5904,6.5904,6.5904,6.5904,6.5904,6.5904,6.5904,6.5904,6.5904,0.0,6.5904,6.5904,6.5904,6.5916,6.5947,6.5947,6.5964,6.6046,6.6074,6.6102,6.6142,0.0,0.0,0.0,0.0,0.0,0.0,0.0,0.0,0.0,0.0,0.0,0.0,0.0,0.0,0.0,0.0,0.0,0.0,0.0,0.0,4.6282,4.6271,4.6276,4.6276,4.627,4.6281,4.6281,4.627,4.6213,4.6167,4.6069,4.5974,4.5838,4.5684,4.5633,4.6013,4.6735,4.6851,4.7735,4.9086,4.9317,4.9861,5.0553,0.0,5.0707,5.0707,5.0707,5.0707,5.0707,5.0707,5.0707,5.0707,5.0707,5.1856,5.3197,5.3197,5.4395,5.5708,5.5708,5.5708,5.5708,5.5708,5.5708,5.5708,5.5708,5.5708,5.5708,5.5708,5.5708,5.5708,5.5708,5.6401,5.7286,5.8165,5.8973,5.9819,6.0671,6.1556,6.2403,6.3198,6.4083,6.4936,6.582,6.5904,6.5904,6.5904,6.5904,6.5904,6.5904,6.5904,6.5904,6.5904,6.5904,6.5904,6.5904,6.5904,6.5904,6.5904,6.5904,6.5904,6.5904,6.5904,6.5904,6.5904,0.0,0.0,6.5916,6.5916,6.596,6.6026,6.6038,6.608,6.6149,6.6205,6.6235,6.626,0.0,0.0,0.0,0.0,0.0,0.0,0.0,0.0,0.0,0.0,4.6289,4.6289,0.0,0.0,0.0,0.0,0.0,0.0,0.0,0.0,0.0,4.6213,4.6206,4.6205,4.6212,4.6216,4.6216,4.6212,4.6227,4.6137,4.6005,4.5923,4.5838,4.5684,4.5633,4.5667,4.5859,4.6581,4.7081,4.7466,4.8856,4.9471,4.9707,5.0438,0.0,0.0,5.0707,5.0707,5.0707,5.0707,5.0707,5.0707,5.0707,5.1856,5.3197,5.3197,5.4395,5.5708,5.5708,5.5708,5.5708,5.5708,5.5708,5.5708,5.5708,5.5708,5.5708,5.5708,5.5708,5.5708,5.5708,5.6401,5.7286,5.8165,5.8973,5.9819,6.0671,6.1556,6.2403,6.3198,6.4083,6.4936,6.582,6.5904,0.0,0.0,6.5904,6.5904,6.5904,6.5904,6.5904,6.5904,6.5904,6.5904,6.5904,6.5904,6.5904,6.5904,6.5904,6.5904,6.5904,6.5904,6.5904,6.5904,6.5904,0.0,6.5984,6.5984,6.6011,6.6074,6.6123,6.6235,6.636,6.6367,6.6436,6.654,0.0,0.0,0.0,0.0,0.0,0.0,0.0,4.6289,4.6289,4.6289,4.6289,4.6289,4.6289,4.6289,0.0,0.0,0.0,0.0,0.0,0.0,0.0,0.0,0.0,0.0,4.6082,4.6118,4.6167,4.6149,0.0,4.6091,4.5936,4.588,4.581,4.5691,4.5625,4.5594,4.5633,4.6052,4.6509,4.6966,4.7774,4.8625,4.9433,0.0,0.0,0.0,5.0707,5.0707,5.0707,5.0707,5.0707,5.0707,5.0707,5.1856,5.3197,5.3197,5.4395,5.5708,5.5708,5.5708,5.5708,5.5708,5.5708,5.5708,5.5708,5.5708,5.5708,5.5708,5.5708,5.5708,5.5708,5.6401,5.7286,5.8165,5.8973,5.9819,6.0671,6.1897,6.2858,6.3237,6.4474,6.5436,6.5865,6.5904,6.5904,6.5904,6.5904,6.5904,6.5904,6.5904,6.5904,6.5904,6.5904,6.5904,6.5904,6.5904,6.5904,6.5904,6.5904,6.5904,6.5904,6.5904,6.5923,6.5954,6.5954,0.0,6.6057,6.6091,6.6149,6.6273,6.6285,6.64,6.6523,6.6558,6.6587,6.6652,0.0,0.0,0.0,0.0,0.0,0.0,0.0,4.6289,4.6289,4.6289,4.6288,4.6287,4.6288,4.6286,4.6284,0.0,0.0,0.0,0.0,0.0,0.0,0.0,0.0,0.0,0.0,0.0,0.0,4.6047,4.606,0.0,0.0,0.0,0.0,0.0,4.5612,4.5594,4.5594,4.5594,4.6013,0.0,0.0,4.7697,0.0,0.0,0.0,0.0,0.0,5.0707,5.0707,5.0707,5.0707,5.0745,5.0899,5.1972,5.3236,5.3433,5.4511,5.5708,5.5708,5.5708,5.5708,5.5708,5.5708,5.5708,5.5708,5.5708,5.5708,5.5708,5.5708,5.5708,5.5708,5.6247,5.7055,5.8127,5.8813,5.9627,6.0666,6.2243,6.3314,6.3314,6.4859,6.5904,6.5904,6.5904,0.0,6.5904,6.5904,0.0,6.5904,6.5904,6.5904,6.5904,6.5904,6.5904,6.5904,6.5904,6.5904,6.5904,6.5904,6.591,6.5923,6.5923,6.5966,6.6005,6.6055,0.0,0.0,6.623,6.6308,6.6435,6.6475,6.6531,6.6668,6.6691,6.6725,6.6755,0.0,0.0,0.0,0.0,0.0,0.0,0.0,4.6289,4.6289,4.6288,4.6285,4.628,4.6228,4.6272,4.627,0.0,0.0,0.0,0.0,0.0,0.0,0.0,0.0,0.0,0.0,0.0,0.0,4.5926,4.5902,0.0,0.0,0.0,0.0,0.0,0.0,4.5594,4.5594,4.5594,0.0,0.0,0.0,0.0,0.0,0.0,0.0,0.0,0.0,5.0707,5.0707,5.0707,5.0707,5.0822,5.1543,5.2428,5.3351,5.4164,5.5011,5.5708,5.5708,5.5708,5.5708,5.5708,5.5708,5.5708,5.5708,5.5708,5.5708,5.5708,5.5708,5.5708,5.5708,5.5785,5.6357,5.8044,5.8352,5.8973,6.0556,6.2243,6.3314,6.3314,6.4859,6.5904,6.5904,6.5904,6.5904,6.5904,6.5904,0.0,6.5904,6.5904,6.5904,6.5904,6.5904,6.5904,6.5904,6.5904,6.5904,6.5904,6.5904,6.5935,6.5996,6.5996,6.6017,6.6085,6.6139,0.0,0.0,6.6388,6.6457,6.6577,6.6644,6.6738,6.679,6.6803,6.682,6.687,0.0,0.0,0.0,0.0,0.0,0.0,4.6289,4.6289,4.6288,4.6285,4.6274,4.6218,4.6194,4.6165,4.6109,4.6154,0.0,0.0,0.0,0.0,0.0,0.0,0.0,0.0,0.0,0.0,4.5828,4.5782,4.5828,0.0,0.0,0.0,0.0,0.0,0.0,4.5594,4.5594,4.5594,0.0,0.0,0.0,0.0,0.0,0.0,0.0,0.0,0.0,0.0,5.0707,5.0707,5.0707,5.0822,5.1659,5.2505,5.3351,5.4241,5.5049,5.5708,5.5708,5.5708,5.5708,5.5708,5.5708,5.5708,5.5708,5.5708,5.5708,5.5708,5.5708,5.5708,5.5708,5.5708,5.628,5.8006,5.8313,5.8896,6.0556,6.2243,6.3314,6.3314,6.4859,6.5904,6.5904,0.0,6.5904,6.5904,6.5904,0.0,6.5904,6.5904,6.5904,6.5904,6.5904,6.5904,6.5904,6.5904,6.5923,6.5966,6.5966,6.6014,6.6074,6.6108,6.6165,6.6292,6.6303,0.0,0.0,6.6576,6.6646,6.672,6.6738,6.6803,6.6863,6.6866,6.6871,6.6913,0.0,0.0,0.0,0.0,0.0,4.6289,4.6289,4.6287,4.6283,4.6276,4.6212,4.6176,4.613,4.6051,4.5963,4.6025,4.5922,0.0,0.0,0.0,0.0,0.0,0.0,0.0,0.0,0.0,4.5719,4.5687,4.5719,4.5703,0.0,0.0,4.5663,4.5594,0.0,0.0,0.0,0.0,0.0,0.0,0.0,0.0,0.0,0.0,0.0,0.0,0.0,0.0,0.0,0.0,0.0,5.0822,5.1659,5.2505,5.3351,5.4241,5.5049,5.5708,5.5708,5.5708,5.5708,5.5708,5.5708,5.5708,5.5708,5.5708,5.5708,5.5708,5.5708,5.5708,5.5708,5.5708,5.628,5.8006,5.8313,5.8896,6.0556,6.2243,6.3314,6.3314,6.4859,6.5904,6.5904,6.5904,6.5904,6.5904,0.0,0.0,6.5904,6.5904,6.5904,6.5904,6.5904,6.5904,6.5904,6.5923,6.5966,6.5988,6.6029,6.6113,6.62,6.6254,6.6325,6.6457,6.6496,0.0,0.0,6.6701,6.6778,6.6812,6.6819,6.6868,6.6912,6.6912,6.6913,6.6914,0.0,0.0,0.0,0.0,0.0,0.0,4.6287,4.6281,4.6268,4.621,4.6132,4.607,4.6015,4.5923,4.5873,4.5799,4.5786,0.0,0.0,0.0,0.0,0.0,0.0,0.0,0.0,0.0,4.5594,4.5594,4.5594,4.5594,4.5594,4.5594,4.5594,4.5594,0.0,0.0,0.0,0.0,0.0,0.0,0.0,0.0,0.0,0.0,0.0,0.0,0.0,0.0,0.0,0.0,0.0,0.0,0.0,5.2505,5.3351,5.4241,5.5049,5.5708,5.5708,5.5708,5.5708,5.5708,5.5708,5.5708,5.5708,5.5708,5.5708,5.5708,5.5708,5.5708,5.5708,5.5708,5.628,5.8006,5.8313,5.8896,6.0556,6.2243,6.3314,6.3314,6.4859,6.5904,6.5904,6.5904,6.5904,6.5904,0.0,0.0,6.5904,6.5904,6.5904,6.5904,6.5904,6.5904,6.5904,6.5966,6.5993,6.6007,6.6128,6.6264,6.6402,6.6408,6.6471,0.0,0.0,0.0,0.0,6.6809,6.6824,6.6911,6.6911,6.6913,6.6914,6.6914,6.6914,6.6914,0.0,0.0,0.0,0.0,0.0,0.0,0.0,4.6248,4.6221,4.6151,4.6042,4.5958,4.5917,4.5814,4.5762,4.5746,4.5715,0.0,0.0,0.0,0.0,0.0,0.0,0.0,0.0,0.0,4.5594,4.5594,4.5594,4.5594,4.5594,4.5594,4.5594,4.5594,4.5594,4.5594,0.0,0.0,0.0,0.0,0.0,0.0,0.0,0.0,0.0,0.0,0.0,0.0,0.0,0.0,0.0,0.0,0.0,0.0,0.0,5.3351,5.4587,5.5708,5.5708,5.5708,5.5708,5.5708,5.5708,5.5708,5.5708,5.5708,5.5708,5.5708,5.5708,5.5708,5.5708,5.5708,5.628,5.8006,5.8313,5.9088,6.1364,6.2627,6.3506,6.4122,6.5205,6.5904,0.0,0.0,6.5904,6.5904,0.0,0.0,6.5904,6.5904,6.5904,6.5904,6.5947,6.5972,6.5972,6.6034,6.6096,6.619,6.6292,6.6427,6.6533,6.6585,6.6658,0.0,0.0,0.0,0.0,6.6868,6.6872,6.6914,6.6914,6.6914,6.6914,6.6914,6.6914,6.6914,0.0,0.0,0.0,0.0,0.0,0.0,0.0,4.6148,4.6101,4.6024,4.5933,4.5838,4.5845,4.5758,4.5683,4.568,4.5676,0.0,0.0,0.0,0.0,0.0,0.0,0.0,0.0,4.5594,4.5594,4.5594,4.5594,4.5594,4.5594,4.5594,4.5594,4.5594,4.5594,4.5594,0.0,0.0,0.0,0.0,0.0,0.0,4.7005,0.0,0.0,0.0,0.0,0.0,0.0,0.0,0.0,0.0,0.0,0.0,0.0,0.0,5.4164,5.5324,5.5631,5.5708,5.5708,5.5708,5.5708,5.5708,5.5708,5.5708,5.5708,5.5708,5.5708,5.5708,5.5708,5.5708,5.628,5.8006,5.8313,5.9204,6.1749,6.2781,6.3737,6.4936,6.5551,6.5904,0.0,6.5904,6.5904,0.0,0.0,0.0,6.5904,6.5923,6.5947,6.5933,6.5976,6.6017,6.6069,6.616,6.6278,6.6377,6.6453,6.6561,6.6697,6.6703,6.6784,0.0,0.0,0.0,0.0,6.6913,6.6914,6.6914,6.6914,6.6914,6.6914,6.6914,6.6914,6.6914,0.0,0.0,0.0,0.0,0.0,0.0,0.0,4.6015,4.5978,4.5908,4.5819,4.5764,4.5731,4.5683,4.568,4.5599,0.0,0.0,0.0,0.0,0.0,0.0,0.0,0.0,0.0,4.5594,4.5594,4.5594,4.5594,4.5594,4.5594,4.5594,4.5594,4.5594,4.5594,4.5594,0.0,0.0,0.0,0.0,4.5594,4.609,0.0,0.0,0.0,0.0,0.0,0.0,0.0,0.0,0.0,0.0,0.0,0.0,0.0,0.0,0.0,0.0,0.0,5.567,5.5708,5.5708,5.5708,5.5708,5.5708,5.5708,0.0,5.5708,5.5708,5.5708,5.5708,5.5747,5.6319,5.8044,5.8352,5.9281,6.1826,6.2935,6.4083,6.5705,6.5904,6.5904,6.5904,6.5904,6.5904,0.0,0.0,0.0,6.591,6.5978,6.6005,6.6024,6.6041,6.6096,6.62,6.6355,6.6466,6.6506,6.6631,6.674,6.6817,6.6807,6.6824,0.0,0.0,0.0,0.0,6.6914,6.6914,6.6914,6.6914,6.6914,6.6914,6.6914,6.6914,6.6914,0.0,0.0,0.0,0.0,0.0,0.0,0.0,0.0,0.0,0.0,4.5765,4.5738,4.5717,4.5637,4.5603,0.0,0.0,0.0,0.0,0.0,0.0,0.0,0.0,0.0,0.0,4.5594,4.5594,4.5594,4.5594,4.5594,4.5594,4.5594,4.5594,4.5594,4.5594,4.5594,0.0,0.0,0.0,0.0,4.5594,4.5706,0.0,0.0,0.0,0.0,5.0168,5.0707,0.0,0.0,0.0,0.0,0.0,0.0,0.0,0.0,5.2813,5.3703,5.4549,0.0,5.5708,5.5708,5.5708,5.5708,0.0,5.5708,5.5708,5.5708,5.5708,5.5708,5.5708,5.6247,5.7055,5.8127,5.8813,6.0127,6.266,6.432,6.5436,6.5865,6.5904,6.5904,6.5904,6.5904,6.5904,0.0,0.0,6.5978,6.5978,6.604,6.6107,6.6244,6.6281,6.6329,6.6355,6.6479,6.6579,6.6637,6.6752,6.6795,6.6817,6.6866,6.6872,0.0,0.0,0.0,6.6914,6.6914,6.6914,6.6914,6.6914,6.6914,6.6914,6.6914,6.6914,6.6914,0.0,0.0,0.0,0.0,0.0,0.0,0.0,0.0,0.0,0.0,0.0,0.0,0.0,0.0,0.0,0.0,0.0,0.0,0.0,0.0,0.0,0.0,0.0,0.0,4.5594,4.5594,4.5594,4.5594,4.5594,4.5594,4.5594,4.5594,4.5594,4.5594,4.5594,4.5594,0.0,0.0,0.0,0.0,4.5594,0.0,0.0,0.0,0.0,0.0,5.0053,5.0707,0.0,5.0707,5.0707,5.0707,0.0,0.0,0.0,0.0,5.2236,5.289,5.4164,5.5093,5.5708,5.5708,5.5708,5.5708,5.5708,5.5708,5.5708,5.5708,5.5708,5.5824,5.6209,5.667,5.7401,5.8665,5.955,6.0973,6.3545,6.5051,6.5904,6.5904,6.5904,6.5904,0.0,6.5904,0.0,0.0,0.0,6.6014,6.5999,6.6128,6.6225,6.6321,6.6482,6.6539,6.6503,6.6621,6.6691,6.6769,6.6806,6.6862,6.6869,6.6873,6.6914,0.0,0.0,0.0,6.6914,6.6914,6.6914,6.6914,6.6914,6.6914,6.6914,6.6914,6.6914,6.6914,0.0,0.0,0.0,0.0,0.0,0.0,0.0,0.0,0.0,0.0,0.0,0.0,0.0,0.0,0.0,0.0,0.0,0.0,0.0,0.0,0.0,0.0,0.0,4.5594,4.5594,4.5594,4.5594,4.5594,4.5594,4.5594,4.5594,4.5594,4.5594,4.5594,4.5594,4.5594,0.0,0.0,0.0,0.0,4.5594,0.0,0.0,0.0,0.0,0.0,0.0,0.0,0.0,5.0707,5.0707,5.0707,5.0707,0.0,0.0,0.0,0.0,0.0,5.3857,5.4895,5.5555,5.567,5.5708,5.5708,5.5708,5.5708,5.5708,5.5708,5.5708,5.5978,5.6824,5.7093,5.7709,5.9242,6.0435,6.1973,6.4282,6.5359,6.5904,6.5904,6.5904,0.0,6.5904,6.591,0.0,0.0,0.0,6.6046,6.6058,6.6244,6.6396,6.6433,6.6626,6.6681,6.6629,6.6723,6.6798,6.6818,6.687,6.6912,6.6912,6.6914,6.6914,6.6914,0.0,0.0,6.6914,6.6914,6.6914,6.6914,6.6914,6.6914,6.6914,6.6914,6.6914,6.6914,0.0,0.0,0.0,0.0,0.0,0.0,0.0,0.0,0.0,0.0,0.0,0.0,0.0,0.0,0.0,0.0,0.0,0.0,0.0,0.0,0.0,0.0,4.5594,4.5594,4.5594,4.5594,4.5594,4.5594,4.5594,4.5594,4.5594,4.5594,4.5594,4.5594,4.5594,4.5594,4.5594,0.0,0.0,4.5594,4.5594,0.0,0.0,0.0,0.0,0.0,0.0,0.0,0.0,5.0707,5.0707,5.0707,5.0707,0.0,0.0,0.0,0.0,0.0,5.3121,5.4049,5.4857,5.5516,5.5708,5.5708,5.5708,5.5708,5.5708,5.5708,5.5708,5.5978,5.6824,5.7594,5.8396,5.9358,6.1429,6.3314,6.4436,6.5359,6.5904,6.5904,0.0,6.5904,6.5904,0.0,0.0,0.0,0.0,6.6245,6.6253,6.6422,6.6585,6.6642,6.6755,6.6796,6.6774,6.6778,6.6824,6.687,6.6913,6.6914,6.6914,6.6914,6.6914,6.6914,0.0,6.6914,6.6914,6.6914,6.6914,6.6914,6.6914,6.6914,6.6914,6.6914,6.6914,6.6914,0.0,0.0,0.0,0.0,0.0,0.0,0.0,0.0,0.0,0.0,0.0,0.0,0.0,0.0,0.0,0.0,0.0,0.0,0.0,0.0,0.0,4.5594,4.5594,4.5594,4.5594,4.5594,4.5594,4.5594,4.5594,4.5594,4.5594,4.5594,4.5594,4.5594,4.5594,4.5594,4.5594,4.5594,4.5594,4.5594,0.0,0.0,0.0,0.0,0.0,0.0,0.0,0.0,0.0,0.0,5.0707,5.0707,5.0707,0.0,0.0,0.0,0.0,0.0,5.2274,5.3121,5.401,5.4857,5.5401,5.5708,5.5708,5.5708,5.5708,5.5708,5.6055,5.667,5.755,5.8396,5.9511,6.1275,6.2929,6.432,6.5166,6.5628,6.5904,0.0,0.0,6.5916,6.5954,0.0,0.0,0.0,0.0,0.0,6.6408,6.6543,6.6674,6.6746,6.6802,6.6864,6.6869,6.6833,6.6873,6.6913,6.6914,6.6914,6.6914,6.6914,6.6914,6.6914,0.0,6.6914,6.6914,6.6914,6.6914,6.6914,6.6914,6.6914,6.6914,6.6914,6.6914,6.6914,0.0,0.0,0.0,0.0,0.0,0.0,0.0,0.0,0.0,0.0,0.0,0.0,0.0,0.0,0.0,0.0,0.0,0.0,0.0,0.0,4.5594,4.5594,4.5594,4.5594,4.5594,4.5594,4.5594,4.5594,4.5594,4.5594,4.5594,4.5594,4.5594,4.5594,4.5594,4.5594,4.5594,4.5594,4.5594,4.5594,0.0,0.0,0.0,0.0,0.0,0.0,0.0,0.0,0.0,0.0,0.0,0.0,0.0,0.0,0.0,5.0707,5.0707,5.0861,5.1697,5.239,5.3159,5.4241,5.5088,5.5708,5.5708,5.5708,5.5747,5.5978,5.6555,5.7324,5.8396,5.9435,6.0896,6.3237,6.4166,6.4897,6.5788,6.5904,6.5904,6.5904,6.5904,6.5929,0.0,0.0,0.0,0.0,0.0,0.0,6.6549,6.6679,6.6739,6.6833,6.6865,6.6912,6.6912,6.6914,6.6914,6.6914,6.6914,6.6914,6.6914,6.6914,6.6914,6.6914,6.6914,6.6914,6.6914,6.6914,6.6914,6.6914,6.6914,6.6914,6.6914,6.6914,6.6914,6.6914,0.0,0.0,0.0,0.0,0.0,0.0,0.0,0.0,0.0,0.0,0.0,0.0,0.0,0.0,0.0,0.0,0.0,0.0,0.0,0.0,4.5594,4.5594,4.5594,4.5594,4.5594,4.5594,4.5594,4.5594,4.5594,4.5594,4.5594,4.5594,4.5594,4.5594,4.5594,4.5594,4.5594,4.5594,4.5594,4.5594,4.5594,0.0,0.0,0.0,0.0,0.0,0.0,0.0,0.0,0.0,0.0,0.0,0.0,0.0,5.0707,5.0707,5.0707,5.0861,5.1697,5.1962,5.239,5.4087,5.5088,5.5708,5.5708,5.5708,5.5939,5.6747,5.6945,5.7478,5.9127,6.0787,6.248,6.4205,6.4551,6.4897,6.5788,0.0,6.5904,6.5904,6.5904,0.0,0.0,0.0,0.0,0.0,0.0,0.0,6.6691,6.676,6.6826,6.687,6.6913,6.6914,6.6914,6.6914,6.6914,6.6914,6.6914,6.6914,6.6914,6.6914,6.6914,6.6914,6.6914,6.6914,6.6914,6.6914,6.6914,6.6914,6.6914,6.6914,6.6914,6.6914,6.6914,6.6914,0.0,0.0,0.0,0.0,0.0,0.0,0.0,0.0,0.0,0.0,0.0,0.0,0.0,0.0,0.0,0.0,0.0,0.0,0.0,0.0,4.5594,4.5594,4.5594,4.5594,4.5594,4.5594,4.5594,4.5594,4.5594,4.5594,4.5594,4.5594,4.5594,4.5594,4.5594,4.5594,4.5594,4.5594,4.5594,4.5594,4.5594,4.6124,0.0,0.0,0.0,0.0,0.0,0.0,0.0,0.0,5.0707,5.0707,5.0707,5.0707,5.0707,5.0707,5.0707,5.0784,5.1087,5.1505,5.2197,5.3395,5.4318,5.5088,5.5593,5.6132,5.6593,5.6945,5.7824,5.9094,6.0787,6.205,6.3243,6.4397,6.5051,6.5513,6.5865,6.5904,6.5904,6.5904,6.5904,0.0,0.0,0.0,0.0,0.0,0.0,0.0,6.6752,6.6821,6.687,6.6911,6.6914,6.6914,6.6914,6.6914,6.6914,6.6914,6.6914,6.6914,6.6914,6.6914,6.6914,6.6914,6.6914,6.6914,6.6914,6.6914,6.6914,6.6914,6.6914,6.6914,6.6914,6.6914,6.6914,6.6914,0.0,0.0,0.0,0.0,0.0,0.0,0.0,0.0,0.0,0.0,0.0,0.0,0.0,0.0,0.0,0.0,0.0,0.0,4.5594,4.5594,4.5594,4.5594,4.5594,4.5594,4.5594,4.5594,4.5594,4.5594,4.5594,4.5594,4.5594,4.5594,4.5594,4.5594,4.5594,4.5594,4.5594,4.5594,4.5594,4.5629,4.5898,4.6509,0.0,0.0,0.0,0.0,0.0,0.0,0.0,0.0,5.0707,5.0707,5.0707,5.0707,5.0707,5.0707,5.0707,5.0707,5.0707,5.1279,5.212,5.2967,5.3857,5.478,5.5862,5.6555,5.7093,5.7363,5.8973,6.0742,6.221,6.3166,6.4006,0.0,6.5513,6.5904,6.5904,6.5904,6.5904,6.5904,6.5923,0.0,0.0,0.0,0.0,0.0,0.0,0.0,0.0,6.687,6.6913,6.6913,6.6914,6.6914,6.6914,6.6914,6.6914,6.6914,6.6914,6.6914,6.6914,6.6914,6.6914,6.6914,6.6914,6.6914,6.6914,6.6914,6.6914,6.6914,6.6914,6.6914,6.6914,6.6914,6.6914,6.6914,0.0,0.0,0.0,0.0,0.0,0.0,0.0,0.0,0.0,0.0,0.0,0.0,0.0,0.0,0.0,0.0,0.0,0.0,4.5594,4.5594,4.5594,4.5594,4.5594,4.5594,4.5594,4.5594,4.5594,4.5594,4.5594,4.5594,4.5594,4.5594,4.5594,4.5594,4.5594,4.5594,4.5594,4.5594,4.5594,4.5706,4.6547,4.7389,4.8197,0.0,0.0,0.0,0.0,0.0,0.0,0.0,5.0707,5.0707,5.0707,5.0707,5.0707,5.0707,5.0707,5.0707,5.0707,5.1279,5.212,5.2967,5.3857,5.4939,5.6632,5.7011,5.7275,5.8121,6.0325,6.2364,6.316,6.4006,6.4897,6.5743,6.5904,6.5904,6.5904,6.5904,6.5904,6.5904,6.5966,0.0,0.0,0.0,0.0,0.0,0.0,0.0,0.0,6.6914,6.6914,6.6914,6.6914,6.6914,6.6914,6.6914,6.6914,6.6914,6.6914,6.6914,6.6914,6.6914,6.6914,6.6914,6.6914,6.6914,6.6914,6.6914,6.6914,6.6914,6.6914,6.6914,6.6914,6.6914,6.6914,6.6914,0.0,0.0,0.0,0.0,0.0,0.0,0.0,0.0,0.0,0.0,0.0,0.0,0.0,0.0,0.0,0.0,0.0,0.0,4.5594,4.5594,4.5594,4.5594,4.5594,4.5594,4.5594,4.5594,4.5594,4.5594,4.5594,4.5594,4.5594,4.5594,4.5594,4.5594,4.5594,4.5594,4.5594,4.5594,4.5936,4.6547,4.6812,4.7735,4.9048,0.0,0.0,0.0,0.0,0.0,0.0,0.0,0.0,0.0,5.0707,5.0707,5.0707,5.0707,5.0707,5.0707,5.0707,5.1279,5.212,5.2967,5.3857,5.4939,5.6632,5.7473,5.8313,5.9742,6.1133,6.2364,6.316,6.4006,0.0,6.5743,6.5904,6.5904,6.5904,6.5904,6.5904,6.5904,6.5966,0.0,0.0,0.0,0.0,0.0,0.0,0.0,0.0,6.6914,6.6914,6.6914,6.6914,6.6914,6.6914,6.6914,6.6914,6.6914,6.6914,6.6914,6.6914,6.6914,6.6914,6.6914,6.6914,6.6914,6.6914,6.6914,6.6914,6.6914,6.6914,6.6914,6.6914,6.6914,6.6914,6.6914,0.0,0.0,0.0,0.0,0.0,0.0,0.0,0.0,0.0,0.0,4.5594,4.5594,0.0,0.0,0.0,0.0,0.0,0.0,0.0,4.5594,4.5594,4.5594,4.5594,4.5594,4.5594,4.5594,4.5594,4.5594,4.5594,4.5594,4.5594,4.5594,4.5594,4.5594,4.5594,4.5594,4.5633,4.5975,4.6432,4.6966,4.762,4.8509,4.9433,0.0,0.0,0.0,0.0,0.0,0.0,0.0,0.0,0.0,5.0707,5.0707,5.0707,5.0707,5.0707,5.0707,5.0707,5.1548,5.2544,5.3082,5.4087,5.5434,5.7132,5.8165,5.9165,6.0512,6.1749,6.2704,6.3198,6.432,0.0,6.582,6.5904,6.5904,6.5904,6.5904,6.591,6.5941,6.5982,0.0,0.0,0.0,0.0,0.0,0.0,0.0,0.0,6.6914,6.6914,6.6914,6.6914,6.6914,6.6914,6.6914,6.6914,6.6914,6.6914,6.6914,6.6914,6.6914,6.6914,6.6914,6.6914,6.6914,6.6914,6.6914,6.6914,6.6914,6.6914,6.6914,6.6914,6.6914,6.6914,6.6914,0.0,0.0,4.5594,4.5594,0.0,0.0,0.0,0.0,0.0,0.0,4.5594,4.5594,0.0,0.0,0.0,0.0,0.0,0.0,0.0,0.0,4.5594,4.5594,4.5594,4.5594,4.5594,4.5594,4.5594,4.5594,4.5594,4.5594,4.5594,4.5594,4.5594,4.5594,4.5594,4.5629,4.5782,4.6547,4.7005,4.7274,4.8779,4.9433,4.9586,5.0399,0.0,0.0,0.0,0.0,0.0,0.0,0.0,0.0,5.0707,5.0707,5.0707,5.0707,5.0707,5.0707,5.0707,5.1933,5.3197,5.3197,5.4587,5.6357,5.7934,5.8973,5.9858,6.0748,6.2204,6.3314,6.3391,6.4782,6.5904,6.5904,6.5904,6.5904,6.5904,6.5904,6.5929,6.5996,0.0,0.0,0.0,0.0,0.0,0.0,0.0,0.0,0.0,6.6914,6.6914,6.6914,6.6914,6.6914,6.6914,6.6914,6.6914,6.6914,6.6914,6.6914,6.6914,6.6914,6.6914,6.6914,6.6914,6.6914,6.6914,6.6914,6.6914,6.6914,6.6914,6.6914,6.6914,6.6914,6.6914,6.6914,0.0,0.0,4.5594,4.5594,0.0,0.0,0.0,0.0,0.0,0.0,0.0,0.0,0.0,0.0,0.0,0.0,0.0,0.0,0.0,0.0,4.5594,4.5594,4.5594,4.5594,4.5594,4.5594,4.5594,4.5594,4.5594,4.5594,4.5594,4.5594,4.5594,4.5594,4.5594,4.5975,4.662,4.6812,4.7658,4.8894,4.924,4.9822,5.0438,5.063,5.0707,0.0,0.0,0.0,0.0,0.0,0.0,0.0,5.0707,5.0707,5.0707,5.0707,5.0707,5.0707,5.0707,5.1933,5.3197,5.3197,5.5511,5.7857,5.8204,5.9435,6.0781,6.1633,6.2627,6.3506,6.4199,6.5205,6.5904,6.5904,6.5904,6.5904,6.5904,6.5904,6.5929,6.5996,0.0,0.0,0.0,0.0,0.0,0.0,0.0,0.0,6.6914,6.6914,6.6914,6.6914,6.6914,6.6914,6.6914,6.6914,6.6914,0.0,6.6914,6.6914,6.6914,6.6914,6.6914,6.6914,6.6914,6.6914,6.6914,6.6914,6.6914,6.6914,6.6914,6.6914,6.6914,6.6914,6.6914,6.6914,0.0,0.0,0.0,0.0,0.0,0.0,0.0,0.0,0.0,0.0,0.0,0.0,0.0,4.5594,0.0,0.0,4.5594,4.5594,4.5594,4.5594,4.5594,4.5594,4.5594,4.5594,4.5594,4.5594,4.5594,4.5594,4.5594,4.5594,4.5594,4.5594,4.5594,4.5633,4.6052,4.6471,4.6966,4.7774,4.8586,4.9433,4.9861,5.0284,5.0707,5.0707,5.0707,5.0707,5.0707,0.0,0.0,0.0,0.0,0.0,0.0,0.0,5.0707,5.0707,5.0707,5.0707,5.0707,5.1933,5.339,5.4203,5.6357,5.8313,5.8313,5.9588,6.1056,6.1903,6.2743,6.3583,6.4436,6.532,6.5904,6.5904,6.5904,6.5904,6.5904,6.5929,6.5984,6.604,0.0,0.0,0.0,0.0,0.0,0.0,0.0,6.6914,6.6914,6.6914,6.6914,6.6914,6.6914,6.6914,6.6914,6.6914,6.6914,6.6914,6.6914,6.6914,6.6914,6.6914,6.6914,6.6914,6.6914,6.6914,6.6914,6.6914,6.6914,6.6914,6.6914,6.6914,6.6914,6.6914,6.6914,6.6914,0.0,0.0,0.0,0.0,0.0,0.0,0.0,0.0,0.0,0.0,0.0,0.0,0.0,4.5594,4.5594,0.0,0.0,0.0,4.5594,4.5594,4.5594,4.5594,4.5594,4.5594,4.5594,4.5594,4.5594,4.5594,4.5594,4.5594,4.5594,4.5594,4.5667,4.5859,4.6586,4.7043,4.7428,4.8817,4.9471,4.9707,5.0399,5.0707,5.0707,5.0707,0.0,5.0707,5.0707,5.0707,5.0707,5.0707,0.0,0.0,0.0,0.0,5.0707,5.0707,5.0707,5.0707,5.0707,5.1933,5.3587,5.528,5.7011,5.8313,5.8313,5.9588,6.1056,6.1903,6.2743,6.3583,6.4436,6.532,6.5904,6.5904,6.5904,6.5904,6.5904,6.596,6.6011,6.6102,0.0,0.0,0.0,0.0,0.0,0.0,0.0,6.6914,6.6914,6.6914,6.6914,6.6914,6.6914,6.6914,6.6914,6.6914,6.6914,6.6914,6.6914,6.6914,6.6914,6.6914,6.6914,6.6914,6.6914,6.6914,6.6914,6.6914,6.6914,6.6914,6.6914,6.6914,6.6914,6.6914,6.6914,6.6914,0.0,0.0,0.0,0.0,0.0,0.0,0.0,0.0,0.0,0.0,4.5594,4.5594,4.5594,4.5594,4.5594,4.5594,4.5594,4.5594,4.5594,0.0,0.0,4.5594,4.5594,4.5594,4.5594,4.5594,4.5594,4.5594,4.5594,4.5594,4.5594,4.5594,4.6013,4.6735,4.6851,4.7697,4.9086,4.9317,4.9822,5.0553,5.063,5.0707,5.0707,0.0,0.0,0.0,0.0,5.0707,5.0707,5.0707,5.0707,0.0,0.0,0.0,5.0707,5.0707,5.0707,5.0707,5.0707,5.1933,5.3587,5.528,5.7011,5.8313,5.8313,5.9588,6.1056,6.1903,6.2743,6.3583,6.4436,6.532,6.5904,6.5904,6.5904,6.5904,6.5904,6.596,6.6067,6.6155,0.0,0.0,0.0,0.0,0.0,0.0,6.6914,6.6914,6.6914,6.6914,6.6914,6.6914,6.6914,6.6914,6.6914,6.6914,6.6914,6.6914,6.6914,6.6914,6.6914,6.6914,6.6914,6.6914,6.6914,6.6914,6.6914,6.6914,6.6914,6.6914,6.6914,6.6914,6.6914,6.6914,6.6914,6.6914,0.0,0.0,0.0,0.0,0.0,0.0,0.0,0.0,0.0,0.0,0.0,4.5594,4.5594,4.5594,4.5594,4.5594,4.5594,4.5594,4.5594,4.5594,4.5594,4.5594,4.5594,4.5594,4.5594,4.5594,4.5594,4.5594,4.5594,4.5859,4.6317,4.6317,4.6547,4.6928,4.7889,4.8702,4.9433,4.9938,5.0361,5.0707,5.0707,5.0707,0.0,0.0,0.0,0.0,0.0,0.0,0.0,5.0707,5.0707,5.0707,5.0707,0.0,0.0,0.0,5.0707,5.0899,5.1856,5.2626,5.3587,5.528,5.6632,5.7703,5.8204,5.9204,6.0319,6.1172,6.2056,6.3012,6.4359,6.532,6.5904,6.5904,6.5904,6.5904,6.5904,6.5982,6.608,6.6177,6.6384,0.0,0.0,0.0,0.0,0.0,6.6914,6.6914,6.6914,6.6914,6.6914,6.6914,6.6914,6.6914,6.6914,6.6914,6.6914,6.6914,6.6914,6.6914,6.6914,6.6914,6.6914,6.6914,6.6914,6.6914,6.6914,6.6914,6.6914,6.6914,6.6914,6.6914,6.6914,6.6914,6.6914,6.6914,0.0,0.0,0.0,0.0,0.0,0.0,0.0,0.0,0.0,0.0,0.0,4.5594,4.5594,0.0,0.0,0.0,4.5594,4.5594,4.5594,4.5594,4.5594,4.5594,4.5594,4.5594,4.5594,4.5594,4.5706,4.5936,4.5936,4.6355,4.7197,4.7428,4.7543,4.7582,4.8856,4.951,4.9784,5.0438,5.0707,5.0707,5.0707,0.0,0.0,0.0,0.0,0.0,0.0,0.0,0.0,0.0,0.0,5.0707,5.0707,5.0707,0.0,0.0,0.0,5.1015,5.2467,5.3044,5.3549,5.5011,5.6209,5.7247,5.8088,5.8934,5.9742,6.0633,6.1479,6.248,6.3743,6.482,6.5628,6.5865,6.5904,6.591,6.5923,6.604,6.616,6.6229,6.6474,0.0,0.0,0.0,0.0,0.0,6.6914,6.6914,6.6914,6.6914,6.6914,6.6914,6.6914,6.6914,6.6914,6.6914,6.6914,6.6914,6.6914,6.6914,6.6914,6.6914,6.6914,6.6914,6.6914,6.6914,6.6914,6.6914,6.6914,6.6914,6.6914,6.6914,6.6914,6.6914,6.6914,6.6914,0.0,0.0,0.0,0.0,0.0,0.0,0.0,0.0,0.0,0.0,0.0,4.5594,4.5594,4.5594,4.5594,4.5594,4.5594,4.5594,4.5594,4.5594,4.5594,4.5594,4.5594,0.0,4.5594,4.5594,4.6013,4.6812,4.6812,4.7235,4.8043,4.8894,4.9279,4.9279,4.9356,4.9861,5.063,5.0668,5.0707,5.0707,5.0707,0.0,0.0,0.0,0.0,0.0,0.0,0.0,0.0,0.0,0.0,0.0,0.0,5.0707,5.0707,0.0,0.0,0.0,5.1736,5.2582,5.3433,5.4318,5.5785,5.7247,5.8088,5.8934,5.9742,6.0633,6.1479,6.2133,6.221,6.3557,6.4936,6.5782,6.5904,6.5923,6.599,6.6063,6.6162,6.6357,6.6516,0.0,0.0,0.0,0.0,0.0,6.6914,6.6914,6.6914,6.6914,6.6914,6.6914,6.6914,6.6914,6.6914,6.6914,6.6914,6.6914,6.6914,6.6914,6.6914,6.6914,6.6914,6.6914,6.6914,6.6914,6.6914,6.6914,6.6914,6.6914,6.6914,6.6914,6.6914,6.6914,6.6914,6.6914,0.0,0.0,0.0,0.0,0.0,0.0,0.0,0.0,0.0,0.0,0.0,0.0,0.0,4.5594,4.5594,4.5594,4.5594,4.5594,4.5594,4.5594,4.5594,4.5594,4.5594,4.5594,4.5594,4.6163,4.6586,4.6889,4.7428,4.8082,4.8933,4.924,4.9707,5.0245,5.0245,5.0399,5.0707,5.0707,5.0707,5.0707,5.0707,0.0,0.0,0.0,0.0,0.0,0.0,0.0,0.0,0.0,0.0,0.0,0.0,0.0,0.0,5.0707,5.0707,5.0861,5.1697,5.2544,5.3395,5.428,5.5324,5.6401,5.7286,5.8127,5.8973,5.9781,6.0666,6.1441,6.1979,6.348,6.4705,6.5013,6.5551,6.5923,6.5996,6.6096,6.6201,6.6373,6.6574,0.0,0.0,0.0,0.0,0.0,0.0,6.6914,6.6914,6.6914,6.6914,6.6914,6.6914,6.6914,6.6914,6.6914,6.6914,6.6914,6.6914,6.6914,6.6914,6.6914,6.6914,6.6914,6.6914,6.6914,6.6914,6.6914,6.6914,6.6914,6.6914,6.6914,6.6914,6.6914,6.6914,6.6914,0.0,0.0,0.0,0.0,0.0,4.5594,0.0,0.0,0.0,0.0,0.0,0.0,0.0,0.0,4.5594,4.5594,4.5594,4.5706,4.6013,4.6052,4.6167,4.6436,4.6436,4.6436,4.6436,4.7009,4.7466,4.7735,4.8279,4.8971,4.9822,4.9822,5.0168,5.0707,5.0707,5.0707,5.0707,5.0707,5.0707,5.0707,0.0,0.0,5.0707,0.0,0.0,0.0,0.0,0.0,0.0,0.0,0.0,0.0,0.0,0.0,0.0,0.0,5.0707,5.0822,5.1356,5.212,5.2967,5.3857,5.4703,5.5593,5.6747,5.744,5.8165,5.9281,5.9973,6.0633,6.1518,6.2826,6.3858,6.4128,6.4897,6.5473,6.5587,6.5961,6.6264,6.6447,6.6583,0.0,0.0,0.0,0.0,0.0,0.0,0.0,6.6914,6.6914,6.6914,6.6914,6.6914,6.6914,6.6914,6.6914,6.6914,6.6914,6.6914,6.6914,6.6914,6.6914,6.6914,6.6914,6.6914,6.6914,6.6914,6.6914,6.6914,6.6914,6.6914,6.6914,6.6914,6.6914,6.6914,6.6914,0.0,4.5594,4.5594,4.5594,4.5594,4.5594,4.5594,0.0,0.0,0.0,0.0,0.0,0.0,0.0,0.0,4.5633,4.5671,4.6013,4.6889,4.6928,4.7274,4.8082,4.8082,4.8082,4.8082,4.812,4.8548,4.9394,4.9433,4.9861,5.0707,5.0707,5.0707,5.0707,5.0707,5.0707,5.0707,5.0707,5.0707,5.0707,0.0,5.0707,5.0707,0.0,0.0,0.0,5.0707,5.0707,0.0,5.0707,0.0,0.0,0.0,0.0,0.0,0.0,0.0,0.0,0.0,0.0,0.0,5.2967,5.3857,5.4939,5.6593,5.6983,5.7478,5.9127,5.9473,5.9781,6.0627,6.1479,6.2326,6.3083,6.3974,6.4618,6.4761,6.5581,6.6277,6.653,6.666,6.6759,0.0,0.0,0.0,0.0,6.6914,6.6914,6.6914,6.6914,6.6914,6.6914,6.6914,6.6914,6.6914,6.6914,6.6914,6.6914,6.6914,6.6914,6.6914,6.6914,6.6914,6.6914,6.6914,6.6914,6.6914,6.6914,6.6914,6.6914,6.6914,6.6914,6.6914,6.6914,6.6914,6.6914,4.5594,4.5594,4.5594,4.5594,4.5594,4.5594,4.5594,0.0,0.0,0.0,0.0,0.0,0.0,0.0,4.6547,4.6547,4.7086,4.7509,4.7735,4.7774,4.7851,4.8082,4.8082,4.8082,4.8082,0.0,0.0,0.0,0.0,0.0,0.0,0.0,5.0707,5.0707,5.0707,5.0707,5.0707,5.0707,5.0707,5.0707,5.0707,5.0707,0.0,0.0,0.0,0.0,0.0,5.0707,5.0707,0.0,5.0707,5.0707,0.0,0.0,0.0,0.0,0.0,0.0,5.0707,0.0,0.0,0.0,0.0,0.0,5.5824,5.6555,5.7324,5.8396,5.9088,5.9781,6.0627,6.1018,6.1248,6.1473,6.2746,6.3785,6.3922,6.4786,6.5485,6.5647,6.6335,6.6816,0.0,0.0,0.0,0.0,6.6914,6.6914,6.6914,6.6914,6.6914,6.6914,6.6914,6.6914,6.6914,6.6914,6.6914,6.6914,6.6914,6.6914,6.6914,6.6914,6.6914,6.6914,6.6914,6.6914,6.6914,6.6914,6.6914,6.6914,6.6914,6.6914,6.6914,6.6914,6.6914,6.6914,4.5594,4.5594,4.5594,4.5594,4.5594,4.5594,0.0,0.0,0.0,0.0,0.0,0.0,0.0,0.0,0.0,4.7389,4.7812,4.8235,4.8625,4.8625,4.8817,4.9163,4.9163,4.9163,4.9163,0.0,0.0,0.0,0.0,0.0,0.0,0.0,0.0,5.0707,5.0707,5.0707,5.0707,5.0707,0.0,0.0,5.0707,0.0,0.0,5.0707,5.0707,0.0,0.0,0.0,5.1202,5.1202,5.1202,0.0,0.0,0.0,0.0,0.0,0.0,0.0,0.0,0.0,0.0,0.0,0.0,0.0,5.5439,5.6093,5.6709,5.7588,5.8434,5.9281,6.0089,6.055,6.0787,6.0787,6.1703,6.2574,6.3023,6.3951,6.4678,6.4835,6.5693,6.6275,0.0,6.6679,6.6914,6.6914,6.6914,6.6914,6.6914,6.6914,6.6914,6.6914,6.6914,6.6914,6.6914,6.6914,6.6914,6.6914,6.6914,6.6914,6.6914,6.6914,6.6914,6.6914,6.6914,6.6914,6.6914,6.6914,6.6914,6.6914,6.6914,6.6914,6.6914,6.6914,6.6914,6.6914,0.0,4.5594,4.5633,4.5744,4.5744,4.5782,0.0,0.0,0.0,0.0,0.0,0.0,0.0,0.0,0.0,0.0,4.8312,4.8702,4.9471,4.9548,0.0,0.0,0.0,0.0,0.0,0.0,0.0,0.0,0.0,0.0,0.0,0.0,0.0,0.0,5.0707,5.0707,5.0707,5.0707,0.0,5.0707,5.0707,5.0707,0.0,0.0,5.0822,5.0861,5.0938,5.1433,5.2038,5.2038,5.2038,0.0,0.0,0.0,0.0,0.0,5.0822,0.0,0.0,0.0,0.0,0.0,5.3274,0.0,5.5324,5.5708,5.5939,5.6824,5.7632,5.8396,5.9204,6.0089,6.0666,6.0666,6.0845,6.1286,6.2141,6.3134,6.3848,6.4026,6.4848,6.5418,6.5586,6.6289,6.6797,6.6875,6.6914,6.6914,6.6914,6.6914,6.6914,6.6914,6.6914,6.6914,6.6914,6.6914,6.6914,6.6914,6.6914,6.6914,6.6914,6.6914,6.6914,6.6914,6.6914,6.6914,6.6914,6.6914,6.6914,6.6914,6.6914,6.6914,6.6914,6.6914,6.6914,6.6914,4.5594,4.5594,4.5821,4.6509,4.6658,0.0,0.0,0.0,0.0,0.0,0.0,0.0,0.0,0.0,0.0,0.0,4.9784,5.0245,5.0438,0.0,0.0,0.0,0.0,0.0,0.0,0.0,0.0,0.0,0.0,0.0,0.0,0.0,0.0,0.0,5.0707,5.0707,5.0707,5.0707,0.0,5.0707,5.0707,0.0,5.0784,5.1433,5.1659,5.1774,5.2472,5.2813,5.2967,5.2967,5.2967,5.2967,0.0,0.0,0.0,0.0,0.0,0.0,0.0,0.0,0.0,0.0,0.0,0.0,5.5478,5.5708,5.5939,5.6824,5.7132,5.7517,5.8396,5.9204,5.9742,5.9742,6.0454,6.1093,6.1328,6.226,6.2972,6.3133,6.3958,6.4799,6.5547,6.5742,6.6133,6.6836,6.6914,6.6914,6.6914,6.6914,6.6914,6.6914,6.6914,6.6914,6.6914,6.6914,6.6914,6.6914,6.6914,6.6914,6.6914,6.6914,6.6914,6.6914,6.6914,6.6914,6.6914,6.6914,6.6914,6.6914,6.6914,6.6914,6.6914,6.6914,6.6914,6.6914,4.6855,4.6855,4.6971,4.7428,0.0,0.0,0.0,0.0,0.0,0.0,0.0,0.0,0.0,0.0,0.0,0.0,0.0,0.0,0.0,0.0,0.0,0.0,0.0,0.0,0.0,0.0,0.0,0.0,0.0,0.0,0.0,0.0,0.0,0.0,5.0707,5.0707,5.0707,5.0707,5.0938,5.1279,5.0861,0.0,5.1356,5.1736,5.2159,5.262,5.3044,5.3472,5.3895,5.4318,5.4164,0.0,0.0,5.3549,5.3121,0.0,5.2544,5.2467,0.0,0.0,0.0,5.3626,0.0,0.0,0.0,5.5708,5.5824,5.6247,5.6709,5.7132,5.7555,5.8357,5.8896,5.8896,5.97,6.0367,6.0476,6.1419,6.2087,6.2236,6.3061,6.3823,6.4258,6.4687,6.5312,6.6172,6.664,6.6914,6.6914,6.6914,6.6914,6.6914,6.6914,6.6914,6.6914,6.6914,6.6914,6.6914,6.6914,6.6914,6.6914,6.6914,6.6914,6.6914,6.6914,6.6914,6.6914,6.6914,6.6914,6.6914,6.6914,6.6914,6.6914,6.6914,6.6914,6.6914,4.8159,4.8082,4.8159,4.8312,0.0,0.0,0.0,0.0,0.0,4.9553,0.0,0.0,0.0,0.0,0.0,0.0,0.0,0.0,0.0,0.0,0.0,0.0,0.0,5.0707,0.0,0.0,0.0,0.0,0.0,0.0,0.0,0.0,0.0,0.0,0.0,5.0938,5.0938,5.1092,0.0,5.2082,0.0,5.1587,5.2159,5.2351,5.2851,5.3472,5.3626,5.4126,5.4818,5.5478,5.5285,5.4741,5.4741,5.4241,0.0,0.0,0.0,0.0,0.0,0.0,0.0,0.0,0.0,5.4895,0.0,0.0,0.0,5.5708,5.6247,5.6747,5.6747,5.7473,0.0,5.805,0.0,0.0,0.0,6.0586,0.0,6.1571,6.2279,0.0,6.2969,6.3789,6.4648,6.5547,6.625,6.6719,6.6875,6.6914,6.6914,6.6914,6.6914,6.6914,6.6914,6.6914,6.6914,6.6914,6.6914,6.6914,6.6914,6.6914,6.6914,6.6914,6.6914,6.6914,6.6914,6.6914,6.6914,6.6914,6.6914,6.6914,6.6914,6.6914,6.6914,6.6914,4.8394,4.8082,4.8355,4.9125,0.0,0.0,0.0,0.0,0.0,5.0553,5.063,0.0,0.0,0.0,0.0,0.0,0.0,0.0,5.0707,0.0,0.0,0.0,0.0,0.0,5.0707,0.0,0.0,0.0,0.0,0.0,0.0,0.0,0.0,0.0,5.1471,5.1774,5.1813,5.2582,5.2967,0.0,5.2967,5.2967,0.0,5.3895,5.428,5.4434,5.5164,5.5478,5.5593,0.0,5.5631,5.5555,0.0,5.5516,5.5285,5.4549,0.0,0.0,0.0,0.0,0.0,0.0,5.5054,0.0,0.0,0.0,5.5708,5.5708,0.0,5.5862,5.5862,0.0,0.0,0.0,0.0,0.0,5.9678,6.0018,6.0514,6.149,6.1764,6.2138,0.0,6.3789,6.4648,6.5547,6.5703,6.6094,6.6875,6.6914,6.6914,6.6914,6.6914,6.6914,6.6914,6.6914,6.6914,6.6914,6.6914,6.6914,6.6914,6.6914,6.6914,6.6914,6.6914,6.6914,6.6914,6.6914,6.6914,6.6914,6.6914,6.6914,6.6914,6.6914,6.6914,6.6914,4.9745,4.963,4.9707,5.0091,0.0,0.0,0.0,0.0,0.0,5.0707,5.0707,0.0,0.0,0.0,0.0,0.0,0.0,5.0707,0.0,0.0,0.0,0.0,0.0,0.0,0.0,0.0,0.0,0.0,5.2164,0.0,0.0,0.0,0.0,0.0,5.2505,5.2659,5.2697,0.0,5.351,0.0,0.0,0.0,0.0,5.4549,5.478,5.5247,5.5593,5.5708,5.5708,0.0,5.5708,0.0,0.0,0.0,0.0,0.0,0.0,0.0,0.0,0.0,0.0,0.0,0.0,0.0,5.5708,0.0,5.5708,0.0,0.0,0.0,0.0,0.0,0.0,0.0,5.6961,0.0,0.0,0.0,6.0339,0.0,0.0,0.0,0.0,0.0,0.0,0.0,6.5039,6.5742,6.6133,6.664,6.6914,6.6914,6.6914,6.6914,6.6914,6.6914,6.6914,6.6914,6.6914,6.6914,6.6914,6.6914,6.6914,6.6914,6.6914,6.6914,6.6914,6.6914,6.6914,6.6914,6.6914,6.6914,6.6914,6.6914,6.6914,6.6914,5.0707,5.0707,5.0707,5.0707,0.0,0.0,0.0,0.0,0.0,0.0,0.0,0.0,5.0707,5.0707,0.0,0.0,5.0707,5.0784,0.0,0.0,5.2,0.0,0.0,0.0,0.0,0.0,0.0,0.0,0.0,0.0,0.0,0.0,0.0,0.0,0.0,5.3549,5.3587,5.378,5.4241,5.4818,5.4818,5.5324,5.5978,5.5131,5.5208,5.5747,5.5978,5.6055,5.6093,5.6319,5.6247,0.0,5.6055,0.0,0.0,0.0,0.0,0.0,5.5708,0.0,0.0,0.0,0.0,0.0,0.0,0.0,0.0,0.0,0.0,0.0,0.0,0.0,0.0,0.0,0.0,5.6809,0.0,5.84,0.0,0.0,0.0,0.0,0.0,0.0,0.0,6.2969,6.4375,6.5351,6.5586,6.6445,6.6914,6.6914,6.6914,6.6914,6.6914,6.6914,6.6914,6.6914,6.6914,6.6914,6.6914,6.6914,6.6914,6.6914,6.6914,6.6914,6.6914,6.6914,6.6914,6.6914,6.6914,6.6914,6.6914,6.6914,6.6914,6.6914,5.0707,5.0707,5.0707,5.0707,5.0707,0.0,0.0,0.0,0.0,0.0,0.0,0.0,0.0,0.0,0.0,0.0,0.0,5.1015,5.1813,0.0,5.2274,0.0,0.0,5.3197,0.0,0.0,0.0,0.0,0.0,0.0,0.0,0.0,0.0,0.0,5.4087,5.4472,5.4511,5.5285,5.5631,5.567,5.567,5.617,5.6863,0.0,5.567,5.5824,5.667,0.0,0.0,5.7934,5.7671,0.0,0.0,0.0,0.0,0.0,0.0,0.0,0.0,0.0,0.0,5.5708,0.0,0.0,0.0,0.0,5.5708,0.0,0.0,0.0,0.0,0.0,0.0,0.0,0.0,0.0,0.0,0.0,0.0,0.0,0.0,0.0,0.0,6.1719,6.2109,6.293,6.3828,6.4726,6.5547,6.6445,6.6914,6.6914,6.6914,6.6914,6.6914,6.6914,6.6914,6.6914,6.6914,6.6914,6.6914,6.6914,6.6914,6.6914,6.6914,6.6914,6.6914,6.6914,6.6914,6.6914,6.6914,6.6914,6.6914,6.6914,6.6914,6.6914,5.0707,5.0707,5.0707,5.0707,5.0707,5.0707,0.0,5.0707,0.0,0.0,0.0,0.0,0.0,5.1505,5.1741,0.0,0.0,5.2472,5.2736,5.3313,0.0,0.0,0.0,5.4857,0.0,0.0,0.0,0.0,0.0,0.0,5.4857,5.4857,0.0,0.0,5.5164,5.5285,5.5324,5.5593,5.5708,0.0,0.0,5.6747,5.6983,0.0,0.0,5.7473,5.7742,5.7857,0.0,5.8198,5.8088,5.7857,5.7857,5.7665,5.7434,5.7434,5.7434,0.0,0.0,0.0,5.728,5.6709,0.0,0.0,0.0,0.0,0.0,0.0,0.0,0.0,0.0,0.0,0.0,0.0,0.0,0.0,0.0,0.0,0.0,0.0,0.0,0.0,0.0,0.0,0.0,6.2109,6.2969,6.3828,6.4687,6.5586,6.6289,6.6875,6.6914,6.6914,6.6914,6.6914,6.6914,6.6914,6.6914,6.6914,6.6914,6.6914,6.6914,6.6914,6.6914,6.6914,6.6914,6.6914,6.6914,6.6914,6.6914,6.6914,6.6914,6.6914,6.6914,6.6914,5.0707,5.0707,5.0707,5.0707,5.0707,0.0,0.0,0.0,0.0,0.0,5.1399,0.0,5.2313,0.0,5.2582,0.0,5.3197,5.3313,5.3626,5.4203,0.0,5.4895,5.5439,0.0,0.0,0.0,0.0,0.0,0.0,5.5708,5.5708,5.5708,5.5708,5.5708,5.5708,5.5708,5.5708,5.5708,5.5708,0.0,0.0,5.7363,0.0,0.0,5.805,5.8352,0.0,5.8742,5.8775,5.9088,5.8973,5.8742,5.8742,5.8544,5.8313,5.8313,5.8313,5.8313,5.8313,5.8313,0.0,5.7594,5.7478,0.0,5.6742,0.0,0.0,0.0,0.0,0.0,0.0,0.0,0.0,0.0,0.0,0.0,0.0,5.8412,0.0,0.0,0.0,6.1719,0.0,6.1719,6.1719,6.1719,6.25,6.3398,0.0,0.0,6.6015,6.6875,6.6914,6.6914,6.6914,6.6914,6.6914,6.6914,6.6914,6.6914,6.6914,6.6914,6.6914,6.6914,6.6914,6.6914,6.6914,6.6914,6.6914,6.6914,6.6914,6.6914,6.6914,6.6914,6.6914,6.6914,5.0822,5.0822,5.0822,5.0822,5.0784,0.0,0.0,0.0,5.1962,0.0,5.2697,5.3236,5.3274,5.3274,5.3274,5.3313,5.3313,5.3664,5.4511,5.4549,0.0,0.0,5.5708,5.5708,5.5708,0.0,0.0,0.0,0.0,0.0,5.5708,5.5708,5.5708,5.5708,5.5708,5.5708,5.5708,5.5747,5.5785,5.5901,5.6786,5.8094,5.9511,5.955,5.9088,5.8506,5.9281,5.955,5.9704,6.0512,6.0242,5.955,5.955,5.905,5.8429,5.8429,5.8429,5.8429,5.8429,5.8429,5.839,5.8352,0.0,0.0,0.0,0.0,5.8297,0.0,0.0,0.0,0.0,0.0,0.0,0.0,0.0,0.0,0.0,0.0,0.0,0.0,0.0,6.1719,6.1719,6.1719,6.1719,6.1719,6.2461,6.332,0.0,0.0,6.5937,6.6875,6.6914,6.6914,6.6914,6.6914,6.6914,6.6914,6.6914,6.6914,6.6914,6.6914,6.6914,6.6914,6.6914,6.6914,6.6914,6.6914,6.6914,6.6914,6.6914,6.6914,6.6914,6.6914,6.6914,6.6914,5.2549,5.2549,5.2549,0.0,5.2005,5.1582,0.0,0.0,0.0,0.0,5.3044,5.3433,5.4087,5.4164,5.4395,5.5011,5.5049,0.0,0.0,0.0,0.0,5.5708,5.5708,5.5708,5.5708,5.5708,0.0,5.5708,0.0,0.0,5.5708,5.5708,5.5708,5.5708,5.5708,5.5708,5.5747,5.6401,5.7055,5.7703,5.8511,5.9127,5.9588,0.0,6.0319,6.0204,6.0396,6.0473,6.0517,6.0704,6.0666,6.0473,6.0473,6.0319,6.0165,6.0165,6.0165,6.0165,6.0165,6.0165,6.0012,5.9358,5.9204,5.905,0.0,0.0,0.0,0.0,0.0,0.0,0.0,0.0,0.0,0.0,0.0,0.0,0.0,0.0,0.0,6.1286,0.0,0.0,6.1719,6.1719,6.1719,6.1719,6.1914,6.2695,0.0,0.0,0.0,6.6836,6.6914,6.6914,6.6914,6.6914,6.6914,6.6914,6.6914,6.6914,6.6914,6.6914,6.6914,6.6914,6.6914,6.6914,6.6914,6.6914,6.6914,6.6914,6.6914,6.6914,6.6914,6.6914,6.6914,6.6914,5.3197,5.3197,0.0,5.3197,0.0,0.0,5.2544,5.3197,0.0,5.4241,5.4626,0.0,5.6088,5.6165,5.6357,5.678,5.6857,0.0,5.6857,0.0,0.0,5.6857,5.6478,5.6285,5.6285,5.5901,0.0,5.5708,0.0,0.0,5.5708,5.5708,5.5708,5.5708,5.5708,5.5901,5.6324,5.7209,5.805,5.8858,5.9319,5.9742,0.0,6.0594,6.0787,6.0787,6.0787,6.0787,6.0787,6.0787,6.0787,6.0787,6.0787,6.0787,6.0787,6.0787,6.0787,6.0787,6.0787,6.0787,6.0671,6.0204,6.0089,5.9935,5.9511,5.9396,5.9392,0.0,0.0,0.0,0.0,0.0,0.0,0.0,0.0,0.0,0.0,0.0,0.0,0.0,6.1719,0.0,6.1719,6.1719,6.1719,6.1719,6.1719,0.0,0.0,0.0,0.0,6.6289,6.6719,6.6914,6.6914,6.6914,6.6914,6.6914,6.6914,6.6914,6.6914,6.6914,6.6914,6.6914,6.6914,6.6914,6.6914,6.6914,6.6914,6.6914,6.6914,6.6914,6.6914,6.6914,6.6914,6.6914,5.3549,5.3549,0.0,0.0,0.0,0.0,0.0,5.4357,0.0,5.5785,0.0,5.7478,5.8204,5.8313,5.8313,5.8313,0.0,5.8313,5.8313,5.8313,5.8313,5.8313,5.7555,5.717,5.717,5.6439,0.0,0.0,0.0,0.0,5.5862,5.5747,5.5747,5.5862,5.5862,5.6401,5.7363,5.8127,5.8934,5.9665,5.9665,6.0127,6.0787,6.0787,6.0787,6.0787,6.0787,6.0787,6.0787,6.0787,6.0787,6.0787,6.0787,6.0787,6.0787,6.0787,6.0787,6.0787,6.0787,6.0787,6.0787,6.0787,6.0787,6.0787,6.0787,6.0831,6.0844,6.0972,6.106,6.1147,0.0,0.0,0.0,0.0,0.0,0.0,0.0,0.0,0.0,0.0,0.0,0.0,0.0,0.0,0.0,0.0,0.0,0.0,0.0,0.0,0.0,6.5586,6.6445,6.6914,6.6914,0.0,6.6914,6.6914,6.6914,6.6914,6.6914,6.6914,6.6914,6.6914,6.6914,6.6914,6.6914,6.6914,6.6914,6.6914,6.6914,6.6914,6.6914,6.6914,6.6875,6.6874,5.5241,5.5241,5.5241,0.0,0.0,5.6516,5.6362,5.6439,5.6593,5.6747,5.7511,5.8127,5.8275,5.8313,5.8313,5.8313,5.8313,0.0,0.0,0.0,0.0,5.8313,5.8159,5.8088,5.8088,5.7934,5.7857,0.0,0.0,0.0,0.0,5.6055,5.6093,5.6786,5.6786,5.7632,5.905,5.9242,0.0,6.0556,6.0556,6.0666,6.0787,6.0787,6.0787,6.0787,6.0787,6.0787,6.0787,6.0787,6.0787,6.0787,6.0787,6.0787,6.0787,6.0787,6.0787,6.0787,6.0787,6.0787,6.0787,6.0787,6.0787,6.0787,6.0787,6.0821,6.0894,6.0982,6.1143,6.1275,6.1362,0.0,0.0,0.0,0.0,0.0,0.0,0.0,0.0,0.0,0.0,6.1719,0.0,0.0,0.0,0.0,0.0,0.0,0.0,0.0,0.0,0.0,6.6445,0.0,0.0,0.0,6.6914,6.6914,6.6914,6.6914,6.6914,6.6914,6.6914,6.6914,6.6914,6.6914,6.6914,6.6914,6.6914,6.6914,6.6914,6.6914,6.6914,6.6913,6.6871,6.6829,5.6285,5.6362,5.6516,0.0,0.0,0.0,0.0,5.8017,0.0,5.8286,5.8665,5.9088,5.955,5.9588,5.9588,5.9588,5.9588,5.9588,5.9588,5.9588,5.9588,5.9588,5.9165,0.0,5.8934,5.8506,5.8313,5.8313,0.0,0.0,0.0,0.0,5.7011,5.7055,5.7901,5.8742,5.9511,0.0,0.0,6.0787,6.0787,6.0787,6.0787,6.0787,6.0787,6.0787,6.0787,6.0787,6.0787,6.0787,6.0787,6.0787,6.0787,6.0787,6.0787,6.0787,6.0787,6.0787,6.0787,6.0787,6.0787,6.0787,6.0787,6.0787,6.0787,6.0866,6.0921,6.1017,6.1177,6.1356,6.1473,6.1541,0.0,0.0,0.0,0.0,0.0,0.0,0.0,0.0,0.0,0.0,0.0,0.0,0.0,0.0,0.0,0.0,0.0,0.0,0.0,0.0,0.0,0.0,0.0,0.0,0.0,6.6914,6.6914,6.6914,6.6914,6.6914,6.6914,6.6914,6.6914,6.6914,6.6914,6.6914,6.6914,6.6914,6.6914,6.6914,6.6913,6.687,6.6821,6.6803,0.0,5.7286,0.0,0.0,5.8434,0.0,5.855,5.9242,5.9704,5.9511,5.9665,6.005,6.0748,6.0787,6.0787,6.0787,6.0787,6.0787,6.0787,6.0787,6.0787,6.0787,6.0127,5.9781,5.9781,5.9165,5.8813,0.0,0.0,0.0,0.0,0.0,0.0,0.0,0.0,0.0,0.0,0.0,6.0787,6.0787,6.0787,6.0787,6.0787,6.0787,6.0787,6.0787,6.0787,6.0787,6.0787,6.0787,6.0787,6.0787,6.0787,6.0787,6.0787,6.0787,6.0787,6.0787,6.0787,6.0787,6.0787,6.0787,6.0787,6.0787,6.0787,6.085,6.0969,6.1082,6.1228,6.1417,6.1573,6.1629,0.0,0.0,0.0,0.0,0.0,0.0,0.0,0.0,0.0,0.0,6.1719,0.0,0.0,0.0,0.0,0.0,0.0,0.0,0.0,0.0,0.0,6.6914,6.6914,0.0,6.6914,0.0,6.6914,6.6914,6.6914,6.6914,6.6914,6.6914,6.6914,6.6914,6.6914,6.6914,6.6914,6.6914,6.6914,6.6913,6.6872,6.6824,6.6801,6.6759,0.0,0.0,0.0,0.0,0.0,0.0,5.9396,6.0127,6.0396,5.9588,6.0204,6.0704,6.0787,6.0787,6.0787,6.0787,6.0787,6.0787,6.0787,6.0787,6.0787,6.0787,6.0704,6.0671,6.0671,6.0589,6.0556,0.0,0.0,0.0,0.0,0.0,0.0,0.0,0.0,0.0,0.0,6.0787,6.0787,6.0787,6.0787,6.0787,6.0787,6.0787,6.0787,6.0787,6.0787,6.0787,6.0787,6.0787,6.0787,6.0787,6.0787,6.0787,6.0787,6.0787,6.0787,6.0787,6.0787,6.0787,6.0787,6.0787,6.0787,6.0787,6.0787,6.0916,6.1022,6.1095,6.1346,6.1598,6.1686,6.1692,6.1693,0.0,0.0,0.0,0.0,0.0,6.1719,6.1719,0.0,0.0,0.0,6.1719,0.0,0.0,6.1719,0.0,0.0,0.0,0.0,6.4297,0.0,6.6914,6.6914,6.6914,6.6914,6.6914,6.6914,6.6914,6.6914,6.6914,6.6914,6.6914,6.6914,6.6914,6.6914,6.6914,6.6914,6.6914,6.6914,6.6913,6.6871,6.6812,6.6771,6.6663,0.0,0.0,0.0,0.0,0.0,0.0,0.0,6.0589,6.0864,6.1056,6.0902,6.0787,6.0787,6.1287,6.1595,6.1595,6.2012,6.232,6.232,6.232,6.2089,6.1595,6.1595,6.1325,6.0825,6.0787,6.0787,0.0,0.0,0.0,0.0,0.0,0.0,0.0,0.0,6.0787,6.0787,6.0787,6.0787,6.0787,6.0787,6.0787,6.0864,6.1364,6.1595,6.1633,6.2127,6.232,6.232,6.232,6.1627,6.0787,6.0787,6.0787,6.0787,6.0787,6.0787,6.0787,6.0787,6.0787,6.0787,6.0787,6.0787,6.0793,6.0866,6.0948,6.1022,6.1205,6.1463,6.1675,6.1702,6.1705,6.1707,0.0,0.0,0.0,0.0,0.0,0.0,6.1719,0.0,6.1719,0.0,0.0,0.0,0.0,0.0,0.0,0.0,0.0,0.0,6.4297,0.0,6.6914,6.6914,6.6914,6.6914,6.6914,6.6914,6.6914,6.6914,6.6914,6.6914,6.6914,6.6914,6.6914,6.6914,6.6914,6.6914,6.6914,6.6913,6.6871,6.6821,6.6775,6.6661,6.6552,5.9781,0.0,6.0089,0.0,6.1018,6.1172,6.1172,6.1396,6.1743,6.2358,6.1935,6.155,6.155,6.2089,6.2441,6.2441,6.2974,6.3314,6.3314,6.3314,6.3045,6.248,6.2441,0.0,6.155,6.155,6.1435,6.1172,6.1172,0.0,0.0,0.0,0.0,0.0,6.0787,6.0787,6.0825,6.1056,6.1172,6.121,6.1435,6.155,6.1589,6.221,6.2441,6.2512,6.3083,6.3314,6.3314,6.3314,6.2506,6.155,6.155,6.155,6.155,6.155,6.155,6.155,6.155,6.155,6.155,6.155,6.155,6.1568,6.1626,6.1525,6.141,6.1405,6.1537,6.1693,6.1711,6.1714,6.1715,6.1717,0.0,0.0,0.0,0.0,0.0,0.0,6.1719,6.1719,6.1719,6.1719,0.0,0.0,0.0,0.0,0.0,0.0,0.0,0.0,0.0,0.0,0.0,6.6914,6.6914,6.6914,6.6914,6.6914,6.6914,6.6914,6.6914,6.6914,6.6914,6.6914,6.6914,6.6914,6.6914,6.6914,6.6871,6.6821,6.6798,6.6687,6.6576,6.6431,6.0787,6.0787,6.0787,6.0787,6.1518,6.2095,6.2095,6.2743,6.3275,6.3275,6.3275,6.3275,6.3275,6.3275,6.3275,6.3275,6.3275,6.3314,6.3314,6.3314,6.3314,0.0,0.0,6.3275,6.3275,6.3275,6.2897,6.2095,0.0,0.0,6.0787,0.0,6.0787,6.0787,6.0787,6.0787,6.0864,6.171,6.2095,6.2133,6.2935,6.3275,6.3275,6.3275,6.3275,6.3275,6.3314,6.3314,6.3314,6.3314,6.3275,6.3275,6.3275,6.3275,6.3275,6.3275,6.3275,6.3275,6.3275,6.3275,6.3275,6.3275,6.3275,6.3294,6.3359,6.2856,6.2234,6.1697,6.1642,6.1705,6.1718,6.1719,6.1719,6.1719,0.0,0.0,0.0,0.0,0.0,6.1719,6.1719,6.1719,6.1719,6.1719,0.0,0.0,0.0,0.0,0.0,0.0,0.0,6.4297,6.5976,0.0,6.6914,6.6914,6.6914,6.6914,6.6914,6.6914,6.6914,6.6914,6.6914,6.6914,6.6914,6.6914,6.6914,6.6912,6.6911,6.6872,6.6821,6.68,6.6766,6.6637,6.6506,6.6377,6.2506,6.2506,6.2506,6.2506,6.2737,6.2935,6.2935,6.3121,6.3506,6.4128,6.4199,6.4397,6.5013,6.4551,6.4199,0.0,6.4743,6.5051,0.0,6.5051,6.482,6.4205,6.4199,6.3891,6.3314,6.3314,6.316,6.2935,0.0,0.0,0.0,6.2506,6.2506,6.2506,6.2506,6.2506,6.2512,6.282,6.2935,6.2935,6.3198,6.3314,6.3352,6.3968,6.4199,6.4275,6.4859,6.5051,6.5051,6.5051,6.5051,6.5051,6.5051,6.4275,6.3314,6.3314,6.3314,6.3314,6.3314,6.3314,6.3314,6.3314,6.3314,6.3356,6.3505,6.3563,6.3506,6.3398,6.2944,6.2574,6.2578,6.2109,6.1719,6.1719,6.1719,0.0,0.0,0.0,0.0,0.0,6.1719,6.1719,0.0,6.1719,0.0,0.0,0.0,0.0,0.0,0.0,0.0,0.0,6.5976,0.0,6.6914,6.6914,6.6914,6.6914,6.6914,6.6914,6.6914,6.6914,6.6914,6.6914,6.6914,6.6914,6.6912,6.6831,6.6823,6.6849,6.6772,6.6689,6.6631,6.6479,6.6334,6.6235,6.3314,6.3314,6.3314,6.3314,6.3583,6.3775,6.3775,6.4083,6.4474,6.5013,6.5089,6.5282,6.5827,6.5397,0.0,6.5089,6.559,6.5904,6.5904,6.5904,6.5667,6.5128,6.5089,6.482,6.4282,0.0,0.0,6.3775,6.3468,6.3314,6.3314,6.3314,6.3314,6.3314,6.3314,6.3314,6.3314,6.366,6.3775,6.3814,6.4122,6.4282,6.4359,6.4897,6.5089,6.5166,6.5705,6.5904,6.5904,6.5904,6.5904,6.5904,6.5904,6.5166,6.4282,6.4282,6.4282,6.4282,6.4282,6.4282,6.4282,6.4282,6.43,6.4274,6.4189,6.4369,6.448,6.4281,6.3852,6.3475,6.3476,6.2773,6.2187,6.2187,6.1914,6.1719,6.1719,0.0,0.0,0.0,0.0,0.0,0.0,6.1719,6.1719,0.0,0.0,0.0,0.0,0.0,0.0,6.4297,6.5976,0.0,6.6914,6.6914,6.6914,6.6914,6.6914,6.6914,6.6914,6.6914,6.6914,6.6914,6.6914,6.6873,6.6869,6.6817,6.6796,6.6764,6.6649,6.6576,6.65,6.6321,6.622,6.6102,6.3468,6.3468,6.3468,0.0,6.416,0.0,6.4705,6.5397,6.5904,6.5904,6.5904,6.5904,6.5904,6.5904,6.5904,6.5904,0.0,0.0,0.0,6.5904,6.5904,6.5904,6.5904,6.5904,6.5904,6.5904,6.5513,6.4705,6.3891,6.3468,6.3468,6.3468,6.3468,6.3468,6.3468,6.3468,6.3545,6.4359,6.4705,6.4743,6.5551,6.5904,6.5904,6.5904,6.5904,6.5904,6.5904,6.5904,6.5904,6.5904,6.5904,6.5904,6.5904,6.5904,6.5904,6.5904,6.5904,6.5904,6.5904,6.5904,6.5904,6.5904,6.5966,6.5865,6.5311,6.5303,6.5232,6.4615,6.4444,6.4374,6.4375,6.3672,6.3086,6.3086,6.2344,6.1797,6.1797,0.0,0.0,0.0,0.0,0.0,0.0,6.1719,6.1719,0.0,0.0,0.0,0.0,0.0,6.4297,6.4297,6.5976,6.6914,6.6914,6.6914,6.6914,6.6914,6.6914,6.6914,6.6914,6.6914,6.6914,6.6914,6.6912,6.6869,6.6782,6.6787,6.6742,6.6688,6.653,6.6423,6.6368,6.6225,6.6102,6.5996,0.0,0.0,6.5282,6.5282,6.5474,6.559,6.559,6.5782,6.5904,6.5904,6.5904,6.5904,6.5904,6.5904,6.5904,6.5904,6.5904,6.5904,6.5904,6.5904,6.5904,6.5904,6.5904,6.5904,6.5904,6.5904,6.5788,6.559,6.5397,6.5282,6.5282,6.5282,6.5282,6.5282,6.5282,6.5282,6.5282,6.5513,6.559,6.559,6.582,6.5904,6.5904,6.5904,6.5904,6.5904,6.5904,6.5904,6.5904,6.5904,6.5904,6.5904,6.5904,6.5904,6.5904,6.5904,6.5904,6.5904,6.5904,6.5904,6.5904,6.5904,6.6019,6.6129,6.612,6.6252,6.6338,6.6222,6.5736,6.5273,6.5273,6.457,6.3984,6.3984,6.3242,6.2695,6.2695,6.2109,0.0,0.0,6.1719,6.1719,6.1719,6.1719,6.1719,0.0,0.0,0.0,0.0,6.3359,6.4297,6.4297,6.5976,6.6914,6.6914,6.6914,6.6914,6.6914,6.6914,6.6914,6.6914,6.6914,6.6914,6.6912,6.6869,6.6817,6.6786,6.6689,6.6563,6.6447,6.6394,6.6273,6.6165,6.608,6.605,6.5976,6.5904,6.5904,6.5904,6.5904,6.5904,6.5904,6.5904,6.5904,6.5904,6.5904,6.5904,6.5904,6.5904,6.5904,6.5904,6.5904,6.5904,6.5904,6.5904,6.5904,6.5904,6.5904,6.5904,6.5904,6.5904,6.5904,6.5904,6.5904,6.5904,6.5904,6.5904,6.5904,6.5904,6.5904,6.5904,6.5904,6.5904,6.5904,6.5904,6.5904,6.5904,6.5904,6.5904,6.5904,6.5904,6.5904,6.5904,6.5904,6.5904,6.5904,6.5904,6.5904,6.5904,6.5904,6.5904,6.5904,6.5904,6.5904,6.5904,6.5904,6.5923,6.597,6.6079,6.6251,6.6454,6.6615,6.6747,6.6821,6.6482,6.6172,6.6172,6.5469,6.4883,6.4883,6.414,6.3476,6.3047,6.2578,0.0,6.1758,6.1719,6.1719,6.1719,6.1719,6.1719,6.1719,6.1719,0.0,6.1719,6.2969,6.3906,6.4297,6.5976,6.6914,6.6914,6.6914,6.6914,6.6914,6.6914,6.6914,6.6914,6.6914,6.6873,6.6869,6.6816,6.6784,6.6687,6.6555,6.6436,6.6329,6.6215,6.6102,6.6052,6.599,6.596,6.5954,6.5904,6.5904,6.5904,6.5904,6.5904,6.5904,6.5904,6.5904,6.5904,6.5904,6.5904,6.5904,6.5904,6.5904,6.5904,6.5904,6.5904,6.5904,6.5904,6.5904,6.5904,6.5904,6.5904,6.5904,6.5904,6.5904,6.5904,6.5904,6.5904,6.5904,6.5904,6.5904,6.5904,6.5904,6.5904,6.5904,6.5904,6.5904,6.5904,6.5904,6.5904,6.5904,6.5904,6.5904,6.5904,6.5904,6.5904,6.5904,6.5904,6.5904,6.5904,6.5904,6.5904,6.5904,6.5904,6.5904,6.5904,6.5904,6.5904,6.591,6.5921,6.6058,6.6167,6.6303,6.6549,6.6656,6.6756,6.6869,6.6913,6.6914,6.6914,6.6289,6.5781,6.5781,6.5078,6.4258,6.3515,0.0,6.2734,6.1992,6.1797,6.1719,6.1719,6.1719,6.1719,6.1719,6.1719,6.1719,6.1719,6.2539,6.3359,6.4062,6.5781,6.6758,6.6914,6.6914,6.6914,6.6914,6.6914,6.6914,6.6914,6.6873,6.6868,6.6818,6.6783,6.6683,6.6558,6.6425,6.6325,6.6254,6.6058,6.5999,6.5984,6.5923,6.5904,6.5904,6.5904,6.5904,6.5904,6.5904,6.5904,6.5904,6.5904,6.5904,6.5904,6.5904,6.5904,6.5904,6.5904,6.5904,6.5904,6.5904,6.5904,6.5904,6.5904,6.5904,6.5904,6.5904,6.5904,6.5904,6.5904,6.5904,6.5904,6.5904,6.5904,6.5904,6.5904,6.5904,6.5904,6.5904,6.5904,6.5904,6.5904,6.5904,6.5904,6.5904,6.5904,6.5904,6.5904,6.5904,6.5904,6.5904,6.5904,6.5904,6.5904,6.5904,6.5904,6.5904,6.5904,6.5904,6.5904,6.5904,6.5904,6.5904,6.5904,6.5941,6.5982,6.6069,6.6244,6.6411,6.6563,6.6718,6.6816,6.687,6.6913,6.6914,6.6914,6.6797,6.6719,6.6719,6.5976,6.5351,6.5234,0.0,6.2969,6.2812,6.2148,6.1719,6.1719,6.1719,6.1719,6.1719,6.1719,6.1719,6.1719,6.2539,6.3047,6.3203,6.4883,6.6172,6.6875,6.6914,6.6914,6.6914,6.6914,6.6914,6.6912,6.683,6.6815,6.6781,6.6683,6.6549,6.6418,6.6364,6.6205,6.6041,6.6005,6.5978,6.5916,6.5904,6.5904,6.5904,6.5904,6.5904,6.5904,6.5904,6.5904,6.5904,6.5904,6.5904,6.5904,6.5904,6.5904,6.5904,6.5904,6.5904,6.5904,6.5904,6.5904,6.5904,6.5904,6.5904,6.5904,6.5904,6.5904,6.5904,6.5904,6.5904,6.5904,6.5904,6.5904,6.5904,6.5904,6.5904,6.5904,6.5904,6.5904,6.5904,6.5904,6.5904,6.5904,6.5904,6.5904,6.5904,6.5904,6.5904,6.5904,6.5904,6.5904,6.5904,6.5904,6.5904,6.5904,6.5904,6.5904,6.5904,6.5904,6.5904,6.5904,6.5904,6.5904,6.5954,6.6011,6.6111,6.6264,6.6447,6.6624,6.6742,6.6821,6.6873,6.6914,6.6914,6.6914,6.6914,6.6914,6.6914,6.6562,0.0,0.0,6.4922,6.4062,6.3125,6.2656,6.2226,6.1758,6.1719,6.1719,6.1719,6.1719,6.1719,6.1719,6.207,6.25,6.3008,6.4687,6.6015,6.6875,6.6914,6.6914,6.6914,6.6914,6.6914,6.6911,6.6821,6.6791,6.6736,6.6552,6.6422,6.6355,6.62,6.6069,6.5993,6.5972,6.5929,6.5904,6.5904,6.5904,6.5904,6.5904,6.5904,6.5904,6.5904,6.5904,6.5904,6.5904,6.5904,6.5904,6.5904,6.5904,6.5904,6.5904,6.5904,6.5904,6.5904,6.5904,6.5904,6.5904,6.5904,6.5904,6.5904,6.5904,6.5904,6.5904,6.5904,6.5904,6.5904,6.5904,6.5904,6.5904,6.5904,6.5904,6.5904,6.5904,6.5904,6.5904,6.5904,6.5904,6.5904,6.5904,6.5904,6.5904,6.5904,6.5904,6.5904,6.5904,6.5904,6.5904,6.5904,6.5904,6.5904,6.5904,6.5904,6.5904,6.5904,6.591,6.5923,6.5923,6.5984,6.6069,6.6211,6.6341,6.6504,6.6675,6.6764,6.6826,6.6875,6.6914,6.6914,6.6914,6.6914,6.6914,6.6914,0.0,0.0,0.0,6.5742,6.5117,6.375,6.3242,6.2734,6.207,6.1836,6.1719,6.1719,6.1719,6.1719,6.1719,6.1719,6.2109,6.2969,6.4687,6.5937,6.6601,6.6797,6.6914,6.6914,6.6914,6.6874,6.6869,6.6801,6.6748,6.6629,6.6471,6.6312,6.6239,6.6052,6.5993,6.5972,6.5923,6.5904,6.5904,6.5904,6.5904,6.5904,6.5904,6.5904,6.5904,6.5904,6.5904,6.5904,6.5904,6.5904,6.5904,6.5904,6.5904,6.5904,6.5904,6.5904,6.5904,6.5904,6.5904,6.5904,6.5904,6.5904,6.5904,6.5904,6.5904,6.5904,6.5904,6.5904,6.5904,6.5904,6.5904,6.5904,6.5904,6.5904,6.5904,6.5904,6.5904,6.5904,6.5904,6.5904,6.5904,6.5904,6.5904,6.5904,6.5904,6.5904,6.5904,6.5904,6.5904,6.5904,6.5904,6.5904,6.5904,6.5904,6.5904,6.5904,6.5904,6.5904,6.5947,6.5996,6.5996,6.604,6.6139,6.6346,6.6503,6.661,6.6741,6.6858,6.6873,6.6914,6.6914,6.6914,6.6914,6.6914,6.6914,6.6914,0.0,0.0,6.6797,6.6094,6.5547,6.543,6.3984,6.2969,6.289,6.2187,6.1719,6.1719,6.1719,6.1719,6.1719,6.1719,6.2109,6.2969,6.4687,6.5625,6.5703,6.6484,6.6914,6.6914,6.6913,6.6868,6.6813,6.6755,6.6624,6.6496,6.6368,6.619,6.6024,6.5999,6.5972,6.591,6.5904,6.5904,6.5904,6.5904,6.5904,6.5904,6.5904,6.5904,6.5904,6.5904,6.5904,6.5904,6.5904,6.5904,6.5904,6.5904,6.5904,6.5904,6.5904,6.5904,6.5904,6.5904,6.5904,6.5904,6.5904,6.5904,6.5904,6.5904,6.5904,6.5904,6.5904,6.5904,6.5904,6.5904,6.5904,6.5904,6.5904,6.5904,6.5904,6.5904,6.5904,6.5904,6.5904,6.5904,6.5904,6.5904,6.5904,6.5904,6.5904,6.5904,6.5904,6.5904,6.5904,6.5904,6.5904,6.5904,6.5904,6.5904,6.5904,6.5904,6.591,6.5954,6.597,6.604,6.6156,6.6214,6.6254,6.6404,6.6564,6.6683,6.6796,6.6863,6.6912,6.6914,6.6914,6.6914,6.6914,6.6914,6.6914,6.6914,0.0,6.6914,6.6914,6.6601,6.6211,6.5664,6.5039,6.418,6.3086,6.2695,6.2265,6.1758,6.1719,6.1719,6.1719,6.1719,6.1836,6.2187,6.3359,6.4258,6.4805,6.5664,6.6094,6.6093,6.6597,6.6819,6.6787,6.6672,6.6558,6.6442,6.6259,6.6129,6.5993,6.5966,6.5923,6.5904,6.5904,6.5904,6.5904,6.5904,6.5904,6.5904,6.5904,6.5904,6.5904,6.5904,6.5904,6.5904,6.5904,6.5904,6.5904,6.5904,6.5904,6.5904,6.5904,6.5904,6.5904,6.5904,6.5904,6.5904,6.5904,6.5904,6.5904,6.5904,6.5904,6.5904,6.5904,6.5904,6.5904,6.5904,6.5904,6.5904,6.5904,6.5904,6.5904,6.5904,6.5904,6.5904,6.5904,6.5904,6.5904,6.5904,6.5904,6.5904,6.5904,6.5904,6.5904,6.5904,6.5904,6.5904,6.5904,6.5904,6.5904,6.5904,6.5904,6.5916,6.5947,6.5976,6.6019,6.6134,6.6297,6.6377,6.6412,6.653,6.6639,6.6761,6.6815,6.6869,6.6913,6.6914,6.6914,6.6914,6.6914,6.6914,6.6914,6.6914,6.6914,6.6914,6.6914,6.6914,6.668,6.6094,6.5781,6.5039,6.3555,6.3164,6.2656,6.1758,6.1719,6.1719,6.1719,6.1719,6.1719,6.1719,6.2265,6.289,6.3476,6.4609,6.5194,6.5191,6.5728,6.5977,6.5966,6.5781,6.5644,6.5519,6.5636,6.5604,6.5581,6.5807,6.5904,6.5904,6.5904,6.5904,6.5904,6.5904,6.5904,6.5897,6.5904,6.5904,6.5904,6.5904,6.5904,6.5904,6.5904,6.5904,6.5904,6.5904,6.5904,6.5904,6.5904,6.5904,6.5904,6.5904,6.5904,6.5904,6.5904,6.5904,6.5904,6.5904,6.5904,6.5904,6.5904,6.5904,6.5904,6.5904,6.5904,6.5904,6.5904,6.5904,6.5904,6.5904,6.5904,6.5904,6.5904,6.5904,6.5904,6.5904,6.5904,6.5904,6.5904,6.5904,6.5904,6.5904,6.5904,6.5904,6.5904,6.5904,6.5904,6.5904,6.5904,6.5947,6.6014,6.599,6.6139,6.6301,6.6396,6.65,6.6639,6.6665,6.6761,6.6806,6.6869,6.6913,6.6914,6.6914,6.6914,6.6914,6.6914,6.6914,6.6914,6.6914,6.6914,6.6914,6.6914,6.6914,6.6914,6.6914,6.6133,6.5273,6.4375,6.3515,6.2656,6.1758,6.1719,6.1719,6.1719,6.1719,6.1719,6.1719,6.1719,6.1718,6.1717,6.3435,6.4293,6.4287,6.422,6.4171,6.4101,6.3902,6.374,6.3627,6.4387,6.4651,6.4666,6.5551,6.5904,6.5904,6.5904,6.5904,6.5904,6.5904,6.5904,6.5891,6.5904,6.5904,6.5904,6.5904,6.5904,6.5904,6.5904,6.5904,6.5904,6.5904,6.5904,6.5904,6.5904,6.5904,6.5904,6.5904,6.5904,6.5904,6.5904,6.5904,6.5904,6.5904,6.5904,6.5904,6.5904,6.5904,6.5904,6.5904,6.5904,6.5904,6.5904,6.5904,6.5904,6.5904,6.5904,6.5904,6.5904,6.5904,6.5904,6.5904,6.5904,6.5904,6.5904,6.5904,6.5904,6.5904,6.5904,6.5904,6.5904,6.5904,6.5904,6.591,6.596,6.5976,6.6013,6.6155,6.6301,6.6408,6.6507,6.6649,6.6748,6.6755,6.6794,6.6822,6.6871,6.6913,6.6914,6.6914,6.6914,6.6914,6.6914,6.6914,6.6914,6.6914,6.6914,6.6914,6.6914,6.6914,6.6914,6.6914,6.668,6.5937,6.4453,6.4062,6.3281,6.1797,6.1719,6.1719,6.1719,6.1719,6.1719,6.1719,6.1718,6.1716,6.1712,6.2806,6.3345,6.3319,6.3858,6.4052,6.3939,6.3798,6.3641,6.3559,6.4347,6.4651,6.4666,6.5551,6.5904,6.5904,6.5904,6.5904,6.5904,6.5904,6.5872,6.5813,6.5904,6.5904,6.5904,6.5904,6.5904,6.5904,6.5904,6.5904,6.5904,6.5904,6.5904,6.5904,6.5904,6.5904,6.5904,6.5904,6.5904,6.5904,6.5904,6.5904,6.5904,6.5904,6.5904,6.5904,6.5904,6.5904,6.5904,6.5904,6.5904,6.5904,6.5904,6.5904,6.5904,6.5904,6.5904,6.5904,6.5904,6.5904,6.5904,6.5904,6.5904,6.5904,6.5904,6.5904,6.5904,6.5904,6.5904,6.5904,6.5904,6.5904,6.5904,6.591,6.5984,6.604,6.6112,6.6278,6.6404,6.6507,6.6654,6.6723,6.68,6.6844,6.6859,6.6869,6.6873,6.6914,6.6914,6.6914,6.6914,6.6914,6.6914,6.6914,6.6914,6.6914,6.6914,6.6914,6.6914,6.6914,6.6914,6.6914,6.6914,6.6211,6.4453,6.4297,6.3594,6.1836,6.1719,6.1719,6.1719,6.1719,6.1719,6.1718,6.1716,6.1671,6.1656,6.2149,6.2403,6.2333,6.2801,6.2928,6.2828,6.2687,6.2552,6.2546,6.3679,6.4126,6.416,6.5397,6.5904,6.5904,6.5904,6.5904,6.5897,6.5872,6.5813,6.5688,6.5904,6.5904,6.5904,6.5904,6.5904,6.5904,6.5904,6.5904,6.5904,6.5904,6.5904,6.5904,6.5904,6.5904,6.5904,6.5904,6.5904,6.5904,6.5904,6.5904,6.5904,6.5904,6.5904,6.5904,6.5904,6.5904,6.5904,6.5904,6.5904,6.5904,6.5904,6.5904,6.5904,6.5904,6.5904,6.5904,6.5904,6.5904,6.5904,6.5904,6.5904,6.5904,6.5904,6.5904,6.5904,6.5904,6.5904,6.5904,6.5904,6.5904,6.5904,6.5923,6.5996,6.6108,6.624,6.6385,6.6523,6.6619,6.6766,6.6807,6.6827,6.6872,6.6912,6.6912,6.6914,6.6914,6.6914,6.6914,6.6914,6.6914,6.6914,6.6914,6.6914,6.6914,6.6914,6.6914,6.6914,6.6914,6.6914,6.6914,6.6914,6.625,6.457,6.4297,6.3476,6.1836,6.1719,6.1719,6.1719,6.1719,6.1718,6.1716,6.1671,6.1655,6.1576,6.1515,6.1476,6.1476,6.1357,6.1264,6.1159,6.0977,6.0916,6.0977,6.2607,6.3314,6.3429,6.5166,6.5904,6.5904,6.5904,6.5904,6.5891,6.582,6.5694,6.5544,6.5904,6.5904,6.5904,6.5904,6.5904,6.5904,6.5904,6.5904,6.5904,6.5904,6.5904,6.5904,6.5904,6.5904,6.5904,6.5904,6.5904,6.5904,6.5904,6.5904,6.5904,6.5904,6.5904,6.5904,6.5904,6.5904,6.5904,6.5904,6.5904,6.5904,6.5904,6.5904,6.5904,6.5904,6.5904,6.5904,6.5904,6.5904,6.5904,6.5904,6.5904,6.5904,6.5904,6.5904,6.5904,6.5904,6.5904,6.5904,6.5904,6.5904,6.5935,6.6002,6.6069,6.6205,6.6394,6.6513,6.6642,6.6767,6.6809,6.6826,6.6872,6.6914,6.6914,6.6914,6.6914,6.6914,6.6914,6.6914,6.6914,6.6914,6.6914,6.6914,6.6914,6.6914,6.6914,6.6914,6.6914,6.6914,6.6914,6.6914,6.6914,6.6484,6.543,6.4062,6.2851,6.1797,6.1719,6.1719,6.1719,6.1718,6.1716,6.1711,6.1651,6.1574,6.1515,6.1415,6.1353,6.135,6.1264,6.1121,6.0962,6.0927,6.0861,6.092,6.2589,6.3314,6.3429,6.5166,6.5904,6.5904,6.5904,6.5904,6.5891,6.582,6.5632,6.5345,6.5904,6.5904,6.5904,6.5904,6.5904,6.5904,6.5904,6.5904,6.5904,6.5904,6.5904,6.5904,6.5904,6.5904,6.5904,6.5904,6.5904,6.5904,6.5904,6.5904,6.5904,6.5904,6.5904,6.5904,6.5904,6.5904,6.5904,6.5904,6.5904,6.5904,6.5904,6.5904,6.5904,6.5904,6.5904,6.5904,6.5904,6.5904,6.5904,6.5904,6.5904,6.5904,6.5904,6.5904,6.5904,6.5904,6.5904,6.5904,6.5904,6.5904,6.5947,6.6032,6.6135,6.6249,6.6431,6.6594,6.6701,6.6802,6.6826,6.6872,6.6913,6.6914,6.6914,6.6914,6.6914,6.6914,6.6914,6.6914,6.6914,6.6914,6.6914,6.6914,6.6914,6.6914,6.6914,6.6914,6.6914,6.6914,6.6914,6.6914,6.6914,6.6406,6.5117,6.3789,6.2656,6.1758,6.1719,6.1719,6.1719,6.1718,6.1674,6.1658,6.1583,6.1517,6.1415,6.1289,6.1185,6.1122,6.1079,6.0982,6.0911,6.0855,6.0816,6.0896,6.2589,6.3314,6.3429,6.5166,6.5904,6.5904,6.5904,6.5878,6.584,6.5694,6.5352,6.483,6.5904,6.5904,6.5904,6.5904,6.5904,6.5904,6.5904,6.5904,6.5904,6.5904,6.5904,6.5904,6.5904,6.5904,6.5904,6.5904,6.5904,6.5904,6.5904,6.5904,6.5904,6.5904,6.5904,6.5904,6.5904,6.5904,6.5904,6.5904,6.5904,6.5904,6.5904,6.5904,6.5904,6.5904,6.5904,6.5904,6.5904,6.5904,6.5904,6.5904,6.5904,6.5904,6.5904,6.5904,6.5904,6.5904,6.5904,6.5904,6.5904,6.5916,6.5972,6.6029,6.6175,6.6329,6.6464,6.6656,6.6742,6.6822,6.6871,6.6913,6.6914,6.6914,6.6914,6.6914,6.6914,6.6914,6.6914,6.6914,6.6914,6.6914,6.6914,6.6914,6.6914,6.6914,6.6914,6.6914,6.6914,6.6914,6.6914,6.6914,6.6914,6.6289,6.4687,6.3711,6.2851,6.1992,6.1797,6.1719,6.1719,6.1717,6.1667,6.1593,6.1537,6.1401,6.1278,6.1182,6.108,6.0899,6.0888,6.0861,6.0894,6.0848,6.0864,6.1095,6.2627,6.3391,6.366,6.5243,6.5904,6.5897,6.5885,6.584,6.5746,6.5457,6.4943,6.4269,6.5904,6.5904,6.5904,6.5904,6.5904,6.5904,6.5904,6.5904,6.5904,6.5904,6.5904,6.5904,6.5904,6.5904,6.5904,6.5904,6.5904,6.5904,6.5904,6.5904,6.5904,6.5904,6.5904,6.5904,6.5904,6.5904,6.5904,6.5904,6.5904,6.5904,6.5904,6.5904,6.5904,6.5904,6.5904,6.5904,6.5904,6.5904,6.5904,6.5904,6.5904,6.5904,6.5904,6.5904,6.5904,6.5904,6.5904,6.5904,6.591,6.5972,6.6029,6.6118,6.632,6.6475,6.6592,6.6728,6.6815,6.6872,6.6914,6.6914,6.6914,6.6914,6.6914,6.6914,6.6914,6.6914,6.6914,6.6914,6.6914,6.6914,6.6914,6.6914,6.6914,6.6914,6.6914,6.6914,6.6914,6.6914,6.6914,6.6914,6.6914,6.6523,6.5508,6.4648,6.375,6.289,6.2148,6.1718,6.1717,6.1709,6.1643,6.1539,6.1445,6.1352,6.1217,6.1027,6.091,6.0916,6.0833,6.0804,6.0798,6.0787,6.121,6.1979,6.2897,6.3737,6.4512,6.5474,6.5904,6.5897,6.5833,6.5722,6.5559,6.5002,6.4502,6.3988,6.5904,6.5904,6.5904,6.5904,6.5904,6.5904,6.5904,6.5904,6.5904,6.5904,6.5904,6.5904,6.5904,6.5904,6.5904,6.5904,6.5904,6.5904,6.5904,6.5904,6.5904,6.5904,6.5904,6.5904,6.5904,6.5904,6.5904,6.5904,6.5904,6.5904,6.5904,6.5904,6.5904,6.5904,6.5904,6.5904,6.5904,6.5904,6.5904,6.5904,6.5904,6.5904,6.5904,6.5904,6.5904,6.5904,6.5941,6.596,6.5972,6.6034,6.614,6.623,6.6384,6.6549,6.6674,6.6752,6.6862,6.6912,6.6914,6.6914,6.6914,6.6914,6.6914,6.6914,6.6914,6.6914,6.6914,6.6914,6.6914,6.6914,6.6914,6.6914,6.6914,6.6914,6.6914,6.6914,6.6914,6.6914,6.6914,6.6914,6.6914,6.6562,6.5664,6.4805,6.3945,6.3086,6.2187,6.1717,6.1713,6.1656,6.1613,6.149,6.1408,6.1256,6.107,6.0974,6.0878,6.0821,6.0798,6.0787,6.0787,6.0787,6.1287,6.2133,6.2935,6.3775,6.4666,6.5551,6.5904,6.5891,6.582,6.5544,6.5128,6.453,6.406,6.3668]}]]